[[{"header":{"parameterUnit":"m.s-1","parameterCategory":1,"la1":31.0,"la2":29.5877,"lo1":-88.7671,"lo2":-86.6584,"dy":0.0162,"dx":0.0185,"nx":115,"ny":88,"refTime":"2023-11-14T06:00:00:Z","depth":0,"parameterNumber":2,"parameterNumberName":"U-component_of_WINDS"},"data":[0.0,0.0,0.0,0.0,0.0,0.0,0.0,0.0,0.0,0.0,0.0,0.0,0.0,0.0,0.0,0.0,0.0,0.0,0.0,0.0,0.0,0.0,0.0,0.0,0.0,0.0,0.0,0.0,0.0,0.0,0.0,0.0,0.0,0.0,0.0,0.0,0.0,0.0,0.0,0.0,0.0,0.0,0.0,0.0,0.0,0.0,0.0,0.0,0.0,0.0,0.0,0.0,0.0,0.0,0.0,0.0,0.0,0.0,0.0,0.0,0.0,0.0,0.0,0.0,0.0,0.0,0.0,0.0,0.0,0.0,0.0,0.0,0.0,0.0,0.0,0.0,0.0,0.0,0.0,0.0,0.0,0.0,0.0,0.0,0.0,0.0,0.0,0.0,0.0,0.0,0.0,0.0,0.0,0.0,0.0,0.0,0.0,0.0,0.0,0.0,0.0,0.0,0.0,0.0,0.0,0.0,0.0,0.0,0.0,0.0,0.0,0.0,0.0,0.0,0.0,0.0,0.0,0.0,0.0,0.0,0.0,0.0,0.0,0.0,0.0,0.0,0.0,0.0,0.0,0.0,0.0,0.0,0.0,0.0,0.0,0.0,0.0,0.0,0.0,0.0,0.0,0.0,0.0,0.0,0.0,0.0,0.0,0.0,0.0,0.0,0.0,0.0,0.0,0.0,0.0,0.0,0.0,0.0,0.0,0.0,0.0,0.0,0.0,0.0,0.0,0.0,0.0,0.0,0.0,0.0,0.0,0.0,0.0,0.0,0.0,0.0,0.0,0.0,0.0,0.0,0.0,0.0,0.0,0.0,0.0,0.0,0.0,0.0,0.0,0.0,0.0,0.0,0.0,0.0,0.0,0.0,0.0,0.0,0.0,0.0,0.0,0.0,0.0,0.0,0.0,0.0,0.0,0.0,0.0,0.0,0.0,0.0,0.0,0.0,0.0,0.0,0.0,0.0,0.0,0.0,0.0,0.0,0.0,0.0,0.0,0.0,0.0,0.0,0.0,0.0,0.0,0.0,0.0,0.0,0.0,0.0,0.0,0.0,0.0,0.0,0.0,0.0,0.0,0.0,0.0,0.0,0.0,0.0,0.0,0.0,0.0,0.0,0.0,0.0,0.0,0.0,0.0,0.0,0.0,0.0,0.0,0.0,0.0,0.0,0.0,0.0,0.0,0.0,0.0,0.0,0.0,0.0,0.0,0.0,0.0,0.0,0.0,0.0,0.0,0.0,0.0,0.0,0.0,0.0,0.0,0.0,0.0,0.0,0.0,0.0,0.0,0.0,0.0,0.0,0.0,0.0,0.0,0.0,0.0,0.0,0.0,0.0,0.0,0.0,0.0,0.0,0.0,0.0,0.0,0.0,0.0,0.0,0.0,0.0,0.0,0.0,0.0,0.0,0.0,0.0,0.0,0.0,0.0,0.0,0.0,0.0,0.0,0.0,0.0,0.0,0.0,0.0,0.0,0.0,0.0,0.0,0.0,0.0,0.0,0.0,0.0,0.0,0.0,0.0,0.0,0.0,0.0,0.0,0.0,0.0,0.0,0.0,0.0,0.0,0.0,0.0,0.0,0.0,0.0,0.0,0.0,0.0,0.0,0.0,0.0,0.0,0.0,0.0,0.0,0.0,0.0,0.0,0.0,0.0,0.0,0.0,0.0,0.0,0.0,0.0,0.0,0.0,0.0,0.0,0.0,0.0,0.0,0.0,0.0,0.0,0.0,0.0,0.0,0.0,0.0,0.0,0.0,0.0,0.0,0.0,0.0,0.0,0.0,0.0,0.0,0.0,0.0,0.0,0.0,0.0,0.0,0.0,0.0,0.0,0.0,0.0,0.0,0.0,0.0,0.0,0.0,0.0,0.0,0.0,0.0,0.0,0.0,0.0,0.0,0.0,0.0,0.0,0.0,0.0,0.0,0.0,0.0,0.0,0.0,0.0,0.0,0.0,0.0,0.0,0.0,0.0,0.0,0.0,0.0,0.0,0.0,0.0,0.0,0.0,0.0,0.0,0.0,0.0,0.0,0.0,0.0,0.0,0.0,0.0,0.0,0.0,0.0,0.0,0.0,0.0,0.0,0.0,0.0,0.0,0.0,0.0,0.0,0.0,0.0,0.0,0.0,0.0,0.0,0.0,0.0,0.0,0.0,0.0,0.0,0.0,0.0,0.0,0.0,0.0,0.0,0.0,0.0,0.0,0.0,0.0,0.0,0.0,0.0,0.0,0.0,0.0,0.0,0.0,0.0,0.0,0.0,0.0,0.0,0.0,0.0,0.0,0.0,0.0,0.0,0.0,0.0,0.0,0.0,0.0,0.0,0.0,0.0,0.0,0.0,0.0,0.0,0.0,0.0,0.0,0.0,0.0,0.0,0.0,0.0,0.0,0.0,0.0,0.0,0.0,0.0,0.0,0.0,0.0,0.0,0.0,0.0,0.0,0.0,0.0,0.0,0.0,0.0,0.0,0.0,0.0,0.0,0.0,0.0,0.0,0.0,0.0,0.0,0.0,0.0,0.0,0.0,0.0,0.0,0.0,0.0,0.0,0.0,0.0,0.0,0.0,0.0,0.0,0.0,0.0,0.0,0.0,0.0,0.0,0.0,0.0,0.0,0.0,0.0,0.0,0.0,0.0,0.0,0.0,0.0,0.0,0.0,0.0,0.0,0.0,0.0,0.0,0.0,0.0,0.0,0.0,0.0,0.0,0.0,0.0,0.0,0.0,0.0,0.0,0.0,0.0,0.0,0.0,0.0,0.0,0.0,0.0,0.0,0.0,0.0,0.0,0.0,0.0,0.0,0.0,0.0,0.0,0.0,0.0,0.0,0.0,0.0,0.0,0.0,0.0,0.0,0.0,0.0,0.0,0.0,0.0,0.0,0.0,0.0,0.0,0.0,0.0,0.0,0.0,0.0,0.0,0.0,0.0,0.0,0.0,0.0,0.0,0.0,0.0,0.0,0.0,0.0,0.0,0.0,0.0,0.0,0.0,0.0,0.0,0.0,0.0,0.0,0.0,0.0,0.0,0.0,0.0,0.0,0.0,0.0,0.0,0.0,0.0,0.0,0.0,0.0,0.0,0.0,0.0,0.0,0.0,0.0,0.0,0.0,0.0,0.0,0.0,0.0,0.0,0.0,0.0,0.0,0.0,0.0,0.0,0.0,0.0,0.0,0.0,0.0,0.0,0.0,0.0,0.0,0.0,0.0,0.0,0.0,0.0,0.0,0.0,0.0,0.0,0.0,0.0,0.0,0.0,0.0,0.0,0.0,0.0,0.0,0.0,0.0,0.0,0.0,0.0,0.0,0.0,0.0,0.0,0.0,0.0,0.0,0.0,0.0,0.0,0.0,0.0,0.0,0.0,0.0,0.0,0.0,0.0,0.0,0.0,0.0,0.0,0.0,0.0,0.0,0.0,0.0,0.0,0.0,0.0,0.0,0.0,0.0,0.0,0.0,0.0,0.0,0.0,0.0,0.0,0.0,0.0,0.0,0.0,0.0,0.0,0.0,0.0,0.0,0.0,0.0,0.0,0.0,0.0,0.0,0.0,0.0,0.0,0.0,0.0,0.0,0.0,0.0,0.0,0.0,0.0,0.0,0.0,0.0,0.0,0.0,0.0,0.0,0.0,0.0,0.0,0.0,0.0,0.0,0.0,0.0,0.0,0.0,0.0,0.0,0.0,0.0,0.0,0.0,0.0,0.0,0.0,0.0,0.0,0.0,0.0,0.0,0.0,0.0,0.0,0.0,0.0,0.0,0.0,0.0,0.0,0.0,0.0,0.0,0.0,0.0,0.0,0.0,0.0,0.0,0.0,0.0,0.0,0.0,0.0,0.0,0.0,0.0,0.0,0.0,0.0,0.0,0.0,0.0,0.0,0.0,0.0,0.0,0.0,0.0,0.0,0.0,0.0,0.0,0.0,0.0,0.0,0.0,0.0,0.0,0.0,0.0,0.0,0.0,0.0,0.0,0.0,0.0,0.0,0.0,0.0,0.0,0.0,0.0,0.0,0.0,0.0,0.0,0.0,0.0,0.0,0.0,0.0,0.0,0.0,0.0,0.0,0.0,0.0,0.0,0.0,0.0,0.0,0.0,0.0,0.0,0.0,0.0,0.0,0.0,0.0,0.0,0.0,0.0,0.0,0.0,0.0,0.0,0.0,0.0,0.0,0.0,0.0,0.0,0.0,0.0,0.0,0.0,0.0,0.0,0.0,0.0,0.0,0.0,0.0,0.0,0.0,0.0,0.0,0.0,0.0,0.0,0.0,0.0,0.0,4.306,0.0,0.0,0.0,0.0,0.0,0.0,0.0,0.0,0.0,0.0,0.0,0.0,0.0,0.0,0.0,0.0,0.0,0.0,0.0,0.0,0.0,0.0,0.0,0.0,0.0,0.0,0.0,0.0,0.0,0.0,0.0,0.0,0.0,0.0,0.0,0.0,0.0,0.0,0.0,0.0,0.0,0.0,0.0,0.0,0.0,0.0,0.0,0.0,0.0,0.0,0.0,0.0,0.0,0.0,0.0,0.0,0.0,0.0,0.0,0.0,0.0,0.0,0.0,0.0,0.0,0.0,0.0,0.0,0.0,0.0,0.0,0.0,0.0,0.0,0.0,0.0,0.0,0.0,0.0,0.0,0.0,0.0,0.0,0.0,0.0,0.0,0.0,0.0,0.0,0.0,0.0,0.0,0.0,0.0,0.0,0.0,0.0,0.0,0.0,0.0,0.0,0.0,0.0,0.0,0.0,0.0,0.0,0.0,0.0,0.0,4.77,4.7929,4.4457,4.2964,4.3578,0.0,0.0,0.0,0.0,0.0,0.0,0.0,0.0,0.0,0.0,0.0,0.0,0.0,0.0,0.0,0.0,0.0,0.0,0.0,0.0,0.0,0.0,0.0,0.0,0.0,0.0,0.0,0.0,0.0,0.0,0.0,0.0,0.0,0.0,0.0,0.0,0.0,0.0,0.0,0.0,0.0,0.0,0.0,0.0,0.0,0.0,0.0,0.0,0.0,0.0,0.0,0.0,0.0,0.0,0.0,0.0,0.0,0.0,0.0,0.0,0.0,0.0,0.0,0.0,0.0,0.0,0.0,0.0,0.0,0.0,0.0,0.0,0.0,0.0,0.0,0.0,0.0,0.0,0.0,0.0,0.0,0.0,0.0,0.0,0.0,0.0,0.0,0.0,0.0,0.0,0.0,0.0,0.0,0.0,0.0,0.0,0.0,0.0,0.0,0.0,0.0,0.0,0.0,0.0,0.0,0.0,0.0,0.0,0.0,0.0,0.0,0.0,4.5218,4.3322,4.3221,0.0,0.0,0.0,0.0,0.0,0.0,0.0,0.0,0.0,0.0,0.0,0.0,0.0,0.0,0.0,0.0,0.0,0.0,0.0,0.0,0.0,0.0,0.0,0.0,0.0,0.0,0.0,0.0,0.0,0.0,0.0,0.0,0.0,0.0,0.0,0.0,0.0,0.0,0.0,0.0,0.0,0.0,0.0,0.0,0.0,0.0,0.0,0.0,0.0,0.0,0.0,0.0,0.0,0.0,0.0,0.0,0.0,0.0,0.0,0.0,0.0,0.0,0.0,0.0,0.0,0.0,0.0,0.0,0.0,0.0,0.0,0.0,0.0,0.0,0.0,0.0,0.0,0.0,0.0,0.0,0.0,0.0,0.0,0.0,0.0,0.0,0.0,0.0,0.0,0.0,0.0,0.0,0.0,0.0,0.0,0.0,0.0,0.0,0.0,0.0,0.0,0.0,0.0,0.0,0.0,0.0,0.0,0.0,0.0,0.0,4.9817,5.0323,4.7685,0.0,4.2101,0.0,0.0,0.0,0.0,0.0,0.0,0.0,0.0,0.0,0.0,0.0,0.0,0.0,0.0,0.0,0.0,0.0,0.0,0.0,0.0,0.0,0.0,0.0,0.0,0.0,0.0,0.0,0.0,0.0,0.0,0.0,0.0,0.0,0.0,0.0,0.0,0.0,0.0,0.0,0.0,0.0,0.0,0.0,0.0,0.0,0.0,0.0,0.0,0.0,0.0,0.0,0.0,0.0,0.0,0.0,0.0,0.0,0.0,0.0,0.0,0.0,0.0,0.0,0.0,0.0,0.0,0.0,0.0,0.0,0.0,0.0,0.0,0.0,0.0,0.0,0.0,0.0,0.0,0.0,0.0,0.0,0.0,0.0,0.0,0.0,0.0,0.0,0.0,0.0,0.0,0.0,0.0,0.0,0.0,0.0,0.0,0.0,0.0,0.0,0.0,0.0,0.0,0.0,0.0,0.0,0.0,0.0,0.0,0.0,0.0,5.0413,4.9852,4.6639,4.4177,0.0,0.0,0.0,0.0,0.0,0.0,0.0,0.0,0.0,0.0,0.0,0.0,0.0,0.0,0.0,0.0,0.0,0.0,0.0,0.0,0.0,0.0,0.0,0.0,0.0,0.0,0.0,0.0,0.0,0.0,0.0,0.0,0.0,0.0,0.0,0.0,0.0,0.0,0.0,0.0,0.0,0.0,0.0,0.0,0.0,0.0,0.0,0.0,0.0,0.0,0.0,0.0,0.0,0.0,0.0,0.0,0.0,0.0,0.0,0.0,0.0,0.0,0.0,0.0,0.0,0.0,0.0,0.0,0.0,0.0,0.0,0.0,0.0,0.0,0.0,0.0,0.0,0.0,0.0,0.0,0.0,0.0,0.0,0.0,0.0,0.0,0.0,0.0,0.0,0.0,0.0,0.0,0.0,0.0,0.0,0.0,0.0,0.0,0.0,0.0,0.0,0.0,0.0,0.0,0.0,0.0,0.0,0.0,0.0,0.0,5.0656,5.0475,4.905,4.5989,4.402,4.3435,0.0,0.0,0.0,0.0,0.0,0.0,0.0,0.0,0.0,0.0,0.0,0.0,0.0,0.0,0.0,0.0,0.0,0.0,0.0,0.0,0.0,0.0,0.0,0.0,0.0,0.0,0.0,0.0,0.0,0.0,0.0,0.0,0.0,0.0,0.0,0.0,0.0,0.0,0.0,0.0,0.0,0.0,0.0,0.0,0.0,0.0,0.0,0.0,0.0,0.0,0.0,0.0,0.0,0.0,0.0,0.0,0.0,0.0,0.0,0.0,0.0,0.0,0.0,0.0,0.0,0.0,0.0,0.0,0.0,0.0,0.0,0.0,0.0,0.0,0.0,0.0,0.0,0.0,0.0,0.0,0.0,0.0,0.0,0.0,0.0,0.0,0.0,0.0,0.0,0.0,0.0,0.0,0.0,0.0,0.0,0.0,0.0,0.0,0.0,0.0,0.0,0.0,0.0,0.0,0.0,0.0,0.0,0.0,4.9945,5.0206,4.9827,4.8823,4.6854,4.531,0.0,0.0,0.0,0.0,0.0,0.0,0.0,0.0,0.0,0.0,0.0,0.0,0.0,0.0,0.0,0.0,0.0,0.0,0.0,0.0,0.0,0.0,0.0,0.0,0.0,0.0,0.0,0.0,0.0,0.0,0.0,0.0,0.0,0.0,0.0,0.0,0.0,0.0,0.0,0.0,0.0,0.0,0.0,0.0,0.0,0.0,0.0,0.0,0.0,0.0,0.0,0.0,0.0,0.0,0.0,0.0,0.0,0.0,0.0,0.0,0.0,0.0,0.0,0.0,0.0,0.0,0.0,0.0,0.0,0.0,0.0,0.0,0.0,0.0,0.0,0.0,0.0,0.0,0.0,0.0,0.0,0.0,0.0,0.0,0.0,0.0,0.0,0.0,0.0,0.0,0.0,0.0,0.0,0.0,0.0,0.0,0.0,0.0,0.0,0.0,0.0,0.0,0.0,0.0,0.0,0.0,0.0,0.0,0.0,5.0047,5.0214,5.0244,4.9946,4.8012,4.6379,0.0,0.0,0.0,0.0,0.0,0.0,0.0,0.0,0.0,0.0,0.0,0.0,0.0,0.0,0.0,0.0,0.0,0.0,0.0,0.0,0.0,0.0,0.0,0.0,0.0,0.0,0.0,0.0,0.0,0.0,0.0,0.0,0.0,0.0,0.0,0.0,0.0,0.0,0.0,0.0,0.0,0.0,0.0,0.0,0.0,0.0,0.0,0.0,0.0,0.0,0.0,0.0,0.0,0.0,0.0,0.0,0.0,0.0,0.0,0.0,0.0,0.0,0.0,0.0,0.0,0.0,0.0,0.0,0.0,0.0,0.0,0.0,0.0,0.0,0.0,0.0,0.0,0.0,0.0,0.0,0.0,0.0,0.0,0.0,0.0,0.0,0.0,0.0,0.0,0.0,0.0,0.0,0.0,0.0,0.0,0.0,0.0,0.0,0.0,0.0,0.0,0.0,0.0,0.0,0.0,0.0,0.0,0.0,0.0,5.0198,0.0,5.0402,5.041,4.8758,4.7175,0.0,0.0,0.0,0.0,0.0,0.0,0.0,0.0,0.0,0.0,0.0,0.0,0.0,0.0,0.0,0.0,0.0,0.0,0.0,0.0,0.0,0.0,0.0,0.0,0.0,0.0,0.0,0.0,0.0,0.0,0.0,0.0,0.0,0.0,0.0,0.0,0.0,0.0,0.0,0.0,0.0,0.0,0.0,0.0,0.0,0.0,0.0,0.0,0.0,0.0,0.0,0.0,0.0,0.0,0.0,0.0,0.0,0.0,0.0,0.0,0.0,0.0,0.0,0.0,0.0,0.0,0.0,0.0,0.0,0.0,0.0,0.0,0.0,0.0,0.0,0.0,0.0,0.0,0.0,0.0,0.0,0.0,0.0,0.0,0.0,0.0,0.0,0.0,0.0,0.0,0.0,0.0,0.0,0.0,0.0,0.0,0.0,0.0,0.0,0.0,0.0,0.0,0.0,0.0,0.0,0.0,0.0,0.0,5.0282,5.0318,5.0346,5.0145,5.0002,4.8967,4.7523,0.0,0.0,0.0,0.0,0.0,0.0,0.0,0.0,0.0,0.0,0.0,0.0,0.0,0.0,0.0,0.0,0.0,0.0,0.0,0.0,0.0,0.0,0.0,0.0,0.0,0.0,0.0,0.0,0.0,0.0,0.0,0.0,0.0,0.0,0.0,0.0,0.0,0.0,0.0,0.0,0.0,0.0,0.0,0.0,0.0,0.0,0.0,0.0,0.0,0.0,0.0,0.0,0.0,0.0,0.0,0.0,0.0,0.0,0.0,0.0,0.0,0.0,0.0,0.0,0.0,0.0,0.0,0.0,0.0,0.0,0.0,0.0,0.0,0.0,0.0,0.0,0.0,0.0,0.0,0.0,0.0,0.0,0.0,0.0,0.0,0.0,0.0,0.0,0.0,0.0,0.0,0.0,0.0,0.0,0.0,0.0,0.0,0.0,0.0,0.0,0.0,0.0,0.0,0.0,0.0,0.0,0.0,0.0,0.0,5.068,4.8498,4.8021,4.9377,4.777,4.6197,0.0,0.0,0.0,0.0,0.0,0.0,0.0,0.0,0.0,0.0,0.0,0.0,0.0,0.0,0.0,0.0,0.0,0.0,0.0,0.0,0.0,0.0,0.0,0.0,0.0,0.0,0.0,0.0,0.0,0.0,0.0,0.0,0.0,0.0,0.0,0.0,0.0,0.0,0.0,0.0,0.0,0.0,0.0,0.0,0.0,0.0,0.0,0.0,0.0,0.0,0.0,0.0,0.0,0.0,0.0,0.0,0.0,0.0,0.0,0.0,0.0,0.0,0.0,0.0,0.0,0.0,0.0,0.0,0.0,0.0,0.0,0.0,0.0,0.0,0.0,0.0,0.0,0.0,0.0,0.0,0.0,0.0,0.0,0.0,0.0,0.0,0.0,0.0,0.0,0.0,0.0,0.0,0.0,0.0,0.0,0.0,0.0,0.0,0.0,0.0,0.0,0.0,0.0,0.0,0.0,0.0,0.0,0.0,0.0,4.9657,4.7763,4.7359,4.876,4.7524,4.6004,4.4376,0.0,0.0,0.0,0.0,0.0,0.0,0.0,0.0,0.0,0.0,0.0,0.0,0.0,0.0,0.0,0.0,0.0,0.0,0.0,0.0,0.0,0.0,0.0,0.0,0.0,0.0,0.0,0.0,0.0,0.0,0.0,0.0,0.0,0.0,0.0,0.0,0.0,0.0,0.0,0.0,0.0,0.0,0.0,0.0,0.0,0.0,0.0,0.0,0.0,0.0,0.0,0.0,0.0,0.0,0.0,0.0,0.0,0.0,0.0,0.0,0.0,0.0,0.0,0.0,0.0,0.0,0.0,0.0,0.0,0.0,0.0,0.0,0.0,0.0,0.0,0.0,0.0,0.0,0.0,0.0,0.0,0.0,0.0,0.0,0.0,0.0,0.0,0.0,0.0,0.0,0.0,0.0,0.0,0.0,0.0,0.0,0.0,0.0,0.0,0.0,0.0,0.0,0.0,0.0,0.0,0.0,0.0,0.0,4.7808,4.7805,4.7804,4.7931,4.7722,4.6599,0.0,0.0,0.0,0.0,0.0,0.0,0.0,0.0,0.0,0.0,0.0,0.0,0.0,0.0,0.0,0.0,0.0,0.0,0.0,0.0,0.0,0.0,0.0,0.0,0.0,0.0,0.0,0.0,0.0,0.0,0.0,0.0,0.0,0.0,0.0,0.0,0.0,0.0,0.0,0.0,0.0,0.0,0.0,0.0,0.0,0.0,0.0,0.0,0.0,0.0,0.0,0.0,0.0,0.0,0.0,0.0,0.0,0.0,0.0,0.0,0.0,0.0,0.0,0.0,0.0,0.0,0.0,0.0,0.0,0.0,0.0,0.0,0.0,0.0,0.0,0.0,0.0,0.0,0.0,0.0,0.0,0.0,0.0,0.0,0.0,0.0,0.0,0.0,0.0,0.0,0.0,0.0,0.0,0.0,0.0,0.0,0.0,0.0,0.0,0.0,0.0,0.0,0.0,0.0,0.0,0.0,0.0,0.0,0.0,4.6579,4.6191,4.6311,4.6903,4.5173,4.4038,0.0,0.0,0.0,0.0,0.0,0.0,0.0,0.0,0.0,0.0,0.0,0.0,0.0,0.0,0.0,0.0,0.0,0.0,0.0,0.0,0.0,0.0,0.0,0.0,0.0,0.0,0.0,0.0,0.0,0.0,0.0,0.0,0.0,0.0,0.0,0.0,0.0,0.0,0.0,0.0,0.0,0.0,0.0,0.0,0.0,0.0,0.0,0.0,0.0,0.0,0.0,0.0,0.0,0.0,0.0,0.0,0.0,0.0,0.0,0.0,0.0,0.0,0.0,0.0,0.0,0.0,0.0,0.0,0.0,0.0,0.0,0.0,0.0,0.0,0.0,0.0,0.0,0.0,0.0,0.0,0.0,0.0,0.0,0.0,0.0,0.0,0.0,0.0,0.0,0.0,0.0,0.0,0.0,0.0,0.0,0.0,0.0,0.0,0.0,0.0,0.0,0.0,0.0,0.0,0.0,0.0,0.0,0.0,4.7106,4.5774,4.5777,4.5944,4.6243,4.4829,4.3846,0.0,0.0,0.0,0.0,0.0,0.0,0.0,0.0,0.0,0.0,0.0,0.0,0.0,0.0,0.0,0.0,0.0,0.0,0.0,0.0,0.0,0.0,0.0,0.0,0.0,0.0,0.0,0.0,0.0,0.0,0.0,0.0,0.0,0.0,0.0,0.0,0.0,0.0,0.0,0.0,0.0,0.0,0.0,0.0,0.0,0.0,0.0,0.0,0.0,0.0,0.0,0.0,0.0,0.0,0.0,0.0,0.0,0.0,0.0,0.0,0.0,0.0,0.0,0.0,0.0,0.0,0.0,0.0,0.0,0.0,0.0,0.0,0.0,0.0,0.0,0.0,0.0,0.0,0.0,0.0,0.0,0.0,0.0,0.0,0.0,0.0,0.0,0.0,0.0,0.0,0.0,0.0,0.0,0.0,0.0,0.0,0.0,0.0,0.0,0.0,0.0,0.0,0.0,0.0,0.0,0.0,0.0,0.0,4.6671,4.528,4.6112,4.6353,4.5874,4.5903,4.5086,0.0,0.0,0.0,0.0,0.0,0.0,0.0,0.0,0.0,0.0,0.0,0.0,0.0,0.0,0.0,0.0,0.0,0.0,0.0,0.0,0.0,0.0,0.0,0.0,0.0,0.0,0.0,0.0,0.0,0.0,0.0,0.0,0.0,0.0,0.0,0.0,0.0,0.0,0.0,0.0,0.0,0.0,0.0,0.0,0.0,0.0,0.0,0.0,0.0,0.0,0.0,0.0,0.0,0.0,0.0,0.0,0.0,0.0,0.0,0.0,0.0,0.0,0.0,0.0,0.0,0.0,0.0,0.0,0.0,0.0,0.0,0.0,0.0,0.0,0.0,0.0,0.0,0.0,0.0,0.0,0.0,0.0,0.0,0.0,0.0,0.0,0.0,0.0,0.0,0.0,0.0,0.0,0.0,0.0,0.0,0.0,0.0,0.0,0.0,0.0,0.0,0.0,0.0,0.0,0.0,0.0,0.0,0.0,4.6662,4.5363,4.6382,4.6936,4.6839,4.6532,4.57,0.0,0.0,0.0,0.0,0.0,0.0,0.0,0.0,0.0,0.0,0.0,0.0,0.0,0.0,0.0,0.0,0.0,0.0,0.0,0.0,0.0,0.0,0.0,0.0,0.0,0.0,0.0,0.0,0.0,0.0,0.0,0.0,0.0,0.0,0.0,0.0,0.0,0.0,0.0,0.0,0.0,0.0,0.0,0.0,0.0,0.0,0.0,0.0,4.6133,0.0,0.0,0.0,0.0,0.0,0.0,0.0,0.0,0.0,0.0,0.0,0.0,0.0,0.0,0.0,0.0,0.0,0.0,0.0,0.0,0.0,0.0,0.0,0.0,0.0,0.0,0.0,0.0,0.0,0.0,0.0,0.0,0.0,0.0,0.0,0.0,0.0,0.0,0.0,0.0,0.0,0.0,0.0,0.0,0.0,0.0,0.0,0.0,0.0,0.0,0.0,0.0,0.0,0.0,0.0,0.0,0.0,0.0,0.0,4.6307,4.6187,4.6764,4.7204,4.7351,4.6984,4.6287,0.0,0.0,0.0,0.0,0.0,0.0,0.0,0.0,0.0,0.0,0.0,0.0,0.0,0.0,0.0,0.0,0.0,0.0,0.0,0.0,0.0,0.0,0.0,0.0,0.0,0.0,0.0,0.0,0.0,0.0,0.0,0.0,0.0,0.0,0.0,0.0,0.0,0.0,0.0,0.0,0.0,0.0,0.0,0.0,0.0,0.0,0.0,0.0,0.0,0.0,0.0,0.0,0.0,0.0,0.0,0.0,0.0,0.0,0.0,0.0,0.0,0.0,0.0,0.0,0.0,0.0,0.0,0.0,0.0,0.0,0.0,0.0,0.0,0.0,0.0,0.0,0.0,0.0,0.0,0.0,0.0,0.0,0.0,0.0,0.0,0.0,0.0,0.0,0.0,0.0,0.0,0.0,0.0,0.0,0.0,0.0,0.0,0.0,0.0,0.0,0.0,0.0,0.0,0.0,0.0,0.0,0.0,4.4673,4.6067,4.724,4.7277,4.7424,4.7681,4.7083,4.6573,4.6103,0.0,0.0,0.0,0.0,0.0,0.0,0.0,0.0,0.0,0.0,0.0,0.0,0.0,0.0,0.0,0.0,0.0,0.0,0.0,0.0,0.0,0.0,0.0,0.0,0.0,0.0,0.0,0.0,0.0,0.0,0.0,0.0,0.0,0.0,0.0,0.0,0.0,0.0,4.2691,4.4258,0.0,0.0,0.0,0.0,0.0,0.0,0.0,0.0,4.5859,0.0,0.0,0.0,0.0,0.0,0.0,0.0,0.0,0.0,0.0,0.0,0.0,0.0,0.0,0.0,0.0,0.0,0.0,0.0,0.0,0.0,0.0,0.0,0.0,0.0,0.0,0.0,0.0,0.0,0.0,0.0,0.0,0.0,0.0,0.0,0.0,0.0,0.0,0.0,0.0,0.0,0.0,0.0,0.0,0.0,0.0,0.0,0.0,0.0,0.0,0.0,0.0,0.0,0.0,0.0,0.0,4.438,4.5627,4.6874,4.8047,4.8084,4.7974,4.7668,4.6172,4.5861,4.6766,0.0,0.0,0.0,0.0,0.0,0.0,0.0,0.0,0.0,0.0,0.0,0.0,0.0,0.0,0.0,0.0,0.0,0.0,0.0,0.0,0.0,0.0,0.0,0.0,0.0,0.0,0.0,0.0,0.0,0.0,0.0,0.0,0.0,0.0,0.0,0.0,0.0,0.0,0.0,4.5742,4.6836,0.0,0.0,0.0,0.0,0.0,0.0,0.0,0.0,4.6758,0.0,0.0,0.0,0.0,0.0,0.0,0.0,0.0,0.0,0.0,0.0,0.0,0.0,0.0,0.0,0.0,0.0,0.0,0.0,0.0,0.0,0.0,0.0,0.0,0.0,0.0,0.0,0.0,0.0,0.0,0.0,0.0,0.0,0.0,0.0,0.0,0.0,0.0,0.0,0.0,0.0,0.0,0.0,0.0,0.0,0.0,0.0,0.0,0.0,0.0,0.0,0.0,0.0,0.0,0.0,4.4425,4.5773,4.7167,4.8561,4.8414,4.8194,4.8011,4.6592,4.622,0.0,0.0,0.0,0.0,0.0,0.0,0.0,0.0,0.0,0.0,0.0,0.0,0.0,0.0,0.0,0.0,0.0,0.0,0.0,0.0,0.0,0.0,0.0,0.0,0.0,0.0,0.0,0.0,0.0,0.0,0.0,0.0,0.0,0.0,0.0,0.0,0.0,0.0,0.0,0.0,4.6797,4.7656,4.7891,0.0,0.0,0.0,0.0,0.0,0.0,4.7461,4.7656,0.0,0.0,0.0,0.0,0.0,0.0,0.0,0.0,0.0,0.0,0.0,0.0,0.0,0.0,0.0,0.0,0.0,0.0,0.0,0.0,0.0,0.0,0.0,0.0,0.0,0.0,0.0,0.0,0.0,0.0,0.0,0.0,0.0,0.0,0.0,0.0,0.0,0.0,0.0,0.0,0.0,0.0,0.0,0.0,0.0,0.0,0.0,0.0,0.0,0.0,0.0,0.0,0.0,0.0,0.0,4.4343,4.592,4.7424,4.8818,4.8487,4.8317,4.8267,4.6487,4.6042,0.0,0.0,0.0,0.0,0.0,0.0,0.0,0.0,0.0,0.0,0.0,0.0,0.0,0.0,0.0,0.0,0.0,0.0,0.0,0.0,0.0,0.0,0.0,0.0,0.0,0.0,0.0,0.0,0.0,0.0,0.0,0.0,0.0,0.0,0.0,0.0,0.0,0.0,0.0,0.0,0.0,4.8476,4.8476,4.8828,0.0,0.0,0.0,0.0,4.7729,4.8039,0.0,0.0,0.0,0.0,0.0,0.0,0.0,0.0,0.0,0.0,0.0,0.0,0.0,0.0,0.0,0.0,0.0,0.0,0.0,0.0,0.0,0.0,0.0,0.0,0.0,0.0,0.0,0.0,0.0,0.0,0.0,0.0,0.0,0.0,0.0,0.0,0.0,0.0,0.0,0.0,0.0,0.0,0.0,0.0,0.0,0.0,0.0,0.0,0.0,0.0,0.0,0.0,0.0,0.0,0.0,0.0,4.5187,4.6727,4.8011,4.8854,4.8487,4.8317,4.8218,4.4396,4.3774,0.0,0.0,0.0,0.0,0.0,0.0,0.0,0.0,0.0,0.0,0.0,0.0,0.0,0.0,0.0,0.0,0.0,0.0,0.0,0.0,0.0,0.0,0.0,0.0,0.0,0.0,0.0,0.0,0.0,0.0,0.0,0.0,0.0,0.0,0.0,0.0,0.0,0.0,0.0,0.0,0.0,4.9328,4.9328,4.9766,4.978,0.0,0.0,4.768,4.832,4.8415,0.0,0.0,0.0,0.0,0.0,0.0,0.0,0.0,0.0,0.0,0.0,0.0,0.0,0.0,0.0,0.0,0.0,0.0,0.0,0.0,0.0,0.0,0.0,0.0,0.0,0.0,0.0,0.0,0.0,0.0,0.0,0.0,0.0,0.0,0.0,0.0,0.0,0.0,0.0,0.0,0.0,0.0,0.0,0.0,0.0,0.0,0.0,0.0,0.0,0.0,0.0,0.0,0.0,0.0,0.0,4.438,4.4966,4.6764,4.8084,4.8804,4.7254,4.7132,4.8584,4.3875,4.3223,0.0,0.0,0.0,0.0,0.0,0.0,0.0,0.0,0.0,0.0,0.0,0.0,0.0,0.0,0.0,0.0,0.0,0.0,0.0,0.0,0.0,0.0,0.0,0.0,0.0,0.0,0.0,0.0,0.0,0.0,0.0,0.0,0.0,0.0,0.0,0.0,0.0,0.0,0.0,0.0,0.0,0.0,4.9922,5.0658,0.0,0.0,0.0,4.8995,4.9615,0.0,0.0,0.0,0.0,0.0,0.0,0.0,0.0,0.0,0.0,0.0,0.0,0.0,0.0,0.0,0.0,0.0,0.0,0.0,0.0,0.0,0.0,0.0,0.0,0.0,0.0,0.0,0.0,0.0,0.0,0.0,0.0,0.0,0.0,0.0,0.0,0.0,0.0,0.0,0.0,0.0,0.0,0.0,0.0,0.0,0.0,0.0,0.0,0.0,0.0,0.0,0.0,0.0,0.0,0.0,0.0,0.0,4.5003,4.6874,4.8194,4.8841,4.701,4.7051,4.9179,4.4836,0.0,0.0,0.0,0.0,0.0,0.0,0.0,0.0,0.0,0.0,0.0,0.0,0.0,0.0,0.0,0.0,0.0,0.0,0.0,0.0,0.0,0.0,0.0,0.0,0.0,0.0,0.0,4.0406,0.0,0.0,0.0,0.0,0.0,0.0,0.0,0.0,0.0,0.0,0.0,0.0,0.0,0.0,5.0781,5.0664,5.1687,5.2147,0.0,0.0,5.0356,5.0831,5.1198,5.1171,0.0,0.0,0.0,0.0,0.0,0.0,0.0,0.0,0.0,0.0,0.0,0.0,0.0,0.0,0.0,0.0,0.0,0.0,0.0,0.0,0.0,0.0,0.0,0.0,0.0,0.0,0.0,0.0,0.0,0.0,0.0,0.0,0.0,0.0,0.0,0.0,0.0,0.0,0.0,0.0,0.0,0.0,0.0,0.0,0.0,0.0,0.0,0.0,0.0,0.0,0.0,0.0,0.0,0.0,0.0,4.5847,4.7424,4.8451,4.8841,4.874,4.9289,5.049,4.7878,4.746,0.0,0.0,0.0,0.0,0.0,0.0,0.0,0.0,0.0,0.0,0.0,0.0,0.0,0.0,0.0,0.0,0.0,0.0,0.0,0.0,0.0,0.0,0.0,0.0,0.0,0.0,0.0,0.0,0.0,0.0,0.0,0.0,0.0,0.0,0.0,0.0,0.0,0.0,0.0,0.0,0.0,5.1094,5.1836,5.3036,5.3651,0.0,0.0,5.1352,5.1714,5.1726,5.165,5.1259,0.0,0.0,0.0,0.0,0.0,0.0,0.0,0.0,0.0,0.0,0.0,0.0,0.0,0.0,0.0,0.0,0.0,0.0,0.0,0.0,0.0,0.0,0.0,0.0,0.0,0.0,0.0,0.0,0.0,0.0,0.0,0.0,0.0,0.0,0.0,0.0,0.0,0.0,0.0,0.0,0.0,0.0,0.0,0.0,0.0,0.0,0.0,0.0,0.0,0.0,0.0,0.0,0.0,4.5443,4.625,4.8084,4.8419,4.7241,4.7452,4.7754,4.8035,4.4686,4.4279,0.0,0.0,0.0,0.0,0.0,0.0,0.0,0.0,0.0,0.0,0.0,0.0,0.0,0.0,0.0,0.0,0.0,0.0,0.0,0.0,0.0,0.0,0.0,0.0,0.0,0.0,0.0,0.0,4.1598,4.2358,4.372,0.0,0.0,0.0,0.0,0.0,0.0,0.0,0.0,0.0,0.0,5.25,5.2862,5.3729,0.0,0.0,5.3077,5.2209,5.2935,5.2361,5.1646,5.1001,5.06,0.0,0.0,0.0,0.0,0.0,0.0,0.0,0.0,0.0,0.0,0.0,0.0,0.0,0.0,0.0,0.0,0.0,0.0,0.0,0.0,0.0,0.0,0.0,0.0,0.0,0.0,0.0,0.0,0.0,0.0,0.0,0.0,0.0,0.0,0.0,0.0,0.0,0.0,0.0,0.0,0.0,0.0,0.0,0.0,0.0,0.0,0.0,0.0,0.0,0.0,0.0,0.0,4.5883,4.702,4.7934,4.7728,4.6303,4.6018,4.5876,4.5861,4.3193,4.3285,0.0,0.0,0.0,0.0,0.0,0.0,0.0,0.0,0.0,0.0,0.0,0.0,0.0,0.0,0.0,0.0,0.0,0.0,0.0,0.0,0.0,0.0,0.0,0.0,0.0,0.0,0.0,0.0,4.2254,4.2986,4.4831,0.0,0.0,0.0,0.0,0.0,0.0,0.0,0.0,0.0,0.0,5.2871,5.3804,5.4416,5.4933,5.5416,5.4092,5.3344,5.4143,5.3448,5.2611,5.1595,0.0,0.0,0.0,0.0,0.0,0.0,0.0,0.0,0.0,0.0,0.0,0.0,0.0,0.0,0.0,0.0,0.0,0.0,0.0,0.0,0.0,0.0,0.0,0.0,0.0,0.0,0.0,4.3007,0.0,0.0,4.1635,0.0,0.0,0.0,0.0,0.0,0.0,0.0,0.0,0.0,0.0,0.0,0.0,0.0,0.0,0.0,0.0,0.0,0.0,0.0,0.0,0.0,0.0,4.6287,4.8145,4.681,4.6233,4.6557,4.4781,4.4169,4.4804,4.4813,4.5855,4.7999,0.0,0.0,0.0,0.0,0.0,0.0,0.0,0.0,0.0,0.0,0.0,0.0,0.0,0.0,0.0,0.0,0.0,0.0,0.0,0.0,0.0,0.0,0.0,0.0,0.0,0.0,4.3426,4.3819,4.445,0.0,0.0,0.0,0.0,0.0,0.0,0.0,0.0,0.0,0.0,4.9793,5.1727,5.4804,5.526,5.5403,5.5806,5.5182,5.4792,5.5182,5.5221,5.4805,0.0,0.0,0.0,0.0,0.0,0.0,0.0,0.0,0.0,0.0,0.0,0.0,0.0,0.0,0.0,0.0,0.0,0.0,0.0,0.0,0.0,0.0,0.0,0.0,0.0,0.0,0.0,4.4478,4.3217,0.0,0.0,0.0,0.0,0.0,0.0,0.0,0.0,0.0,0.0,0.0,4.6453,4.552,0.0,0.0,0.0,0.0,0.0,0.0,0.0,0.0,0.0,0.0,0.0,0.0,4.6476,4.6441,4.6872,4.5604,4.2673,4.3799,4.3714,4.2078,4.2356,4.2734,4.3237,0.0,0.0,0.0,0.0,0.0,0.0,0.0,0.0,0.0,0.0,0.0,0.0,0.0,0.0,0.0,0.0,0.0,0.0,0.0,0.0,0.0,0.0,0.0,0.0,0.0,4.4178,0.0,0.0,0.0,0.0,0.0,0.0,0.0,0.0,0.0,0.0,0.0,4.9382,4.8889,5.1076,5.3206,5.4565,5.5152,5.5398,0.0,0.0,0.0,0.0,0.0,0.0,0.0,0.0,0.0,0.0,0.0,0.0,0.0,0.0,5.5938,5.4774,5.4021,5.374,5.4413,0.0,0.0,0.0,0.0,0.0,0.0,0.0,0.0,0.0,0.0,0.0,0.0,0.0,0.0,4.5242,0.0,4.3686,0.0,0.0,0.0,0.0,0.0,0.0,0.0,0.0,4.5566,4.6197,4.8291,4.7392,4.7809,0.0,4.9341,4.8854,0.0,0.0,0.0,0.0,0.0,0.0,0.0,0.0,4.7067,4.6861,4.6514,4.4742,4.1777,4.2106,4.152,3.9729,4.0797,4.1432,4.1452,4.3529,4.5417,0.0,0.0,0.0,0.0,0.0,0.0,0.0,0.0,0.0,0.0,0.0,0.0,0.0,0.0,0.0,0.0,0.0,0.0,0.0,0.0,0.0,0.0,0.0,4.5401,0.0,0.0,0.0,0.0,0.0,0.0,0.0,0.0,0.0,4.55,4.7869,4.9652,5.0116,5.182,5.3507,5.4999,0.0,0.0,0.0,0.0,0.0,0.0,0.0,5.5412,5.5295,5.4999,5.4804,5.4804,5.5779,5.6758,5.7187,0.0,0.0,5.5234,5.4336,5.3807,5.3637,5.3976,5.4041,5.3103,5.4656,5.5882,0.0,0.0,0.0,0.0,0.0,0.0,0.0,0.0,4.6063,4.5789,0.0,4.4558,0.0,0.0,0.0,0.0,4.5946,4.6271,0.0,0.0,4.7132,4.6872,4.7523,4.8176,4.8329,4.818,5.0273,5.1092,5.0651,4.8414,0.0,0.0,0.0,0.0,0.0,0.0,4.7839,4.897,4.5656,4.3722,4.3345,3.981,3.7866,3.7922,4.0236,4.1885,4.2736,4.5679,4.7859,4.8568,4.8744,0.0,0.0,0.0,0.0,0.0,0.0,0.0,0.0,0.0,0.0,0.0,0.0,0.0,0.0,0.0,0.0,0.0,0.0,0.0,0.0,4.669,0.0,0.0,0.0,0.0,0.0,0.0,0.0,0.0,0.0,0.0,4.5742,4.6009,4.7562,5.1894,0.0,0.0,0.0,0.0,5.5265,5.6399,5.623,5.6155,5.6644,5.7128,5.7249,5.6497,0.0,0.0,5.6343,5.7181,5.7937,5.8294,5.8516,5.8505,5.66,5.5902,5.5122,5.329,5.3018,5.2333,5.0488,5.2812,5.475,4.7569,0.0,0.0,0.0,0.0,4.6621,4.6535,4.5826,4.7181,4.6939,4.5579,4.6,0.0,0.0,0.0,0.0,0.0,0.0,4.9545,5.0365,4.8682,4.8835,5.0507,4.9186,4.9415,5.119,5.1579,5.1809,5.1919,5.0966,4.9918,4.8671,0.0,0.0,0.0,0.0,4.772,4.5498,4.472,4.2706,3.9277,3.8298,3.7729,3.7515,3.8405,3.9504,4.0768,4.3294,4.5398,4.6988,4.8126,0.0,0.0,0.0,0.0,0.0,0.0,0.0,0.0,0.0,0.0,0.0,0.0,0.0,0.0,0.0,0.0,0.0,0.0,0.0,4.7937,4.7974,4.7925,0.0,0.0,0.0,0.0,0.0,0.0,0.0,0.0,0.0,4.7106,4.8241,4.9352,0.0,0.0,5.361,5.4745,5.4875,5.4875,5.4949,5.5671,0.0,5.6497,5.6685,5.6911,5.7343,5.7227,5.7113,5.7361,5.7738,5.7477,5.5986,5.5786,5.5265,5.3253,5.3982,5.4206,5.2654,5.2211,5.2211,5.1882,5.3071,5.3969,4.8823,4.7715,4.7303,4.6853,4.6602,4.7365,4.7398,4.6941,4.8001,4.7948,4.7097,4.7722,4.7773,4.7547,4.8289,0.0,0.0,0.0,5.1149,5.1719,4.9927,4.9844,5.097,4.9654,4.9317,5.0081,5.1473,5.1729,5.0948,5.1585,5.1224,5.0047,0.0,0.0,4.9268,4.9341,4.793,4.5065,4.4614,4.2624,3.9057,3.821,3.7729,3.7569,3.7729,3.872,4.0793,4.2651,4.4912,4.7589,4.8752,4.9049,0.0,0.0,0.0,0.0,0.0,0.0,0.0,0.0,0.0,0.0,0.0,4.5297,4.471,0.0,0.0,0.0,4.7277,4.8744,4.9771,4.8808,0.0,0.0,0.0,0.0,0.0,0.0,0.0,4.1372,4.0802,4.2296,4.7521,4.9715,5.1393,5.3044,5.3657,5.4224,5.4782,0.0,5.4916,5.5216,5.5724,5.6142,5.6415,5.6378,5.6572,5.7093,5.7191,5.6869,5.6321,5.6389,5.5793,5.4136,5.369,5.2964,5.0531,5.1335,5.1999,5.0653,5.0494,5.0484,4.9796,5.0984,5.2241,5.0276,4.9214,4.826,4.7897,4.7962,4.7927,4.8186,4.8563,4.8563,4.8769,4.9077,4.917,4.9639,5.0355,5.0598,0.0,4.8475,5.0759,5.1926,5.2309,5.0845,4.9982,4.9814,4.9586,4.8448,4.647,5.0267,5.0829,4.8612,5.0616,5.1385,5.0678,5.0198,4.9898,4.9822,4.9361,4.8333,4.6689,4.4836,4.2916,4.1076,3.894,3.7809,3.7809,3.7782,3.9085,4.1867,4.3011,4.5279,4.884,4.9637,4.9733,4.9246,0.0,0.0,0.0,0.0,0.0,0.0,0.0,0.0,0.0,0.0,0.0,0.0,0.0,0.0,0.0,4.8836,0.0,5.0732,4.8733,0.0,0.0,0.0,4.3604,4.2902,4.2095,4.1398,4.0996,0.0,0.0,4.7389,5.0522,5.3437,5.6075,5.5063,5.4523,5.564,5.5135,5.515,5.6251,5.6179,5.5973,5.6285,5.643,5.6366,5.5946,5.6342,5.5816,5.3975,5.3721,5.329,5.166,5.1715,5.1051,4.8503,4.8216,4.8364,4.7669,4.8092,4.791,4.6156,4.7809,4.968,5.1954,5.1223,5.1404,5.0483,4.8714,4.846,4.8734,4.9317,4.9351,4.9385,4.9377,4.8322,4.7193,4.6182,4.6043,4.728,4.9604,5.0248,5.0853,5.1309,5.1246,5.0128,4.8306,4.8195,4.7903,4.7399,4.8113,4.815,4.7586,4.9045,4.9836,4.9926,4.8988,4.9059,5.0028,4.9101,4.7512,4.5344,4.3584,4.1457,3.91,3.82,3.7809,3.7809,3.7595,3.8471,4.0411,4.0185,4.1413,4.4409,4.5535,4.6337,4.6905,4.7903,0.0,0.0,0.0,0.0,0.0,0.0,0.0,0.0,0.0,4.7057,4.6544,0.0,4.9038,0.0,4.8008,4.741,4.6709,4.5551,0.0,0.0,4.3667,4.2207,4.2352,4.1056,4.0047,3.9993,4.2429,4.5233,4.8059,5.0996,5.3715,5.6016,5.5784,5.5415,5.5519,5.555,5.5366,5.5097,5.5801,5.6427,5.5987,5.6906,5.6636,5.4419,5.4136,5.3468,5.1341,5.0759,5.0002,4.8078,4.7791,4.6935,4.4684,4.4462,4.4738,4.4628,4.5513,4.6206,4.5588,4.6522,4.7379,5.446,5.367,5.2673,5.1464,5.0161,5.0669,5.0535,4.9969,4.9801,4.9108,4.7934,4.7438,4.6194,4.462,4.5444,4.6431,4.7445,4.8702,4.9525,4.9937,4.9073,4.8018,4.6736,4.6374,4.6163,4.6223,4.6816,4.7077,4.695,4.7442,4.7765,4.7797,4.7218,4.7243,4.7788,4.7183,4.6157,4.484,4.2063,3.9938,3.8508,3.8183,3.8394,3.9189,3.8776,3.9363,4.1105,4.1358,4.238,4.4289,4.5609,4.6597,4.734,4.7374,4.7126,0.0,0.0,0.0,0.0,0.0,0.0,0.0,0.0,0.0,0.0,0.0,4.8156,4.7301,4.6818,4.642,4.5987,4.4398,4.3687,4.4293,4.1977,4.054,4.0824,4.0315,4.0,4.0,4.2749,4.5261,4.6887,4.9603,5.1881,5.3306,5.3219,5.3632,5.5115,5.5496,5.5364,5.4773,5.5078,5.4999,5.3746,5.4226,5.4007,5.1781,5.1205,5.0517,4.8479,4.7894,4.7053,4.5132,4.4959,4.482,4.3396,4.342,4.3741,4.3807,4.433,4.4843,4.5045,4.5319,4.5566,5.6769,5.5519,5.2966,5.171,5.1457,5.285,5.2096,4.9924,4.9624,4.8082,4.5801,4.6455,4.5682,4.4008,4.6275,4.6335,4.4816,4.751,4.89,4.9009,4.6797,4.572,4.5612,4.4577,4.4064,4.4249,4.5698,4.6313,4.6013,4.5743,4.553,4.5349,4.5257,4.5223,4.5247,4.4666,4.4281,4.4032,4.0588,3.8825,3.8825,3.8504,3.912,4.0604,4.015,4.0503,4.2021,4.3084,4.4083,4.4957,4.6249,4.7289,4.7804,4.628,4.5259,0.0,4.2948,0.0,0.0,0.0,0.0,0.0,0.0,0.0,0.0,4.7392,4.6046,4.5001,4.5491,4.5846,4.5932,4.3747,4.2411,4.2469,4.0626,3.93,3.9407,4.0134,4.0588,4.0588,4.3281,4.5184,4.5248,4.7711,4.9764,5.017,5.0274,5.1263,5.3906,5.4524,5.4325,5.4136,5.3593,5.2539,5.1145,5.0898,5.0569,4.8813,4.8417,4.7558,4.5554,4.5269,4.4719,4.3274,4.324,4.3485,4.3474,4.3741,4.3982,4.3901,4.4047,4.4181,4.4342,4.4449,4.4436,5.6433,5.3768,5.3668,5.2202,4.9966,5.1081,5.0075,4.7644,4.7304,4.6164,4.4554,4.4675,4.3667,4.2045,4.3808,4.5622,4.7462,4.9976,5.1271,5.1388,4.9905,4.8057,4.606,4.4159,4.3328,4.3301,4.322,4.3072,4.3053,4.3533,4.3972,4.4377,4.3714,4.446,4.6314,0.0,0.0,0.0,3.9928,3.9439,3.9412,3.8905,3.886,3.9425,3.8914,0.0,3.8689,3.8043,3.7879,3.8361,3.9869,0.0,0.0,0.0,0.0,0.0,0.0,0.0,0.0,0.0,0.0,0.0,4.5619,4.6807,4.8161,4.7049,4.551,4.3773,4.369,4.3109,4.1444,4.0661,4.0501,4.1121,4.065,4.0401,4.0794,4.1007,4.1176,4.1176,4.3732,4.5447,4.5243,4.811,5.0055,4.9652,5.0341,5.0782,5.0874,5.1059,5.0682,4.965,4.9889,4.9947,4.9756,5.0268,4.95,4.7546,4.7035,4.6117,4.367,4.3167,4.3284,4.2763,4.2939,4.3207,4.3207,4.3607,4.3928,4.3688,4.3942,4.4302,4.4142,4.4275,4.4436,5.6147,5.307,5.1668,5.0243,0.0,4.7559,4.6325,4.512,4.6317,4.5513,4.3456,4.3255,4.2639,4.1826,4.2826,4.4065,4.5513,4.6894,4.7659,4.7832,4.6996,4.6021,4.484,4.367,4.3616,4.449,4.3292,4.3075,4.3772,4.3089,4.2813,4.3013,4.2343,4.2747,4.4054,4.21,4.0829,4.0267,3.9813,3.9599,3.9573,3.8819,3.9102,4.0405,3.9595,0.0,0.0,0.0,0.0,0.0,0.0,0.0,0.0,4.1362,0.0,4.1782,4.0321,3.967,4.0236,4.0517,4.126,4.2694,4.3512,4.4406,4.5358,4.5299,4.4164,4.1925,4.202,4.1758,4.0576,4.0321,4.0307,4.04,4.0286,4.0312,4.0603,4.0893,4.1052,4.1167,4.2479,4.3331,4.2955,4.4215,4.5463,4.5657,4.5921,4.6149,4.6278,4.8314,4.9592,4.8413,4.7893,4.7464,4.6938,4.6716,4.6353,4.4264,4.4093,4.3785,4.2676,4.2806,4.3073,4.31,4.334,4.3554,4.3554,4.3795,4.3955,4.3821,4.4008,4.4249,4.4195,4.4329,4.4436,5.5374,5.2277,4.9474,4.7999,4.7318,4.4504,4.3314,4.3363,4.5416,0.0,0.0,4.2485,4.2378,4.2378,4.3002,4.3301,4.3328,4.3985,4.4388,4.4542,4.4027,4.3951,4.4103,4.3562,4.4139,4.5621,4.3955,4.3884,4.5142,4.3221,4.2191,4.2004,4.171,4.1514,4.1577,4.1408,4.1176,4.0695,4.008,3.97,3.9554,3.8821,3.9402,4.1362,4.0252,3.9575,3.955,4.0886,4.0857,3.9296,4.0802,4.1592,4.1286,4.0005,3.9059,3.8685,3.7387,3.6689,3.6748,3.7001,3.8262,4.0752,4.1449,4.2044,4.2612,4.3009,4.23,4.0207,4.0698,4.0964,4.0751,4.0725,4.0506,3.9855,3.9846,3.9898,3.9975,4.0365,4.0676,4.0702,4.0921,4.0901,4.0698,4.0672,4.0543,4.1168,4.1726,4.1332,4.2256,4.5524,4.7627,4.6796,4.576,4.4943,4.3748,4.3111,4.1968,4.1458,4.1427,4.1738,4.2315,4.2879,4.329,4.3367,4.3714,4.3875,4.3982,4.3982,4.4008,4.4008,4.4008,4.4062,4.4236,4.4356,4.4356,5.2612,5.003,4.9212,4.7476,4.5305,4.4515,4.4115,4.3887,4.3768,4.346,4.302,4.2993,4.2966,4.3095,4.4792,4.5652,4.5716,4.776,4.8707,4.8672,4.7232,4.6596,4.6494,4.4728,4.4006,4.4242,4.3738,4.3577,4.3665,4.2988,4.2699,4.2859,4.2619,4.2458,4.2432,4.1978,4.1684,4.1577,4.0775,4.0106,3.9534,3.9455,3.9415,3.9448,3.8801,3.8061,3.7303,3.7077,3.6659,3.6159,3.683,3.7074,3.6837,3.6865,3.7017,3.7429,3.6525,3.6196,3.6649,3.6982,3.7618,3.8807,3.9382,4.0629,4.2737,4.0916,3.9829,4.0135,4.0232,4.0075,4.0023,4.0137,3.9959,3.9546,3.9714,3.9855,4.0059,4.0161,4.0238,4.0301,4.0289,4.0315,4.0251,4.0491,4.0668,4.0809,4.107,4.1698,4.179,4.2244,4.2456,4.213,4.1934,4.1481,4.1195,4.1147,4.0928,4.0429,4.0813,4.1134,4.1361,4.1933,4.2494,4.3051,4.3317,4.3583,4.3889,4.4008,4.3942,4.3942,4.4008,4.4035,4.4115,4.4115,4.4169,5.0424,4.7836,4.7393,4.6428,4.5104,4.481,4.4596,4.4463,4.3798,4.3625,4.369,4.2875,4.294,4.3729,4.383,4.4206,4.4949,4.5255,4.5832,4.6446,4.5318,4.5007,4.5297,4.447,4.4008,4.3982,4.3848,4.3688,4.3501,4.326,4.3127,4.31,4.2966,4.2886,4.2886,4.2619,4.2024,4.1167,4.1017,4.0751,4.0506,3.9683,3.9266,3.93,3.8224,3.7355,3.6781,3.6965,3.6872,3.6391,3.6937,3.7072,3.6589,3.6897,3.6897,3.654,3.6365,3.6234,3.6258,3.6565,3.7176,3.8026,3.8323,3.9074,4.0527,4.0255,4.0136,4.0542,4.1048,4.1164,4.0719,4.0761,4.0398,3.9364,3.9426,3.9552,3.9652,3.9678,3.9614,3.9678,3.9678,3.9611,3.9524,3.9524,3.9747,4.0003,4.0473,4.0737,4.0737,4.0638,4.0779,4.1287,4.0903,4.0431,4.009,3.9707,3.9568,3.9639,4.0004,4.0337,4.0634,4.1198,4.1779,4.1987,4.2338,4.2809,4.3256,4.3388,4.352,4.3942,4.4008,4.4035,4.4169,4.4222,4.4169,4.8689,4.636,4.6146,4.5825,4.5505,4.5184,4.4983,4.4701,4.388,4.3775,4.386,4.2638,4.2972,4.4289,4.2894,4.2897,4.3824,4.2911,4.2991,4.3876,4.3388,4.3454,4.3942,4.4008,4.4008,4.4008,4.4008,4.3875,4.3661,4.3634,4.3527,4.3314,4.3233,4.318,4.3207,4.3127,4.2451,4.125,4.1516,4.1443,4.0946,4.0053,3.967,3.9569,3.8432,3.7573,3.7277,3.7885,3.7961,3.7476,3.7961,3.7961,3.7512,3.7734,3.7452,3.661,3.6901,3.6986,3.6612,3.7139,3.7726,3.8216,3.8436,3.8681,3.9103,4.0161,4.0731,4.0668,4.1297,4.1529,4.0797,4.1068,4.0723,3.9334,3.9142,3.9231,3.9167,3.9064,3.8976,3.9,3.9,3.8892,3.8708,3.8458,3.8668,3.9369,3.9569,3.9502,3.955,3.9574,4.0197,4.0746,4.0464,3.974,3.9577,3.8885,3.8577,3.8936,3.9148,3.9494,3.9917,4.0654,4.1165,4.1193,4.1692,4.2197,4.2621,4.2739,4.2937,4.3308,4.348,4.3797,4.4182,4.4115,4.4035,4.7524,4.7071,4.6921,4.6627,4.6092,4.5799,4.5122,4.4245,4.3239,4.2968,4.3325,4.2798,4.3464,4.4582,4.3581,4.3517,4.4249,4.3983,4.381,4.3969,4.3942,4.3942,4.3969,4.4008,4.4008,4.4035,4.4035,4.4035,4.3955,4.3955,4.3928,4.3875,4.3634,4.3435,4.3474,4.3233,4.3035,4.2853,4.2902,4.1964,4.0158,4.0959,4.1176,4.0327,3.9917,3.9392,3.8752,3.861,3.8544,3.8483,3.8483,3.8544,3.8483,3.8519,3.8493,3.8336,3.8625,3.8778,3.8767,3.9705,3.9996,3.9756,4.03,4.0604,4.0413,4.0733,4.0604,4.0105,3.9886,3.9839,3.9148,4.0034,4.0199,3.9008,3.898,3.9192,3.9128,3.8656,3.8272,3.8272,3.8336,3.8296,3.8353,3.8498,3.8675,3.8972,3.9117,3.9189,3.9309,3.9382,3.9496,3.9768,3.9345,3.8926,3.8627,3.8345,3.8296,3.836,3.836,3.8705,3.9252,3.9743,4.0271,4.0607,4.1414,4.186,4.1993,4.2177,4.2254,4.2448,4.2793,4.3216,4.3784,4.3688,4.342,4.7589,4.7322,4.7135,4.6841,4.644,4.6306,4.5885,4.5344,4.4483,4.431,4.4464,4.383,4.3607,4.3749,4.279,4.2931,4.3898,4.256,4.2643,4.3715,4.3447,4.3447,4.3915,4.4316,4.4516,4.4516,4.4516,4.4436,4.4249,4.4088,4.4008,4.4008,4.4035,4.4062,4.3996,4.3955,4.3677,4.3348,4.3518,4.2912,4.1663,4.175,4.1732,4.1189,4.0461,3.9916,3.9487,3.9232,3.9079,3.9079,3.9079,3.9079,3.9079,3.9578,3.9743,3.9396,3.9589,3.9818,3.9996,4.0429,4.0658,4.0582,4.1041,4.1295,4.1128,4.123,4.1099,4.0802,4.0586,4.0115,3.9444,3.9697,3.9608,3.871,3.8543,3.8617,3.8592,3.8336,3.8208,3.8208,3.8208,3.8281,3.8474,3.8748,3.8965,3.8972,3.9117,3.9285,3.9285,3.9406,3.9406,3.9237,3.8996,3.8827,3.8627,3.8458,3.8402,3.8257,3.8208,3.84,3.8601,3.8885,3.9333,3.9765,4.0324,4.087,4.1227,4.1344,4.1461,4.1733,4.2396,4.2991,4.3322,4.3307,4.3409,4.799,4.7696,4.7348,4.7054,4.6867,4.676,4.6487,4.6092,4.5525,4.5298,4.5253,4.4699,4.4084,4.3374,4.2677,4.3138,4.4021,4.251,4.2502,4.3947,4.3516,4.3584,4.4149,4.4621,4.4863,4.4863,4.4783,4.4596,4.4356,4.4302,4.4195,4.4169,4.4262,4.4436,4.4436,4.4436,4.4116,4.3611,4.3904,4.3718,4.294,4.2756,4.2467,4.2035,4.1273,4.0811,4.0682,4.0502,4.0436,4.0436,4.0436,4.0424,4.0565,4.1111,4.1215,4.0901,4.1211,4.1469,4.1598,4.1676,4.1805,4.2012,4.2101,4.2179,4.2179,4.1955,4.1864,4.1762,4.1412,4.0701,3.9767,3.9782,3.9529,3.8833,3.872,3.872,3.8784,3.8656,3.84,3.8208,3.8208,3.8305,3.8595,3.8844,3.8989,3.8893,3.9134,3.9351,3.9206,3.9303,3.9309,3.9044,3.8996,3.8989,3.8868,3.8813,3.8619,3.8369,3.8296,3.8513,3.8345,3.8498,3.8764,3.943,3.9345,3.9562,4.0313,4.0562,4.0786,4.1493,4.2105,4.2701,4.2991,4.3243,4.3557,4.8604,4.8257,4.7722,4.7455,4.7428,4.7161,4.6675,4.6129,4.5682,4.5131,4.4824,4.5201,4.5061,4.4397,4.444,4.4895,4.5433,4.4777,4.4525,4.4795,4.4768,4.4782,4.489,4.489,4.489,4.4943,4.473,4.4436,4.4142,4.4569,4.4703,4.4436,4.4396,4.4463,4.4463,4.4463,4.4236,4.401,4.4209,4.4182,4.3942,4.3889,4.3595,4.3024,4.2742,4.256,4.2811,4.2891,4.2864,4.2864,4.2746,4.2971,4.321,4.3024,4.3024,4.3252,4.3784,4.4036,4.3784,4.3943,4.4103,4.4103,4.3851,4.385,4.3652,4.3216,4.2847,4.2495,4.2035,4.119,4.0176,4.0309,4.0415,4.0123,4.0111,4.0047,4.0022,3.9394,3.8872,3.8449,3.8345,3.853,3.866,3.8619,3.874,3.8716,3.8716,3.8699,3.8837,3.8893,3.9134,3.9279,3.9255,3.9158,3.8805,3.9032,3.8965,3.8714,3.8941,3.9084,3.8821,3.8668,3.8844,3.911,3.9303,3.9496,3.9713,4.001,4.0326,4.0853,4.1525,4.2029,4.2569,4.3427,4.377,4.8257,4.7803,4.7589,4.7509,4.7482,4.7375,4.7206,4.6967,4.6675,4.6428,4.6191,4.6402,4.6331,4.612,4.619,4.5935,4.5542,4.4847,4.4812,4.5227,4.5296,4.5217,4.5101,4.5513,4.5611,4.5424,4.525,4.5063,4.4863,4.489,4.4837,4.4783,4.4917,4.4917,4.4756,4.473,4.465,4.4543,4.4329,4.4195,4.4209,4.4088,4.3955,4.3928,4.3474,4.318,4.31,4.31,4.31,4.31,4.326,4.342,4.3462,4.3795,4.4088,4.4382,4.4596,4.4676,4.4596,4.465,4.4623,4.4463,4.4543,4.4463,4.4289,4.4169,4.4115,4.3983,4.3599,4.2925,4.2098,4.14,4.0964,4.1015,4.0888,4.0567,4.014,3.9817,3.9623,3.9429,3.9364,3.9413,3.9317,3.9202,3.9185,3.9455,3.9414,3.9176,3.9006,3.9487,3.9887,3.9549,3.9657,3.9938,3.9856,3.9864,3.9871,3.9592,3.9608,3.9772,3.9635,3.8652,3.8619,3.8989,3.9255,3.9279,3.9424,3.952,3.9816,4.0089,4.0762,4.1581,4.212,4.2927,4.3493,4.7936,4.7562,4.7589,4.7642,4.7642,4.7749,4.7776,4.7749,4.7562,4.7428,4.7375,4.7135,4.694,4.679,4.6648,4.6118,4.5486,4.5267,4.5445,4.5857,4.5936,4.5831,4.5691,4.6125,4.6173,4.5905,4.5772,4.5558,4.5237,4.5157,4.5104,4.505,4.5237,4.5211,4.505,4.5024,4.4997,4.4837,4.4569,4.4543,4.4676,4.4543,4.4516,4.465,4.4409,4.4062,4.3688,4.3661,4.3688,4.3688,4.3848,4.4008,4.4142,4.4569,4.4997,4.5264,4.5318,4.5344,4.5398,4.5264,4.5131,4.4997,4.489,4.481,4.473,4.481,4.4917,4.4917,4.4756,4.4355,4.4179,4.3212,4.2296,4.1944,4.1647,4.1298,4.0792,4.0701,4.0506,4.0026,3.997,3.9954,3.9807,3.9494,3.9584,4.0168,3.9936,3.949,3.956,3.9887,4.0173,3.9532,3.9681,4.006,4.0341,4.0554,4.0592,4.0441,4.0226,4.0386,3.9994,3.9048,3.8514,3.8885,3.9013,3.9013,3.9086,3.9141,3.9327,3.9514,4.0274,4.1159,4.1769,4.2324,4.2927,4.7803,4.7589,4.7803,4.7909,4.7909,4.8123,4.831,4.8284,4.8284,4.7952,4.7649,4.7047,4.655,4.6322,4.5744,4.5244,4.5382,4.6249,4.6605,4.6577,4.686,4.6877,4.654,4.661,4.6467,4.6146,4.5905,4.5478,4.505,4.5451,4.5585,4.5371,4.5371,4.5371,4.5291,4.5264,4.5157,4.4997,4.505,4.5211,4.5318,4.5264,4.5264,4.5344,4.5531,4.5398,4.489,4.4837,4.4756,4.4756,4.481,4.4997,4.5184,4.541,4.5825,4.5986,4.6092,4.6279,4.6413,4.5986,4.5772,4.5825,4.5371,4.505,4.5157,4.5077,4.505,4.5211,4.5131,4.5116,4.5703,4.5342,4.4313,4.2901,4.2691,4.256,4.2117,4.2052,4.1572,4.0541,4.0455,4.0184,3.9615,3.9556,3.996,4.048,4.0148,3.9653,4.0068,4.0155,3.9774,3.9448,3.9845,4.0497,4.0828,4.1175,4.1226,4.1233,4.1041,4.0936,4.0311,3.9429,3.8732,3.8829,3.8844,3.8868,3.9037,3.9068,3.8972,3.9265,4.0094,4.0613,4.1065,4.1605,4.2336,4.8177,4.8096,4.7963,4.7936,4.7909,4.7829,4.799,4.8265,4.7671,4.746,4.74,4.6435,4.594,4.5766,4.5371,4.5198,4.5295,4.6054,4.6511,4.6803,4.733,4.7437,4.7197,4.7215,4.6867,4.6279,4.6092,4.5852,4.5543,4.5783,4.5905,4.5692,4.5757,4.5692,4.5235,4.5318,4.5264,4.5184,4.505,4.5184,4.549,4.5611,4.5718,4.5932,4.6199,4.6253,4.6066,4.5505,4.5104,4.4917,4.5077,4.5318,4.5558,4.5623,4.573,4.5879,4.5879,4.6012,4.6226,4.5986,4.573,4.5757,4.5611,4.5424,4.5344,4.5424,4.541,4.5516,4.5531,4.5638,4.5772,4.5745,4.5262,4.4739,4.4554,4.3955,4.315,4.2809,4.227,4.1612,4.182,4.2054,4.1876,4.1327,4.0861,4.1478,4.0857,4.0277,4.0223,4.0589,4.0546,3.9871,4.052,4.0837,4.1068,4.1454,4.1827,4.1829,4.1661,4.1221,4.0611,3.9756,3.9081,3.8749,3.874,3.8796,3.8965,3.8941,3.8844,3.895,3.9553,3.9954,4.0199,4.0783,4.1576,4.8471,4.8364,4.8054,4.7856,4.7777,4.7559,4.7572,4.7708,4.714,4.6973,4.6856,4.5914,4.5272,4.5074,4.4606,4.4413,4.4537,4.5152,4.5765,4.6299,4.7025,4.7158,4.6968,4.6837,4.6709,4.6129,4.5569,4.5246,4.5193,4.4734,4.4482,4.4361,4.4656,4.4674,4.4535,4.4732,4.4885,4.5133,4.5175,4.5444,4.5943,4.6173,4.636,4.668,4.6666,4.6552,4.6296,4.5638,4.5328,4.5342,4.5451,4.5611,4.5879,4.5757,4.5757,4.6039,4.6092,4.6173,4.6306,4.6199,4.6012,4.5932,4.5799,4.5323,4.4985,4.5186,4.5539,4.499,4.5376,4.573,4.5879,4.5905,4.5905,4.5905,4.533,4.4768,4.3889,4.3585,4.3148,4.2724,4.2646,4.2949,4.2731,4.2305,4.1712,4.2131,4.1565,4.0777,4.0674,4.0907,4.0417,4.0059,4.0033,4.044,4.1024,4.1616,4.2338,4.2338,4.2272,4.1673,4.1023,3.983,3.8943,3.8854,3.8796,3.8796,3.8941,3.8748,3.8692,3.8911,3.9138,3.9276,3.9594,4.0215,4.0848,4.8638,4.8306,4.8049,4.7681,4.7451,4.7248,4.7051,4.6925,4.6726,4.6599,4.6175,4.5336,4.4697,4.4304,4.3673,4.3383,4.3456,4.4087,4.4698,4.5289,4.583,4.6072,4.6183,4.5975,4.6028,4.5959,4.4633,4.4001,4.4288,4.3129,4.1862,4.2335,4.2931,4.2762,4.334,4.3685,4.4376,4.4742,4.5159,4.5665,4.6304,4.6683,4.7002,4.7224,4.6889,4.6453,4.5972,4.5538,4.5493,4.5933,4.5561,4.5561,4.5885,4.5794,4.5641,4.6092,4.6364,4.6241,4.6364,4.6049,4.6039,4.58,4.5355,4.499,4.3838,4.4345,4.4483,4.3588,4.4414,4.5302,4.5556,4.5609,4.5651,4.5874,4.5288,4.4823,4.4503,4.4396,4.3876,4.3317,4.3027,4.275,4.2483,4.2088,4.2416,4.2359,4.206,4.1782,4.1294,4.1048,4.0404,4.0065,3.9967,4.0514,4.1241,4.1824,4.2573,4.2954,4.2756,4.201,4.115,3.9929,3.9023,3.8934,3.8868,3.8893,3.8868,3.8724,3.8699,3.8885,3.891,3.8772,3.9129,3.9758,4.0217,4.8245,4.7547,4.7068,4.6767,4.669,4.6444,4.6421,4.6424,4.5932,4.581,4.5662,4.4798,4.4257,4.416,4.3673,4.3528,4.3478,4.3352,4.3717,4.428,4.4101,4.5068,4.6001,4.6015,4.5808,4.5529,4.4413,4.3899,4.3768,4.3126,4.2603,4.2128,4.341,4.3597,4.2742,4.391,4.4259,4.3912,4.4537,4.5146,4.5538,4.5687,4.5925,4.6316,4.6274,4.6077,4.5898,4.5448,4.4989,4.4754,4.456,4.4534,4.481,4.4449,4.444,4.4699,4.4732,4.4707,4.4707,4.4707,4.4655,4.4508,4.4043,4.3105,4.276,4.2553,4.2345,4.193,4.2345,4.2854,4.3344,4.3533,4.3639,4.3959,4.4596,4.4954,4.4862,4.4636,4.4022,4.3107,4.3462,4.2963,4.2139,4.251,4.3036,4.2591,4.2597,4.2522,4.1702,4.1696,4.1233,4.0503,4.032,4.087,4.1509,4.2135,4.2769,4.3441,4.3151,4.2322,4.1237,4.0028,3.9341,3.8876,3.8989,3.9013,3.89,3.8827,3.8876,3.8972,3.8948,3.9013,3.9086,3.947,3.9754,4.7914,4.7234,4.6833,4.6383,4.6106,4.5835,4.5687,4.5563,4.529,4.4917,4.4693,4.4447,4.3857,4.312,4.3155,4.3034,4.2857,4.2554,4.2894,4.3631,4.3474,4.4048,4.4772,4.4601,4.4553,4.4844,4.3698,4.3359,4.3406,4.29,4.2228,4.2012,4.3068,4.3187,4.2492,4.3378,4.407,4.3725,4.4181,4.4688,4.5126,4.5325,4.5605,4.5866,4.5799,4.5581,4.5213,4.4791,4.446,4.4381,4.4237,4.4136,4.4263,4.4009,4.3831,4.3933,4.4009,4.4104,4.3977,4.3952,4.3977,4.3857,4.3212,4.2578,4.2207,4.2,4.2138,4.1445,4.1861,4.2415,4.2716,4.2929,4.3087,4.3392,4.3873,4.4327,4.4392,4.4052,4.3542,4.3162,4.322,4.321,4.1533,4.2763,4.2566,4.2005,4.251,4.2086,4.1572,4.1913,4.1924,4.1072,4.0569,4.0978,4.1376,4.1922,4.2253,4.2925,4.2833,4.2161,4.1307,4.0069,3.9584,3.9117,3.9092,3.9068,3.9092,3.9117,3.9165,3.9213,3.9213,3.9189,3.9213,3.9261,3.9502,4.7641,4.7085,4.6806,4.6254,4.5611,4.5251,4.4904,4.4663,4.4732,4.4431,4.3987,4.4216,4.3549,4.1949,4.2531,4.2238,4.1829,4.18,4.2213,4.2777,4.2945,4.3222,4.3119,4.2876,4.3183,4.3761,4.2498,4.2535,4.2866,4.1921,4.1454,4.1651,4.2052,4.2195,4.2506,4.2947,4.3358,4.3597,4.3862,4.4344,4.4779,4.5074,4.5278,4.5556,4.5388,4.497,4.4379,4.4062,4.4062,4.4592,4.4355,4.4113,4.4088,4.4133,4.3957,4.376,4.3816,4.3886,4.3755,4.3615,4.3704,4.3539,4.3244,4.2722,4.173,4.1938,4.1959,4.0986,4.2301,4.2415,4.281,4.3218,4.3263,4.3043,4.2846,4.2866,4.2929,4.2933,4.3001,4.2958,4.273,4.2501,4.2031,4.2167,4.216,4.1114,4.1665,4.1886,4.1552,4.1566,4.1664,4.1409,4.1127,4.0986,4.1276,4.1616,4.1866,4.2182,4.1999,4.155,4.1061,4.0208,3.9719,3.943,3.9309,3.9358,3.9544,3.9502,3.9544,3.9478,3.9544,3.9382,3.9309,3.9382,3.955,4.6773,4.5724,4.5424,4.5081,4.474,4.4253,4.4324,4.478,4.4415,4.4487,4.4619,4.415,4.3579,4.3109,4.238,4.2132,4.1758,4.1406,4.1248,4.142,4.2097,4.2083,4.2,4.1962,4.2622,4.31,4.2553,4.2265,4.228,4.2632,4.2146,4.1735,4.2787,4.2934,4.2127,4.3348,4.3523,4.297,4.3334,4.3869,4.4112,4.4234,4.4503,4.4846,4.4745,4.4645,4.4447,4.418,4.4086,4.4015,4.3673,4.3499,4.3523,4.306,4.2911,4.296,4.2938,4.2818,4.2622,4.2742,4.2769,4.262,4.217,4.1371,4.1159,4.0689,4.0455,3.9917,3.9988,4.073,4.1216,4.1782,4.213,4.2081,4.2162,4.2216,4.213,4.2153,4.2197,4.2207,4.2491,4.2248,4.0286,4.2128,4.1897,4.0726,4.0816,4.1434,4.1445,4.1318,4.1251,4.1164,4.0917,4.0695,4.1118,4.1252,4.1269,4.1286,4.0986,4.0803,4.0379,4.0239,3.9768,3.9569,3.9502,3.9732,4.0162,3.9919,3.9847,3.9828,3.9786,3.9713,3.9599,3.9599,3.955,4.6352,4.5507,4.5459,4.5242,4.4877,4.4714,4.4838,4.4994,4.4906,4.4501,4.4083,4.3785,4.3137,4.1872,4.1639,4.1345,4.1067,4.0991,4.112,4.1496,4.2022,4.2391,4.2634,4.2286,4.2489,4.2998,4.3004,4.2963,4.3297,4.3454,4.3411,4.2921,4.3857,4.3833,4.2972,4.3806,4.3933,4.3545,4.3525,4.3793,4.4035,4.3962,4.4059,4.4469,4.4614,4.4638,4.4494,4.4397,4.4325,4.418,4.3793,4.3455,4.3455,4.3093,4.2876,4.2707,4.2707,4.2586,4.2441,4.2321,4.2321,4.2345,4.1799,4.1656,4.1467,4.0995,4.0713,4.0525,4.0478,4.05,4.0754,4.1367,4.1671,4.1599,4.163,4.187,4.196,4.197,4.1865,4.1782,4.1979,4.1376,4.1171,4.2028,4.1524,4.0291,4.0752,4.1304,4.1003,4.0831,4.0787,4.0655,4.0436,4.0387,4.079,4.0882,4.0668,4.0387,3.9968,3.9762,3.9447,3.9617,3.9786,3.9925,4.0197,4.0737,4.1078,4.066,4.0351,4.0277,4.0235,4.0041,3.9882,3.9871,3.9756,4.6256,4.5797,4.5966,4.5749,4.5387,4.5427,4.5403,4.5411,4.5346,4.4384,4.3147,4.3568,4.2295,4.0671,4.0712,4.0539,4.0539,4.0841,4.1496,4.1947,4.2247,4.2842,4.3339,4.3132,4.2969,4.311,4.3411,4.3899,4.4281,4.4612,4.4293,4.4419,4.4419,4.4296,4.4347,4.4325,4.4202,4.425,4.4009,4.4059,4.4397,4.4325,4.4421,4.459,4.4663,4.4687,4.4542,4.4494,4.4494,4.4494,4.43,4.4083,4.389,4.3697,4.3552,4.3069,4.3069,4.2997,4.2804,4.2586,4.249,4.2635,4.2346,4.2226,4.2201,4.2036,4.1821,4.1747,4.1603,4.1435,4.1358,4.1719,4.1886,4.1673,4.1561,4.1847,4.218,4.2055,4.1838,4.1838,4.1927,4.1435,4.1201,4.1551,4.0712,4.0219,4.0734,4.0893,4.0521,4.0217,4.0022,4.0238,4.0046,3.9707,4.0013,3.9241,3.9193,3.9253,3.8793,3.881,3.8739,3.9548,4.0059,4.0803,4.1252,4.1594,4.1761,4.162,4.126,4.1044,4.091,4.0942,4.06,4.012,4.0053,4.6521,4.6014,4.5845,4.558,4.5286,4.4891,4.5163,4.5394,4.4582,4.4072,4.4,4.2766,4.1929,4.1128,4.0907,4.1142,4.1496,4.1721,4.1947,4.2322,4.272,4.3241,4.3254,4.3975,4.4211,4.3902,4.3837,4.3947,4.4173,4.4479,4.4612,4.4542,4.4542,4.4542,4.4542,4.4469,4.4518,4.4638,4.4469,4.4494,4.4566,4.4687,4.4735,4.4807,4.4783,4.4663,4.4566,4.4518,4.4518,4.4518,4.4469,4.4421,4.43,4.3987,4.3745,4.3576,4.3528,4.348,4.3359,4.3214,4.3142,4.3117,4.2924,4.2779,4.2731,4.2586,4.2417,4.2297,4.2128,4.1792,4.1403,4.1862,4.1862,4.1671,4.1794,4.206,4.2177,4.22,4.2176,4.2272,4.2057,4.1864,4.1699,4.1534,4.1183,4.0524,4.0244,3.9894,3.9147,3.8966,3.8832,3.9266,3.9788,3.9356,3.9084,3.789,3.7272,3.7575,3.7555,3.7962,3.8323,3.9568,4.038,4.046,4.1076,4.1653,4.1846,4.198,4.176,4.1146,4.1409,4.1695,4.09,4.0132,4.0594,4.6787,4.6304,4.6159,4.5966,4.5696,4.5461,4.5508,4.574,4.5046,4.4495,4.403,4.3164,4.2303,4.1849,4.1563,4.1796,4.2022,4.2097,4.2322,4.272,4.3095,4.3442,4.3433,4.4554,4.4674,4.4495,4.4348,4.4372,4.4519,4.4582,4.4735,4.4735,4.4711,4.4711,4.4759,4.488,4.4976,4.5049,4.5,4.4904,4.4904,4.5049,4.5049,4.4928,4.5025,4.5,4.4735,4.4711,4.4638,4.4566,4.4638,4.4711,4.4663,4.4566,4.4325,4.4011,4.3938,4.3842,4.3745,4.3576,4.3504,4.348,4.3262,4.3142,4.3069,4.29,4.2683,4.2514,4.2226,4.196,4.179,4.2103,4.2176,4.2103,4.2272,4.2466,4.2514,4.2514,4.2586,4.2635,4.225,4.2081,4.2129,4.1963,4.1727,4.1042,4.0101,3.9141,3.8227,3.7917,3.7862,3.798,3.851,3.8349,3.8025,3.7355,3.6436,3.6539,3.6681,3.7099,3.7487,3.8509,3.9079,3.9261,4.0094,4.0993,4.1128,4.0918,4.1103,4.1201,4.084,4.0587,4.0385,4.0302,4.0656,4.6932,4.6497,4.6377,4.6183,4.5966,4.6014,4.5966,4.5918,4.5542,4.4843,4.4078,4.3563,4.29,4.2316,4.2247,4.2397,4.2547,4.2622,4.2997,4.347,4.362,4.3919,4.4293,4.459,4.4636,4.4657,4.4753,4.5,4.4997,4.4904,4.4832,4.4856,4.4928,4.4976,4.5025,4.5121,4.5459,4.5556,4.5532,4.5387,4.5363,4.5266,4.5121,4.4952,4.5338,4.5266,4.4807,4.4832,4.4735,4.4638,4.4663,4.4807,4.4856,4.5073,4.4904,4.4397,4.4276,4.4131,4.4011,4.3818,4.3793,4.3769,4.348,4.3335,4.3238,4.3021,4.2804,4.2562,4.2441,4.2177,4.2057,4.2345,4.2441,4.2417,4.2538,4.2684,4.2731,4.2731,4.2731,4.2659,4.2441,4.2298,4.2393,4.2394,4.2085,4.1184,4.0288,3.9466,3.8483,3.7331,3.7069,3.6934,3.703,3.703,3.7004,3.7117,3.65,3.6354,3.6557,3.6811,3.6909,3.7255,3.7687,3.8167,3.8785,3.9522,3.9681,4.032,4.0948,4.0955,4.0033,3.98,4.0269,4.035,4.0506,4.6763,4.6449,4.6014,4.5652,4.5459,4.5676,4.5628,4.5383,4.4915,4.4342,4.3889,4.3114,4.265,4.2466,4.2969,4.3545,4.3919,4.4018,4.4042,4.4315,4.4291,4.4365,4.4566,4.4759,4.4711,4.4735,4.4856,4.4904,4.5025,4.5097,4.5073,4.5025,4.5169,4.5242,4.5266,4.5363,4.5435,4.5652,4.5652,4.5604,4.5532,4.5194,4.4976,4.4952,4.5,4.4952,4.4735,4.4807,4.4759,4.4566,4.4542,4.4566,4.4614,4.4807,4.4904,4.4832,4.4807,4.4807,4.4638,4.4349,4.4107,4.4035,4.3673,4.3383,4.3286,4.3142,4.29,4.2562,4.2683,4.261,4.2369,4.2417,4.2393,4.2369,4.2417,4.2514,4.2586,4.2804,4.2828,4.2852,4.2683,4.2586,4.2562,4.2515,4.242,4.1396,4.0498,3.9673,3.8922,3.7971,3.698,3.6888,3.6866,3.6866,3.6802,3.6823,3.6716,3.6457,3.6543,3.6673,3.6774,3.6873,3.6626,3.7194,3.7781,3.8749,3.9476,4.0267,4.1014,4.0735,3.9706,3.9988,4.0694,4.0666,4.0299,4.6642,4.6256,4.6039,4.5676,4.5363,4.558,4.5652,4.5479,4.5101,4.4805,4.4591,4.4121,4.3777,4.3682,4.4134,4.4359,4.466,4.466,4.4832,4.4904,4.4928,4.4856,4.4783,4.4832,4.4807,4.4856,4.4976,4.5121,4.5145,4.5097,4.5097,4.5363,4.5459,4.5532,4.5532,4.5676,4.5701,4.5652,4.5435,4.5266,4.5194,4.5049,4.4904,4.4904,4.5025,4.4952,4.4832,4.4807,4.4783,4.459,4.4614,4.4735,4.4807,4.5,4.5169,4.5338,4.5049,4.4976,4.5025,4.4735,4.4566,4.4421,4.4083,4.3745,4.3576,4.3407,4.3238,4.2997,4.3069,4.2948,4.2683,4.2683,4.2683,4.2539,4.2467,4.2515,4.2611,4.2731,4.2828,4.2876,4.2852,4.2684,4.254,4.2468,4.2492,4.2181,4.1348,4.0566,3.9901,3.9192,3.8231,3.7368,3.7254,3.7211,3.7103,3.706,3.706,3.6888,3.6909,3.6974,3.6888,3.685,3.6716,3.6759,3.7369,3.8342,3.9347,3.9438,3.9506,3.9506,3.9364,3.9516,3.9615,3.9895,3.9755,4.6497,4.6014,4.6014,4.5725,4.5338,4.5604,4.5676,4.558,4.5483,4.5363,4.5266,4.5021,4.4925,4.5,4.4925,4.4925,4.5,4.4849,4.497,4.5166,4.5114,4.4942,4.4973,4.5025,4.5025,4.5,4.5169,4.5314,4.5314,4.529,4.5387,4.5701,4.5749,4.5797,4.5845,4.5845,4.5821,4.5556,4.5338,4.5145,4.4976,4.5025,4.4952,4.4976,4.5049,4.5097,4.4928,4.4904,4.4783,4.4614,4.4638,4.4735,4.4783,4.4976,4.5169,4.529,4.5097,4.5121,4.5097,4.4952,4.4856,4.4663,4.4421,4.3938,4.3721,4.3697,4.3649,4.3383,4.3407,4.3311,4.3166,4.3069,4.2852,4.2804,4.2828,4.2756,4.2756,4.2828,4.2804,4.278,4.2756,4.2563,4.2371,4.2347,4.2467,4.2684,4.2157,4.1322,4.0488,3.9627,3.8753,3.7605,3.7599,3.7491,3.7297,3.7232,3.7254,3.7319,3.7319,3.7297,3.7282,3.7239,3.7125,3.7211,3.739,3.7776,3.8665,3.8223,3.7922,3.8476,3.872,3.823,3.8198,3.859,3.8932,4.6208,4.5749,4.5749,4.5503,4.5238,4.5604,4.5479,4.5182,4.5427,4.5355,4.5086,4.519,4.509,4.519,4.5114,4.5114,4.519,4.4506,4.4729,4.4882,4.4682,4.4653,4.4758,4.4962,4.5114,4.519,4.521,4.5331,4.5628,4.5628,4.5652,4.5725,4.5687,4.5961,4.599,4.5845,4.5676,4.5483,4.5363,4.5194,4.5049,4.5025,4.5097,4.4928,4.4928,4.4904,4.4904,4.4904,4.4807,4.4566,4.4614,4.4614,4.4663,4.4807,4.4976,4.5049,4.5097,4.5121,4.5121,4.4904,4.4614,4.4469,4.4349,4.4131,4.3962,4.3793,4.3721,4.3745,4.3769,4.3673,4.3552,4.3382,4.3044,4.2899,4.2852,4.2804,4.2828,4.2804,4.2804,4.2756,4.2708,4.2563,4.2202,4.2153,4.1913,4.2035,4.182,4.0985,3.9888,3.9074,3.8461,3.78,3.7879,3.7749,3.7426,3.7426,3.7663,3.7642,3.7577,3.7649,3.7677,3.7655,3.7668,3.7748,3.7885,3.7936,3.7943,3.8131,3.829,3.8274,3.818,3.7986,3.7792,3.8077,3.793,4.5969,4.5194,4.5194,4.4933,4.4553,4.4277,4.4094,4.4,4.3954,4.396,4.3867,4.4324,4.4395,4.4284,4.4613,4.4767,4.4767,4.4537,4.4655,4.4595,4.4388,4.3986,4.407,4.4177,4.423,4.4714,4.4867,4.5293,4.5918,4.5556,4.4219,4.4033,4.4591,4.6052,4.6135,4.5206,4.5173,4.5282,4.5042,4.4756,4.4807,4.4904,4.5,4.4928,4.4904,4.5,4.5097,4.4976,4.4856,4.4783,4.4735,4.4638,4.4542,4.4638,4.4735,4.4856,4.4904,4.4928,4.5025,4.4832,4.4711,4.4566,4.4542,4.4518,4.4349,4.4518,4.4445,4.4349,4.418,4.4107,4.3721,4.348,4.3165,4.3044,4.2923,4.29,4.2755,4.2756,4.2852,4.29,4.278,4.2756,4.2323,4.1985,4.1672,4.1408,4.1027,4.0597,3.9591,3.8846,3.8347,3.808,3.8137,3.8072,3.7749,3.79,3.8115,3.7965,3.7814,3.803,3.8223,3.8313,3.8341,3.8423,3.8383,3.8347,3.8362,3.8644,3.871,3.8557,3.839,3.8158,3.7965,3.7843,3.7556,4.5591,4.4599,4.4365,4.4188,4.3893,4.3493,4.333,4.3307,4.3247,4.3079,4.3156,4.3693,4.3832,4.3708,4.401,4.4389,4.4358,4.4249,4.4397,4.4256,4.3888,4.3517,4.3481,4.3614,4.4048,4.4343,4.4645,4.5174,4.3852,4.4475,4.2581,4.123,4.1799,4.2614,4.2782,4.2934,4.3025,4.3701,4.368,4.4059,4.4431,4.4856,4.5097,4.5073,4.5025,4.5121,4.5242,4.5194,4.5,4.4928,4.4856,4.4735,4.4614,4.4542,4.4614,4.4588,4.466,4.4561,4.4684,4.4759,4.4735,4.4687,4.4663,4.4759,4.4928,4.5025,4.4687,4.4663,4.459,4.4469,4.4035,4.3938,4.3427,4.3231,4.3116,4.3045,4.2706,4.2586,4.2828,4.2949,4.2731,4.2223,4.1793,4.131,4.0925,4.0612,4.0349,4.0109,3.9625,3.8993,3.8673,3.8498,3.846,3.8309,3.8137,3.8245,3.8331,3.8158,3.8123,3.8463,3.8686,3.8748,3.8869,3.8925,3.884,3.8761,3.8681,3.8819,3.8797,3.8797,3.8557,3.8339,3.8732,3.8608,3.7993,4.4986,4.3914,4.3129,4.3106,4.3481,4.3582,4.3426,4.3303,4.3358,4.3335,4.3257,4.3435,4.3549,4.3676,4.3654,4.3924,4.3927,4.3545,4.3612,4.3905,4.3409,4.3421,4.3612,4.3747,4.3623,4.4218,4.396,4.2836,4.0916,4.1188,3.9434,3.7062,3.6507,3.7041,3.6545,3.6336,3.7694,4.0235,4.0749,4.2477,4.4539,4.5073,4.5266,4.5387,4.5242,4.529,4.5532,4.5435,4.5242,4.5097,4.5,4.4606,4.3865,4.377,4.3644,4.3367,4.3781,4.4007,4.4141,4.4267,4.4161,4.4281,4.4031,4.4832,4.4856,4.4832,4.4856,4.5,4.4952,4.4904,4.4759,4.4491,4.3881,4.3424,4.331,4.3166,4.2826,4.2537,4.2804,4.2706,4.1971,4.1257,4.0913,4.0563,4.0127,3.9837,3.9669,3.9474,3.9322,3.903,3.8687,3.8628,3.8546,3.846,3.8331,3.8503,3.8525,3.8374,3.8433,3.8746,3.8965,3.9044,3.9117,3.9256,3.8614,3.7917,3.8335,3.8847,3.8042,3.7236,3.8395,3.8593,3.9103,3.8506,3.688,4.4233,4.3353,4.2881,4.2534,4.221,4.221,4.2122,4.2024,4.2281,4.2281,4.2058,4.2281,4.2247,4.2313,4.2848,4.3218,4.3206,4.3385,4.3408,4.3351,4.2737,4.2433,4.2628,4.283,4.291,4.2843,4.239,4.1531,4.0385,3.8904,3.5994,3.3416,3.1718,3.2444,3.5199,3.6466,3.7617,4.0292,4.1009,4.199,4.4805,4.5234,4.5455,4.5648,4.5302,4.5628,4.5865,4.5571,4.5073,4.4829,4.4634,4.3487,4.1948,4.1382,4.041,3.9134,3.8542,3.8354,3.9062,3.9813,4.1597,4.2205,4.3842,4.4946,4.5363,4.5556,4.5532,4.5411,4.5363,4.5242,4.4952,4.4663,4.4101,4.3621,4.348,4.3262,4.3044,4.2828,4.2756,4.2364,4.172,3.913,3.7959,3.8533,3.846,3.8614,3.852,3.8855,3.8847,3.8666,3.8425,3.8512,3.8525,3.8503,3.8525,3.8589,3.8559,3.8525,3.8671,3.8978,3.9124,3.9081,3.9103,3.9103,3.8055,3.705,3.6787,3.6376,3.5709,3.5541,3.5502,3.5638,3.5485,3.4637,3.3273,4.3609,4.2803,4.257,4.2144,4.1661,4.141,4.1281,4.1295,4.1634,4.1621,4.1516,4.1756,4.1765,4.1768,4.2035,4.257,4.2636,4.279,4.2877,4.2797,4.2398,4.2194,4.2093,4.1853,4.1635,4.1352,4.0211,3.9028,3.627,3.5199,3.2728,2.9788,2.7592,2.9223,3.1787,3.2736,3.3936,3.6387,3.7716,3.9512,4.1992,4.3616,4.5176,4.4807,4.5063,4.6087,4.5825,4.5134,4.4149,4.3755,4.255,4.1023,3.8972,3.7855,3.703,3.5615,3.5115,3.4765,3.4876,3.6772,3.8253,3.8735,4.2652,4.5106,4.5628,4.5652,4.5676,4.5676,4.5725,4.5459,4.5097,4.4807,4.4445,4.3987,4.3624,4.3407,4.2874,4.2658,4.1662,4.1307,3.9674,3.7104,3.5003,3.6,3.6517,3.693,3.7288,3.7938,3.8568,3.846,3.8374,3.8438,3.8481,3.846,3.8503,3.8494,3.8537,3.858,3.8835,3.9134,3.8804,3.8688,3.8752,3.8298,3.6226,3.466,3.4116,3.3591,3.256,3.1468,3.0615,3.088,3.1458,3.1331,3.0811,4.3126,4.2287,4.2185,4.2035,4.1776,4.1367,4.1281,4.1475,4.1532,4.1661,4.1776,4.1597,4.1683,4.2071,4.1927,4.2115,4.2417,4.2524,4.2546,4.2568,4.2422,4.2336,4.2154,4.1874,4.0682,3.945,3.7893,3.5403,3.1348,3.1091,2.9477,2.7553,2.6822,2.7492,2.7997,2.8585,3.0225,3.3029,3.5003,3.6647,3.8643,4.1978,4.2491,4.2401,4.2916,4.4012,4.3699,4.2536,4.12,3.9839,3.7943,3.627,3.5224,3.509,3.5013,3.4703,3.4237,3.251,3.1577,3.3543,3.5726,3.7086,4.1583,4.423,4.5628,4.5701,4.5725,4.5749,4.5749,4.5556,4.529,4.5025,4.4735,4.4276,4.3818,4.3258,4.2506,4.1701,4.0419,3.9094,3.7155,3.4867,3.2861,3.3106,3.535,3.6767,3.7423,3.8212,3.8654,3.8568,3.8481,3.8417,3.8438,3.8417,3.8481,3.8697,3.8891,3.902,3.9053,3.9235,3.8787,3.7703,3.708,3.5885,3.3644,3.2055,3.0868,2.9942,2.8971,2.7953,2.7525,2.7937,2.9045,2.9971,2.9904,4.267,4.2422,4.225,4.2056,4.1798,4.1496,4.1604,4.1905,4.1647,4.1604,4.1819,4.1582,4.1712,4.1927,4.2035,4.2164,4.2315,4.2444,4.253,4.247,4.2228,4.2325,4.1759,4.0523,3.9286,3.7396,3.5257,3.2851,3.0614,2.9178,2.7902,2.659,2.6441,2.6549,2.6644,2.6725,2.8778,3.0682,3.2448,3.3845,3.5574,3.8608,3.8807,3.8986,3.9281,4.0211,3.9595,3.8584,3.7519,3.6891,3.6169,3.4787,3.2031,3.1678,3.1237,2.8603,2.8377,2.8085,2.7955,3.0371,3.3102,3.5558,3.9662,4.3221,4.4992,4.574,4.5716,4.587,4.5821,4.5628,4.5363,4.5097,4.4735,4.4276,4.3864,4.3547,4.2766,4.1514,4.0072,3.6731,3.4757,3.2366,3.0328,3.2026,3.4322,3.6271,3.7652,3.8298,3.8657,3.8571,3.8632,3.8568,3.8589,3.8632,3.8804,3.8998,3.9214,3.9407,3.9075,3.8365,3.6968,3.5892,3.5099,3.3369,3.0969,2.8825,2.7067,2.6561,2.6879,2.6222,2.5775,2.6121,2.663,2.7708,2.8039,4.247,4.253,4.2401,4.225,4.2099,4.197,4.2035,4.2121,4.1862,4.1884,4.2078,4.1884,4.1884,4.2121,4.2185,4.2228,4.2358,4.2487,4.247,4.2309,4.1396,4.0909,3.9996,3.8369,3.6392,3.4592,3.2689,3.0519,2.8972,2.7666,2.6373,2.6441,2.64,2.6508,2.6576,2.6741,2.7534,2.9262,3.0845,3.1852,3.3114,3.5088,3.585,3.5034,3.5309,3.6036,3.5764,3.52,3.4201,3.3576,3.3102,3.1034,2.8834,2.8505,2.8298,2.6389,2.6323,2.6511,2.6591,2.7709,3.0721,3.3479,3.6241,3.9303,4.2914,4.4854,4.5575,4.6063,4.5918,4.5749,4.5435,4.5097,4.4663,4.4204,4.4057,4.3935,4.285,4.164,3.8615,3.4928,3.2142,2.9661,2.9417,3.1444,3.2737,3.3844,3.5852,3.8123,3.8425,3.8383,3.8595,3.8804,3.8848,3.8912,3.9032,3.8691,3.8369,3.8119,3.7694,3.6751,3.5214,3.323,3.1589,2.9936,2.8213,2.6673,2.5601,2.5389,2.5458,2.5016,2.4989,2.5411,2.5699,2.5739,2.575,4.247,4.247,4.2449,4.2465,4.2508,4.2465,4.2358,4.2185,4.2142,4.2293,4.2401,4.2228,4.2228,4.2358,4.2336,4.1955,4.1636,4.1558,4.0991,4.172,3.9264,3.8287,3.7554,3.5656,3.3772,3.1735,3.0071,2.8901,2.7387,2.659,2.6454,2.6386,2.6454,2.6522,2.6481,2.6441,2.6917,2.7489,2.9032,3.0139,2.9537,3.1983,3.4959,3.2538,3.3558,3.533,3.4524,3.2985,3.0834,2.9621,2.8377,2.6552,2.6472,2.6392,2.6234,2.6073,2.5966,2.5966,2.5952,2.6594,2.8407,3.0212,3.1293,3.5295,3.9381,4.317,4.4281,4.5831,4.5942,4.5773,4.5507,4.5018,4.4534,4.3372,4.2581,4.1683,4.0257,3.8415,3.5195,3.2198,3.0782,2.8815,3.0367,3.2526,3.4462,3.3488,3.4142,3.7347,3.7591,3.7665,3.8159,3.8596,3.9075,3.8894,3.8031,3.7686,3.7133,3.6726,3.6031,3.4698,3.2796,3.0358,2.772,2.7084,2.6522,2.5965,2.5162,2.5179,2.522,2.5179,2.5152,2.5152,2.507,2.4962,2.4786,4.247,4.253,4.2358,4.2271,4.2271,4.2271,4.225,4.2185,4.2185,4.2148,4.2228,4.1998,4.2164,4.2406,4.2142,4.1435,3.9976,3.9508,3.8287,3.7472,3.5983,3.5656,3.5083,3.2952,3.1323,3.0334,2.8999,2.7648,2.6905,2.659,2.6549,2.6495,2.6481,2.64,2.6427,2.6373,2.6414,2.64,2.7121,2.8108,2.7783,2.751,2.8639,2.8291,2.95,2.9726,2.9169,2.8425,2.7416,2.6838,2.6625,2.6155,2.6074,2.6074,2.6034,2.5979,2.602,2.602,2.6034,2.6181,2.7614,2.9572,3.1296,3.3593,3.6713,4.0263,4.2914,4.4699,4.5711,4.5542,4.5427,4.4862,4.4069,4.2522,4.08,3.9156,3.7544,3.4674,3.163,3.0202,2.9095,3.0033,3.1498,3.3312,3.5384,3.6077,3.5981,3.6883,3.6183,3.6079,3.7038,3.7673,3.9096,3.8892,3.7756,3.6249,3.5478,3.447,3.3623,3.2036,3.0355,2.8396,2.6367,2.5866,2.5348,2.522,2.526,2.5342,2.5355,2.5342,2.5355,2.5382,2.5328,2.5233,2.5016,4.247,4.2508,4.2293,4.2185,4.2185,4.2185,4.2185,4.2025,4.0959,4.0539,4.0843,4.1479,4.2127,4.2023,4.1396,4.0179,3.8206,3.729,3.6474,3.5002,3.328,3.2952,3.1801,3.0416,2.9261,2.8367,2.769,2.6808,2.659,2.6481,2.6454,2.64,2.6305,2.6278,2.6318,2.6237,2.6224,2.6142,2.6224,2.6386,2.659,2.6617,2.6658,2.659,2.6468,2.6332,2.6278,2.6129,2.6088,2.6142,2.6183,2.6224,2.621,2.6156,2.6088,2.6034,2.602,2.6034,2.6034,2.6369,2.6999,2.8482,2.8917,3.0339,3.2863,3.6241,3.9068,4.0944,4.2969,4.3066,4.4318,4.419,4.2706,4.1099,3.859,3.6385,3.4684,3.251,2.9879,2.7819,2.7957,2.9643,3.1139,3.2666,3.4108,3.2924,3.3694,3.3918,3.3591,3.415,3.5213,3.6141,3.7129,3.7782,3.6946,3.5099,3.3415,3.231,3.1081,2.9687,2.8189,2.6616,2.5233,2.5301,2.5355,2.5396,2.545,2.5532,2.5559,2.5545,2.5586,2.5627,2.5559,2.5505,2.5369,4.2465,4.2422,4.2228,4.2121,4.2099,4.2121,4.2099,4.1757,3.9772,3.8763,3.8902,4.0781,4.1611,4.0604,3.9346,3.8369,3.6882,3.492,3.41,3.2623,3.1076,3.0499,2.9509,2.8201,2.7622,2.729,2.6876,2.6698,2.6576,2.6468,2.6332,2.6183,2.6115,2.6074,2.6006,2.602,2.6074,2.6074,2.6115,2.6169,2.6264,2.6346,2.6454,2.6413,2.6318,2.6224,2.6264,2.621,2.6129,2.621,2.6278,2.6278,2.6251,2.6169,2.6101,2.6047,2.602,2.5993,2.5979,2.5993,2.614,2.6193,2.5925,2.7179,2.9941,3.1912,3.4743,3.7028,3.9068,4.0824,4.207,4.2146,4.0527,3.8283,3.5553,3.3334,3.1565,3.0133,2.812,2.6026,2.8011,2.9816,3.1241,3.2698,3.2386,3.1052,2.9953,2.987,3.0171,3.1453,3.2607,3.3293,3.3939,3.4527,3.4734,3.356,3.1323,2.9717,2.8471,2.7308,2.6316,2.5696,2.5382,2.5464,2.5518,2.5586,2.5667,2.5762,2.5762,2.5776,2.5803,2.5857,2.5844,2.5789,2.5735,4.2142,4.197,4.1927,4.1798,4.1669,4.1819,4.1798,4.1568,4.1183,4.0172,3.8462,3.8339,3.8155,3.6147,3.582,3.4838,3.3362,3.1899,2.9922,2.8201,2.8449,2.7953,2.7622,2.7373,2.6973,2.6793,2.678,2.6698,2.6536,2.6413,2.6346,2.6264,2.6061,2.6021,2.6074,2.5967,2.5885,2.5899,2.5979,2.6006,2.6074,2.6183,2.6346,2.6318,2.6237,2.6251,2.6251,2.6074,2.6142,2.6251,2.6346,2.6318,2.6237,2.6169,2.6101,2.602,2.5993,2.602,2.6006,2.6006,2.6006,2.6006,2.5979,2.6058,2.7644,2.7644,3.0244,3.2546,3.4585,3.6713,3.7772,3.7575,3.6288,3.3163,3.0273,2.9089,2.7716,2.7441,2.6643,2.7528,2.9626,3.1192,3.2578,3.3608,3.4209,3.2303,2.95,2.9187,2.8521,2.9337,3.0073,3.0457,3.0917,3.0402,3.0224,3.06,2.9002,2.7314,2.633,2.6191,2.5968,2.5741,2.5532,2.5708,2.5762,2.5817,2.5898,2.6006,2.6034,2.6047,2.6061,2.6074,2.6061,2.6034,2.5966]},{"header":{"parameterUnit":"m.s-1","parameterCategory":1,"la1":31.0,"la2":29.5877,"lo1":-88.7671,"lo2":-86.6584,"dy":0.0162,"dx":0.0185,"nx":115,"ny":88,"refTime":"2023-11-14T06:00:00:Z","depth":0,"parameterNumber":3,"parameterNumberName":"V-component_of_WINDS"},"data":[0.0,0.0,0.0,0.0,0.0,0.0,0.0,0.0,0.0,0.0,0.0,0.0,0.0,0.0,0.0,0.0,0.0,0.0,0.0,0.0,0.0,0.0,0.0,0.0,0.0,0.0,0.0,0.0,0.0,0.0,0.0,0.0,0.0,0.0,0.0,0.0,0.0,0.0,0.0,0.0,0.0,0.0,0.0,0.0,0.0,0.0,0.0,0.0,0.0,0.0,0.0,0.0,0.0,0.0,0.0,0.0,0.0,0.0,0.0,0.0,0.0,0.0,0.0,0.0,0.0,0.0,0.0,0.0,0.0,0.0,0.0,0.0,0.0,0.0,0.0,0.0,0.0,0.0,0.0,0.0,0.0,0.0,0.0,0.0,0.0,0.0,0.0,0.0,0.0,0.0,0.0,0.0,0.0,0.0,0.0,0.0,0.0,0.0,0.0,0.0,0.0,0.0,0.0,0.0,0.0,0.0,0.0,0.0,0.0,0.0,0.0,0.0,0.0,0.0,0.0,0.0,0.0,0.0,0.0,0.0,0.0,0.0,0.0,0.0,0.0,0.0,0.0,0.0,0.0,0.0,0.0,0.0,0.0,0.0,0.0,0.0,0.0,0.0,0.0,0.0,0.0,0.0,0.0,0.0,0.0,0.0,0.0,0.0,0.0,0.0,0.0,0.0,0.0,0.0,0.0,0.0,0.0,0.0,0.0,0.0,0.0,0.0,0.0,0.0,0.0,0.0,0.0,0.0,0.0,0.0,0.0,0.0,0.0,0.0,0.0,0.0,0.0,0.0,0.0,0.0,0.0,0.0,0.0,0.0,0.0,0.0,0.0,0.0,0.0,0.0,0.0,0.0,0.0,0.0,0.0,0.0,0.0,0.0,0.0,0.0,0.0,0.0,0.0,0.0,0.0,0.0,0.0,0.0,0.0,0.0,0.0,0.0,0.0,0.0,0.0,0.0,0.0,0.0,0.0,0.0,0.0,0.0,0.0,0.0,0.0,0.0,0.0,0.0,0.0,0.0,0.0,0.0,0.0,0.0,0.0,0.0,0.0,0.0,0.0,0.0,0.0,0.0,0.0,0.0,0.0,0.0,0.0,0.0,0.0,0.0,0.0,0.0,0.0,0.0,0.0,0.0,0.0,0.0,0.0,0.0,0.0,0.0,0.0,0.0,0.0,0.0,0.0,0.0,0.0,0.0,0.0,0.0,0.0,0.0,0.0,0.0,0.0,0.0,0.0,0.0,0.0,0.0,0.0,0.0,0.0,0.0,0.0,0.0,0.0,0.0,0.0,0.0,0.0,0.0,0.0,0.0,0.0,0.0,0.0,0.0,0.0,0.0,0.0,0.0,0.0,0.0,0.0,0.0,0.0,0.0,0.0,0.0,0.0,0.0,0.0,0.0,0.0,0.0,0.0,0.0,0.0,0.0,0.0,0.0,0.0,0.0,0.0,0.0,0.0,0.0,0.0,0.0,0.0,0.0,0.0,0.0,0.0,0.0,0.0,0.0,0.0,0.0,0.0,0.0,0.0,0.0,0.0,0.0,0.0,0.0,0.0,0.0,0.0,0.0,0.0,0.0,0.0,0.0,0.0,0.0,0.0,0.0,0.0,0.0,0.0,0.0,0.0,0.0,0.0,0.0,0.0,0.0,0.0,0.0,0.0,0.0,0.0,0.0,0.0,0.0,0.0,0.0,0.0,0.0,0.0,0.0,0.0,0.0,0.0,0.0,0.0,0.0,0.0,0.0,0.0,0.0,0.0,0.0,0.0,0.0,0.0,0.0,0.0,0.0,0.0,0.0,0.0,0.0,0.0,0.0,0.0,0.0,0.0,0.0,0.0,0.0,0.0,0.0,0.0,0.0,0.0,0.0,0.0,0.0,0.0,0.0,0.0,0.0,0.0,0.0,0.0,0.0,0.0,0.0,0.0,0.0,0.0,0.0,0.0,0.0,0.0,0.0,0.0,0.0,0.0,0.0,0.0,0.0,0.0,0.0,0.0,0.0,0.0,0.0,0.0,0.0,0.0,0.0,0.0,0.0,0.0,0.0,0.0,0.0,0.0,0.0,0.0,0.0,0.0,0.0,0.0,0.0,0.0,0.0,0.0,0.0,0.0,0.0,0.0,0.0,0.0,0.0,0.0,0.0,0.0,0.0,0.0,0.0,0.0,0.0,0.0,0.0,0.0,0.0,0.0,0.0,0.0,0.0,0.0,0.0,0.0,0.0,0.0,0.0,0.0,0.0,0.0,0.0,0.0,0.0,0.0,0.0,0.0,0.0,0.0,0.0,0.0,0.0,0.0,0.0,0.0,0.0,0.0,0.0,0.0,0.0,0.0,0.0,0.0,0.0,0.0,0.0,0.0,0.0,0.0,0.0,0.0,0.0,0.0,0.0,0.0,0.0,0.0,0.0,0.0,0.0,0.0,0.0,0.0,0.0,0.0,0.0,0.0,0.0,0.0,0.0,0.0,0.0,0.0,0.0,0.0,0.0,0.0,0.0,0.0,0.0,0.0,0.0,0.0,0.0,0.0,0.0,0.0,0.0,0.0,0.0,0.0,0.0,0.0,0.0,0.0,0.0,0.0,0.0,0.0,0.0,0.0,0.0,0.0,0.0,0.0,0.0,0.0,0.0,0.0,0.0,0.0,0.0,0.0,0.0,0.0,0.0,0.0,0.0,0.0,0.0,0.0,0.0,0.0,0.0,0.0,0.0,0.0,0.0,0.0,0.0,0.0,0.0,0.0,0.0,0.0,0.0,0.0,0.0,0.0,0.0,0.0,0.0,0.0,0.0,0.0,0.0,0.0,0.0,0.0,0.0,0.0,0.0,0.0,0.0,0.0,0.0,0.0,0.0,0.0,0.0,0.0,0.0,0.0,0.0,0.0,0.0,0.0,0.0,0.0,0.0,0.0,0.0,0.0,0.0,0.0,0.0,0.0,0.0,0.0,0.0,0.0,0.0,0.0,0.0,0.0,0.0,0.0,0.0,0.0,0.0,0.0,0.0,0.0,0.0,0.0,0.0,0.0,0.0,0.0,0.0,0.0,0.0,0.0,0.0,0.0,0.0,0.0,0.0,0.0,0.0,0.0,0.0,0.0,0.0,0.0,0.0,0.0,0.0,0.0,0.0,0.0,0.0,0.0,0.0,0.0,0.0,0.0,0.0,0.0,0.0,0.0,0.0,0.0,0.0,0.0,0.0,0.0,0.0,0.0,0.0,0.0,0.0,0.0,0.0,0.0,0.0,0.0,0.0,0.0,0.0,0.0,0.0,0.0,0.0,0.0,0.0,0.0,0.0,0.0,0.0,0.0,0.0,0.0,0.0,0.0,0.0,0.0,0.0,0.0,0.0,0.0,0.0,0.0,0.0,0.0,0.0,0.0,0.0,0.0,0.0,0.0,0.0,0.0,0.0,0.0,0.0,0.0,0.0,0.0,0.0,0.0,0.0,0.0,0.0,0.0,0.0,0.0,0.0,0.0,0.0,0.0,0.0,0.0,0.0,0.0,0.0,0.0,0.0,0.0,0.0,0.0,0.0,0.0,0.0,0.0,0.0,0.0,0.0,0.0,0.0,0.0,0.0,0.0,0.0,0.0,0.0,0.0,0.0,0.0,0.0,0.0,0.0,0.0,0.0,0.0,0.0,0.0,0.0,0.0,0.0,0.0,0.0,0.0,0.0,0.0,0.0,0.0,0.0,0.0,0.0,0.0,0.0,0.0,0.0,0.0,0.0,0.0,0.0,0.0,0.0,0.0,0.0,0.0,0.0,0.0,0.0,0.0,0.0,0.0,0.0,0.0,0.0,0.0,0.0,0.0,0.0,0.0,0.0,0.0,0.0,0.0,0.0,0.0,0.0,0.0,0.0,0.0,0.0,0.0,0.0,0.0,0.0,0.0,0.0,0.0,0.0,0.0,0.0,0.0,0.0,0.0,0.0,0.0,0.0,0.0,0.0,0.0,0.0,0.0,0.0,0.0,0.0,0.0,0.0,0.0,0.0,0.0,0.0,0.0,0.0,0.0,0.0,0.0,0.0,0.0,0.0,0.0,0.0,0.0,0.0,0.0,0.0,0.0,0.0,0.0,0.0,0.0,0.0,0.0,0.0,0.0,0.0,0.0,0.0,0.0,0.0,0.0,0.0,0.0,0.0,0.0,0.0,0.0,0.0,0.0,0.0,0.0,0.0,0.0,0.0,0.0,0.0,0.0,0.0,0.0,0.0,0.0,0.0,0.0,0.0,0.0,0.0,0.0,0.0,0.0,0.0,0.0,0.0,0.0,0.0,7.2287,0.0,0.0,0.0,0.0,0.0,0.0,0.0,0.0,0.0,0.0,0.0,0.0,0.0,0.0,0.0,0.0,0.0,0.0,0.0,0.0,0.0,0.0,0.0,0.0,0.0,0.0,0.0,0.0,0.0,0.0,0.0,0.0,0.0,0.0,0.0,0.0,0.0,0.0,0.0,0.0,0.0,0.0,0.0,0.0,0.0,0.0,0.0,0.0,0.0,0.0,0.0,0.0,0.0,0.0,0.0,0.0,0.0,0.0,0.0,0.0,0.0,0.0,0.0,0.0,0.0,0.0,0.0,0.0,0.0,0.0,0.0,0.0,0.0,0.0,0.0,0.0,0.0,0.0,0.0,0.0,0.0,0.0,0.0,0.0,0.0,0.0,0.0,0.0,0.0,0.0,0.0,0.0,0.0,0.0,0.0,0.0,0.0,0.0,0.0,0.0,0.0,0.0,0.0,0.0,0.0,0.0,0.0,0.0,0.0,0.0,6.7886,6.925,6.9867,7.0978,7.2615,0.0,0.0,0.0,0.0,0.0,0.0,0.0,0.0,0.0,0.0,0.0,0.0,0.0,0.0,0.0,0.0,0.0,0.0,0.0,0.0,0.0,0.0,0.0,0.0,0.0,0.0,0.0,0.0,0.0,0.0,0.0,0.0,0.0,0.0,0.0,0.0,0.0,0.0,0.0,0.0,0.0,0.0,0.0,0.0,0.0,0.0,0.0,0.0,0.0,0.0,0.0,0.0,0.0,0.0,0.0,0.0,0.0,0.0,0.0,0.0,0.0,0.0,0.0,0.0,0.0,0.0,0.0,0.0,0.0,0.0,0.0,0.0,0.0,0.0,0.0,0.0,0.0,0.0,0.0,0.0,0.0,0.0,0.0,0.0,0.0,0.0,0.0,0.0,0.0,0.0,0.0,0.0,0.0,0.0,0.0,0.0,0.0,0.0,0.0,0.0,0.0,0.0,0.0,0.0,0.0,0.0,0.0,0.0,0.0,0.0,0.0,0.0,7.0215,7.1218,7.2919,0.0,0.0,0.0,0.0,0.0,0.0,0.0,0.0,0.0,0.0,0.0,0.0,0.0,0.0,0.0,0.0,0.0,0.0,0.0,0.0,0.0,0.0,0.0,0.0,0.0,0.0,0.0,0.0,0.0,0.0,0.0,0.0,0.0,0.0,0.0,0.0,0.0,0.0,0.0,0.0,0.0,0.0,0.0,0.0,0.0,0.0,0.0,0.0,0.0,0.0,0.0,0.0,0.0,0.0,0.0,0.0,0.0,0.0,0.0,0.0,0.0,0.0,0.0,0.0,0.0,0.0,0.0,0.0,0.0,0.0,0.0,0.0,0.0,0.0,0.0,0.0,0.0,0.0,0.0,0.0,0.0,0.0,0.0,0.0,0.0,0.0,0.0,0.0,0.0,0.0,0.0,0.0,0.0,0.0,0.0,0.0,0.0,0.0,0.0,0.0,0.0,0.0,0.0,0.0,0.0,0.0,0.0,0.0,0.0,0.0,6.8098,6.9662,7.0364,0.0,7.3661,0.0,0.0,0.0,0.0,0.0,0.0,0.0,0.0,0.0,0.0,0.0,0.0,0.0,0.0,0.0,0.0,0.0,0.0,0.0,0.0,0.0,0.0,0.0,0.0,0.0,0.0,0.0,0.0,0.0,0.0,0.0,0.0,0.0,0.0,0.0,0.0,0.0,0.0,0.0,0.0,0.0,0.0,0.0,0.0,0.0,0.0,0.0,0.0,0.0,0.0,0.0,0.0,0.0,0.0,0.0,0.0,0.0,0.0,0.0,0.0,0.0,0.0,0.0,0.0,0.0,0.0,0.0,0.0,0.0,0.0,0.0,0.0,0.0,0.0,0.0,0.0,0.0,0.0,0.0,0.0,0.0,0.0,0.0,0.0,0.0,0.0,0.0,0.0,0.0,0.0,0.0,0.0,0.0,0.0,0.0,0.0,0.0,0.0,0.0,0.0,0.0,0.0,0.0,0.0,0.0,0.0,0.0,0.0,0.0,0.0,6.9308,6.9328,7.0968,7.2892,0.0,0.0,0.0,0.0,0.0,0.0,0.0,0.0,0.0,0.0,0.0,0.0,0.0,0.0,0.0,0.0,0.0,0.0,0.0,0.0,0.0,0.0,0.0,0.0,0.0,0.0,0.0,0.0,0.0,0.0,0.0,0.0,0.0,0.0,0.0,0.0,0.0,0.0,0.0,0.0,0.0,0.0,0.0,0.0,0.0,0.0,0.0,0.0,0.0,0.0,0.0,0.0,0.0,0.0,0.0,0.0,0.0,0.0,0.0,0.0,0.0,0.0,0.0,0.0,0.0,0.0,0.0,0.0,0.0,0.0,0.0,0.0,0.0,0.0,0.0,0.0,0.0,0.0,0.0,0.0,0.0,0.0,0.0,0.0,0.0,0.0,0.0,0.0,0.0,0.0,0.0,0.0,0.0,0.0,0.0,0.0,0.0,0.0,0.0,0.0,0.0,0.0,0.0,0.0,0.0,0.0,0.0,0.0,0.0,0.0,6.9324,6.9552,6.9324,7.167,7.3807,7.5327,0.0,0.0,0.0,0.0,0.0,0.0,0.0,0.0,0.0,0.0,0.0,0.0,0.0,0.0,0.0,0.0,0.0,0.0,0.0,0.0,0.0,0.0,0.0,0.0,0.0,0.0,0.0,0.0,0.0,0.0,0.0,0.0,0.0,0.0,0.0,0.0,0.0,0.0,0.0,0.0,0.0,0.0,0.0,0.0,0.0,0.0,0.0,0.0,0.0,0.0,0.0,0.0,0.0,0.0,0.0,0.0,0.0,0.0,0.0,0.0,0.0,0.0,0.0,0.0,0.0,0.0,0.0,0.0,0.0,0.0,0.0,0.0,0.0,0.0,0.0,0.0,0.0,0.0,0.0,0.0,0.0,0.0,0.0,0.0,0.0,0.0,0.0,0.0,0.0,0.0,0.0,0.0,0.0,0.0,0.0,0.0,0.0,0.0,0.0,0.0,0.0,0.0,0.0,0.0,0.0,0.0,0.0,0.0,6.8585,6.7618,6.78,6.9484,7.2321,7.3848,0.0,0.0,0.0,0.0,0.0,0.0,0.0,0.0,0.0,0.0,0.0,0.0,0.0,0.0,0.0,0.0,0.0,0.0,0.0,0.0,0.0,0.0,0.0,0.0,0.0,0.0,0.0,0.0,0.0,0.0,0.0,0.0,0.0,0.0,0.0,0.0,0.0,0.0,0.0,0.0,0.0,0.0,0.0,0.0,0.0,0.0,0.0,0.0,0.0,0.0,0.0,0.0,0.0,0.0,0.0,0.0,0.0,0.0,0.0,0.0,0.0,0.0,0.0,0.0,0.0,0.0,0.0,0.0,0.0,0.0,0.0,0.0,0.0,0.0,0.0,0.0,0.0,0.0,0.0,0.0,0.0,0.0,0.0,0.0,0.0,0.0,0.0,0.0,0.0,0.0,0.0,0.0,0.0,0.0,0.0,0.0,0.0,0.0,0.0,0.0,0.0,0.0,0.0,0.0,0.0,0.0,0.0,0.0,0.0,6.6566,6.6636,6.7978,7.0508,7.118,7.2626,0.0,0.0,0.0,0.0,0.0,0.0,0.0,0.0,0.0,0.0,0.0,0.0,0.0,0.0,0.0,0.0,0.0,0.0,0.0,0.0,0.0,0.0,0.0,0.0,0.0,0.0,0.0,0.0,0.0,0.0,0.0,0.0,0.0,0.0,0.0,0.0,0.0,0.0,0.0,0.0,0.0,0.0,0.0,0.0,0.0,0.0,0.0,0.0,0.0,0.0,0.0,0.0,0.0,0.0,0.0,0.0,0.0,0.0,0.0,0.0,0.0,0.0,0.0,0.0,0.0,0.0,0.0,0.0,0.0,0.0,0.0,0.0,0.0,0.0,0.0,0.0,0.0,0.0,0.0,0.0,0.0,0.0,0.0,0.0,0.0,0.0,0.0,0.0,0.0,0.0,0.0,0.0,0.0,0.0,0.0,0.0,0.0,0.0,0.0,0.0,0.0,0.0,0.0,0.0,0.0,0.0,0.0,0.0,0.0,6.5864,0.0,6.8347,7.0754,7.0861,7.2298,0.0,0.0,0.0,0.0,0.0,0.0,0.0,0.0,0.0,0.0,0.0,0.0,0.0,0.0,0.0,0.0,0.0,0.0,0.0,0.0,0.0,0.0,0.0,0.0,0.0,0.0,0.0,0.0,0.0,0.0,0.0,0.0,0.0,0.0,0.0,0.0,0.0,0.0,0.0,0.0,0.0,0.0,0.0,0.0,0.0,0.0,0.0,0.0,0.0,0.0,0.0,0.0,0.0,0.0,0.0,0.0,0.0,0.0,0.0,0.0,0.0,0.0,0.0,0.0,0.0,0.0,0.0,0.0,0.0,0.0,0.0,0.0,0.0,0.0,0.0,0.0,0.0,0.0,0.0,0.0,0.0,0.0,0.0,0.0,0.0,0.0,0.0,0.0,0.0,0.0,0.0,0.0,0.0,0.0,0.0,0.0,0.0,0.0,0.0,0.0,0.0,0.0,0.0,0.0,0.0,0.0,0.0,0.0,6.6878,6.6851,6.7806,6.9019,7.0181,7.1665,7.3004,0.0,0.0,0.0,0.0,0.0,0.0,0.0,0.0,0.0,0.0,0.0,0.0,0.0,0.0,0.0,0.0,0.0,0.0,0.0,0.0,0.0,0.0,0.0,0.0,0.0,0.0,0.0,0.0,0.0,0.0,0.0,0.0,0.0,0.0,0.0,0.0,0.0,0.0,0.0,0.0,0.0,0.0,0.0,0.0,0.0,0.0,0.0,0.0,0.0,0.0,0.0,0.0,0.0,0.0,0.0,0.0,0.0,0.0,0.0,0.0,0.0,0.0,0.0,0.0,0.0,0.0,0.0,0.0,0.0,0.0,0.0,0.0,0.0,0.0,0.0,0.0,0.0,0.0,0.0,0.0,0.0,0.0,0.0,0.0,0.0,0.0,0.0,0.0,0.0,0.0,0.0,0.0,0.0,0.0,0.0,0.0,0.0,0.0,0.0,0.0,0.0,0.0,0.0,0.0,0.0,0.0,0.0,0.0,0.0,6.9596,7.1229,7.2209,7.252,7.3122,7.3573,0.0,0.0,0.0,0.0,0.0,0.0,0.0,0.0,0.0,0.0,0.0,0.0,0.0,0.0,0.0,0.0,0.0,0.0,0.0,0.0,0.0,0.0,0.0,0.0,0.0,0.0,0.0,0.0,0.0,0.0,0.0,0.0,0.0,0.0,0.0,0.0,0.0,0.0,0.0,0.0,0.0,0.0,0.0,0.0,0.0,0.0,0.0,0.0,0.0,0.0,0.0,0.0,0.0,0.0,0.0,0.0,0.0,0.0,0.0,0.0,0.0,0.0,0.0,0.0,0.0,0.0,0.0,0.0,0.0,0.0,0.0,0.0,0.0,0.0,0.0,0.0,0.0,0.0,0.0,0.0,0.0,0.0,0.0,0.0,0.0,0.0,0.0,0.0,0.0,0.0,0.0,0.0,0.0,0.0,0.0,0.0,0.0,0.0,0.0,0.0,0.0,0.0,0.0,0.0,0.0,0.0,0.0,0.0,0.0,7.3274,7.4523,7.515,7.4995,7.5139,7.5072,7.4868,0.0,0.0,0.0,0.0,0.0,0.0,0.0,0.0,0.0,0.0,0.0,0.0,0.0,0.0,0.0,0.0,0.0,0.0,0.0,0.0,0.0,0.0,0.0,0.0,0.0,0.0,0.0,0.0,0.0,0.0,0.0,0.0,0.0,0.0,0.0,0.0,0.0,0.0,0.0,0.0,0.0,0.0,0.0,0.0,0.0,0.0,0.0,0.0,0.0,0.0,0.0,0.0,0.0,0.0,0.0,0.0,0.0,0.0,0.0,0.0,0.0,0.0,0.0,0.0,0.0,0.0,0.0,0.0,0.0,0.0,0.0,0.0,0.0,0.0,0.0,0.0,0.0,0.0,0.0,0.0,0.0,0.0,0.0,0.0,0.0,0.0,0.0,0.0,0.0,0.0,0.0,0.0,0.0,0.0,0.0,0.0,0.0,0.0,0.0,0.0,0.0,0.0,0.0,0.0,0.0,0.0,0.0,0.0,7.754,7.7725,7.7818,7.7739,7.7685,7.7362,0.0,0.0,0.0,0.0,0.0,0.0,0.0,0.0,0.0,0.0,0.0,0.0,0.0,0.0,0.0,0.0,0.0,0.0,0.0,0.0,0.0,0.0,0.0,0.0,0.0,0.0,0.0,0.0,0.0,0.0,0.0,0.0,0.0,0.0,0.0,0.0,0.0,0.0,0.0,0.0,0.0,0.0,0.0,0.0,0.0,0.0,0.0,0.0,0.0,0.0,0.0,0.0,0.0,0.0,0.0,0.0,0.0,0.0,0.0,0.0,0.0,0.0,0.0,0.0,0.0,0.0,0.0,0.0,0.0,0.0,0.0,0.0,0.0,0.0,0.0,0.0,0.0,0.0,0.0,0.0,0.0,0.0,0.0,0.0,0.0,0.0,0.0,0.0,0.0,0.0,0.0,0.0,0.0,0.0,0.0,0.0,0.0,0.0,0.0,0.0,0.0,0.0,0.0,0.0,0.0,0.0,0.0,0.0,0.0,7.9373,8.185,8.2589,8.1444,8.1077,7.9652,0.0,0.0,0.0,0.0,0.0,0.0,0.0,0.0,0.0,0.0,0.0,0.0,0.0,0.0,0.0,0.0,0.0,0.0,0.0,0.0,0.0,0.0,0.0,0.0,0.0,0.0,0.0,0.0,0.0,0.0,0.0,0.0,0.0,0.0,0.0,0.0,0.0,0.0,0.0,0.0,0.0,0.0,0.0,0.0,0.0,0.0,0.0,0.0,0.0,0.0,0.0,0.0,0.0,0.0,0.0,0.0,0.0,0.0,0.0,0.0,0.0,0.0,0.0,0.0,0.0,0.0,0.0,0.0,0.0,0.0,0.0,0.0,0.0,0.0,0.0,0.0,0.0,0.0,0.0,0.0,0.0,0.0,0.0,0.0,0.0,0.0,0.0,0.0,0.0,0.0,0.0,0.0,0.0,0.0,0.0,0.0,0.0,0.0,0.0,0.0,0.0,0.0,0.0,0.0,0.0,0.0,0.0,0.0,7.997,8.1009,8.4311,8.573,8.4948,8.42,8.2246,0.0,0.0,0.0,0.0,0.0,0.0,0.0,0.0,0.0,0.0,0.0,0.0,0.0,0.0,0.0,0.0,0.0,0.0,0.0,0.0,0.0,0.0,0.0,0.0,0.0,0.0,0.0,0.0,0.0,0.0,0.0,0.0,0.0,0.0,0.0,0.0,0.0,0.0,0.0,0.0,0.0,0.0,0.0,0.0,0.0,0.0,0.0,0.0,0.0,0.0,0.0,0.0,0.0,0.0,0.0,0.0,0.0,0.0,0.0,0.0,0.0,0.0,0.0,0.0,0.0,0.0,0.0,0.0,0.0,0.0,0.0,0.0,0.0,0.0,0.0,0.0,0.0,0.0,0.0,0.0,0.0,0.0,0.0,0.0,0.0,0.0,0.0,0.0,0.0,0.0,0.0,0.0,0.0,0.0,0.0,0.0,0.0,0.0,0.0,0.0,0.0,0.0,0.0,0.0,0.0,0.0,0.0,0.0,8.2386,8.2535,8.5818,8.7637,8.7889,8.6902,8.4683,0.0,0.0,0.0,0.0,0.0,0.0,0.0,0.0,0.0,0.0,0.0,0.0,0.0,0.0,0.0,0.0,0.0,0.0,0.0,0.0,0.0,0.0,0.0,0.0,0.0,0.0,0.0,0.0,0.0,0.0,0.0,0.0,0.0,0.0,0.0,0.0,0.0,0.0,0.0,0.0,0.0,0.0,0.0,0.0,0.0,0.0,0.0,0.0,0.0,0.0,0.0,0.0,0.0,0.0,0.0,0.0,0.0,0.0,0.0,0.0,0.0,0.0,0.0,0.0,0.0,0.0,0.0,0.0,0.0,0.0,0.0,0.0,0.0,0.0,0.0,0.0,0.0,0.0,0.0,0.0,0.0,0.0,0.0,0.0,0.0,0.0,0.0,0.0,0.0,0.0,0.0,0.0,0.0,0.0,0.0,0.0,0.0,0.0,0.0,0.0,0.0,0.0,0.0,0.0,0.0,0.0,0.0,0.0,8.3109,8.4535,8.7002,8.8389,8.844,8.763,8.5949,0.0,0.0,0.0,0.0,0.0,0.0,0.0,0.0,0.0,0.0,0.0,0.0,0.0,0.0,0.0,0.0,0.0,0.0,0.0,0.0,0.0,0.0,0.0,0.0,0.0,0.0,0.0,0.0,0.0,0.0,0.0,0.0,0.0,0.0,0.0,0.0,0.0,0.0,0.0,0.0,0.0,0.0,0.0,0.0,0.0,0.0,0.0,0.0,7.9904,0.0,0.0,0.0,0.0,0.0,0.0,0.0,0.0,0.0,0.0,0.0,0.0,0.0,0.0,0.0,0.0,0.0,0.0,0.0,0.0,0.0,0.0,0.0,0.0,0.0,0.0,0.0,0.0,0.0,0.0,0.0,0.0,0.0,0.0,0.0,0.0,0.0,0.0,0.0,0.0,0.0,0.0,0.0,0.0,0.0,0.0,0.0,0.0,0.0,0.0,0.0,0.0,0.0,0.0,0.0,0.0,0.0,0.0,0.0,8.4735,8.6752,8.795,8.8777,8.9053,8.8364,8.7053,0.0,0.0,0.0,0.0,0.0,0.0,0.0,0.0,0.0,0.0,0.0,0.0,0.0,0.0,0.0,0.0,0.0,0.0,0.0,0.0,0.0,0.0,0.0,0.0,0.0,0.0,0.0,0.0,0.0,0.0,0.0,0.0,0.0,0.0,0.0,0.0,0.0,0.0,0.0,0.0,0.0,0.0,0.0,0.0,0.0,0.0,0.0,0.0,0.0,0.0,0.0,0.0,0.0,0.0,0.0,0.0,0.0,0.0,0.0,0.0,0.0,0.0,0.0,0.0,0.0,0.0,0.0,0.0,0.0,0.0,0.0,0.0,0.0,0.0,0.0,0.0,0.0,0.0,0.0,0.0,0.0,0.0,0.0,0.0,0.0,0.0,0.0,0.0,0.0,0.0,0.0,0.0,0.0,0.0,0.0,0.0,0.0,0.0,0.0,0.0,0.0,0.0,0.0,0.0,0.0,0.0,0.0,8.4018,8.6639,8.8846,8.8915,8.9191,8.9674,8.9372,8.8404,8.6708,0.0,0.0,0.0,0.0,0.0,0.0,0.0,0.0,0.0,0.0,0.0,0.0,0.0,0.0,0.0,0.0,0.0,0.0,0.0,0.0,0.0,0.0,0.0,0.0,0.0,0.0,0.0,0.0,0.0,0.0,0.0,0.0,0.0,0.0,0.0,0.0,0.0,0.0,7.4223,7.6657,0.0,0.0,0.0,0.0,0.0,0.0,0.0,0.0,7.9431,0.0,0.0,0.0,0.0,0.0,0.0,0.0,0.0,0.0,0.0,0.0,0.0,0.0,0.0,0.0,0.0,0.0,0.0,0.0,0.0,0.0,0.0,0.0,0.0,0.0,0.0,0.0,0.0,0.0,0.0,0.0,0.0,0.0,0.0,0.0,0.0,0.0,0.0,0.0,0.0,0.0,0.0,0.0,0.0,0.0,0.0,0.0,0.0,0.0,0.0,0.0,0.0,0.0,0.0,0.0,0.0,8.3466,8.5811,8.8157,9.0364,9.0433,9.0226,8.9769,9.0986,9.0618,8.8302,0.0,0.0,0.0,0.0,0.0,0.0,0.0,0.0,0.0,0.0,0.0,0.0,0.0,0.0,0.0,0.0,0.0,0.0,0.0,0.0,0.0,0.0,0.0,0.0,0.0,0.0,0.0,0.0,0.0,0.0,0.0,0.0,0.0,0.0,0.0,0.0,0.0,0.0,0.0,7.9228,8.1122,0.0,0.0,0.0,0.0,0.0,0.0,0.0,0.0,8.0987,0.0,0.0,0.0,0.0,0.0,0.0,0.0,0.0,0.0,0.0,0.0,0.0,0.0,0.0,0.0,0.0,0.0,0.0,0.0,0.0,0.0,0.0,0.0,0.0,0.0,0.0,0.0,0.0,0.0,0.0,0.0,0.0,0.0,0.0,0.0,0.0,0.0,0.0,0.0,0.0,0.0,0.0,0.0,0.0,0.0,0.0,0.0,0.0,0.0,0.0,0.0,0.0,0.0,0.0,0.0,8.3442,8.6087,8.8708,9.133,9.1054,9.064,9.0295,8.9981,8.9382,0.0,0.0,0.0,0.0,0.0,0.0,0.0,0.0,0.0,0.0,0.0,0.0,0.0,0.0,0.0,0.0,0.0,0.0,0.0,0.0,0.0,0.0,0.0,0.0,0.0,0.0,0.0,0.0,0.0,0.0,0.0,0.0,0.0,0.0,0.0,0.0,0.0,0.0,0.0,0.0,8.1054,8.2543,8.2949,0.0,0.0,0.0,0.0,0.0,0.0,8.2205,8.2543,0.0,0.0,0.0,0.0,0.0,0.0,0.0,0.0,0.0,0.0,0.0,0.0,0.0,0.0,0.0,0.0,0.0,0.0,0.0,0.0,0.0,0.0,0.0,0.0,0.0,0.0,0.0,0.0,0.0,0.0,0.0,0.0,0.0,0.0,0.0,0.0,0.0,0.0,0.0,0.0,0.0,0.0,0.0,0.0,0.0,0.0,0.0,0.0,0.0,0.0,0.0,0.0,0.0,0.0,0.0,8.3397,8.6363,8.9191,9.1813,9.1192,9.0751,9.0778,8.9419,8.8682,0.0,0.0,0.0,0.0,0.0,0.0,0.0,0.0,0.0,0.0,0.0,0.0,0.0,0.0,0.0,0.0,0.0,0.0,0.0,0.0,0.0,0.0,0.0,0.0,0.0,0.0,0.0,0.0,0.0,0.0,0.0,0.0,0.0,0.0,0.0,0.0,0.0,0.0,0.0,0.0,0.0,8.3964,8.3964,8.4573,0.0,0.0,0.0,0.0,8.3402,8.3945,0.0,0.0,0.0,0.0,0.0,0.0,0.0,0.0,0.0,0.0,0.0,0.0,0.0,0.0,0.0,0.0,0.0,0.0,0.0,0.0,0.0,0.0,0.0,0.0,0.0,0.0,0.0,0.0,0.0,0.0,0.0,0.0,0.0,0.0,0.0,0.0,0.0,0.0,0.0,0.0,0.0,0.0,0.0,0.0,0.0,0.0,0.0,0.0,0.0,0.0,0.0,0.0,0.0,0.0,0.0,0.0,8.4984,8.7881,9.0295,9.1882,9.1192,9.0751,9.0804,9.2299,9.1645,0.0,0.0,0.0,0.0,0.0,0.0,0.0,0.0,0.0,0.0,0.0,0.0,0.0,0.0,0.0,0.0,0.0,0.0,0.0,0.0,0.0,0.0,0.0,0.0,0.0,0.0,0.0,0.0,0.0,0.0,0.0,0.0,0.0,0.0,0.0,0.0,0.0,0.0,0.0,0.0,0.0,8.5547,8.5547,8.6196,8.6549,0.0,0.0,8.4598,8.6836,8.723,0.0,0.0,0.0,0.0,0.0,0.0,0.0,0.0,0.0,0.0,0.0,0.0,0.0,0.0,0.0,0.0,0.0,0.0,0.0,0.0,0.0,0.0,0.0,0.0,0.0,0.0,0.0,0.0,0.0,0.0,0.0,0.0,0.0,0.0,0.0,0.0,0.0,0.0,0.0,0.0,0.0,0.0,0.0,0.0,0.0,0.0,0.0,0.0,0.0,0.0,0.0,0.0,0.0,0.0,0.0,8.3466,8.457,8.795,9.0433,9.1908,9.1749,9.1636,9.1494,9.2635,9.1906,0.0,0.0,0.0,0.0,0.0,0.0,0.0,0.0,0.0,0.0,0.0,0.0,0.0,0.0,0.0,0.0,0.0,0.0,0.0,0.0,0.0,0.0,0.0,0.0,0.0,0.0,0.0,0.0,0.0,0.0,0.0,0.0,0.0,0.0,0.0,0.0,0.0,0.0,0.0,0.0,0.0,0.0,8.6467,8.8297,0.0,0.0,0.0,8.7712,8.8708,0.0,0.0,0.0,0.0,0.0,0.0,0.0,0.0,0.0,0.0,0.0,0.0,0.0,0.0,0.0,0.0,0.0,0.0,0.0,0.0,0.0,0.0,0.0,0.0,0.0,0.0,0.0,0.0,0.0,0.0,0.0,0.0,0.0,0.0,0.0,0.0,0.0,0.0,0.0,0.0,0.0,0.0,0.0,0.0,0.0,0.0,0.0,0.0,0.0,0.0,0.0,0.0,0.0,0.0,0.0,0.0,0.0,8.4639,8.8157,9.064,9.1977,9.2138,9.2467,9.2859,9.3215,0.0,0.0,0.0,0.0,0.0,0.0,0.0,0.0,0.0,0.0,0.0,0.0,0.0,0.0,0.0,0.0,0.0,0.0,0.0,0.0,0.0,0.0,0.0,0.0,0.0,0.0,0.0,7.4515,0.0,0.0,0.0,0.0,0.0,0.0,0.0,0.0,0.0,0.0,0.0,0.0,0.0,0.0,8.7955,8.7753,9.0319,9.1585,0.0,0.0,9.0263,9.0534,9.0955,9.0791,0.0,0.0,0.0,0.0,0.0,0.0,0.0,0.0,0.0,0.0,0.0,0.0,0.0,0.0,0.0,0.0,0.0,0.0,0.0,0.0,0.0,0.0,0.0,0.0,0.0,0.0,0.0,0.0,0.0,0.0,0.0,0.0,0.0,0.0,0.0,0.0,0.0,0.0,0.0,0.0,0.0,0.0,0.0,0.0,0.0,0.0,0.0,0.0,0.0,0.0,0.0,0.0,0.0,0.0,0.0,8.6225,8.9191,9.1123,9.1977,9.203,9.3066,9.5082,9.5376,9.5061,0.0,0.0,0.0,0.0,0.0,0.0,0.0,0.0,0.0,0.0,0.0,0.0,0.0,0.0,0.0,0.0,0.0,0.0,0.0,0.0,0.0,0.0,0.0,0.0,0.0,0.0,0.0,0.0,0.0,0.0,0.0,0.0,0.0,0.0,0.0,0.0,0.0,0.0,0.0,0.0,0.0,8.8497,8.9782,9.1976,9.3515,0.0,0.0,9.1227,9.2816,9.3077,9.2583,9.0831,0.0,0.0,0.0,0.0,0.0,0.0,0.0,0.0,0.0,0.0,0.0,0.0,0.0,0.0,0.0,0.0,0.0,0.0,0.0,0.0,0.0,0.0,0.0,0.0,0.0,0.0,0.0,0.0,0.0,0.0,0.0,0.0,0.0,0.0,0.0,0.0,0.0,0.0,0.0,0.0,0.0,0.0,0.0,0.0,0.0,0.0,0.0,0.0,0.0,0.0,0.0,0.0,0.0,8.5466,8.6984,9.0433,9.2641,9.3597,9.4016,9.5001,9.6607,9.7772,9.7442,0.0,0.0,0.0,0.0,0.0,0.0,0.0,0.0,0.0,0.0,0.0,0.0,0.0,0.0,0.0,0.0,0.0,0.0,0.0,0.0,0.0,0.0,0.0,0.0,0.0,0.0,0.0,0.0,7.8132,7.9143,8.0628,0.0,0.0,0.0,0.0,0.0,0.0,0.0,0.0,0.0,0.0,9.0932,9.1445,9.365,0.0,0.0,9.3932,9.3344,9.4281,9.3259,9.1868,9.0259,8.887,0.0,0.0,0.0,0.0,0.0,0.0,0.0,0.0,0.0,0.0,0.0,0.0,0.0,0.0,0.0,0.0,0.0,0.0,0.0,0.0,0.0,0.0,0.0,0.0,0.0,0.0,0.0,0.0,0.0,0.0,0.0,0.0,0.0,0.0,0.0,0.0,0.0,0.0,0.0,0.0,0.0,0.0,0.0,0.0,0.0,0.0,0.0,0.0,0.0,0.0,0.0,0.0,8.6294,8.8433,9.1836,9.4051,9.4935,9.594,9.7133,9.8348,9.9634,9.9253,0.0,0.0,0.0,0.0,0.0,0.0,0.0,0.0,0.0,0.0,0.0,0.0,0.0,0.0,0.0,0.0,0.0,0.0,0.0,0.0,0.0,0.0,0.0,0.0,0.0,0.0,0.0,0.0,7.9995,8.0845,8.2247,0.0,0.0,0.0,0.0,0.0,0.0,0.0,0.0,0.0,0.0,9.333,9.3427,9.4968,9.6112,9.6105,9.5243,9.4768,9.5213,9.3991,9.24,9.0731,0.0,0.0,0.0,0.0,0.0,0.0,0.0,0.0,0.0,0.0,0.0,0.0,0.0,0.0,0.0,0.0,0.0,0.0,0.0,0.0,0.0,0.0,0.0,0.0,0.0,0.0,0.0,7.6111,0.0,0.0,7.6782,0.0,0.0,0.0,0.0,0.0,0.0,0.0,0.0,0.0,0.0,0.0,0.0,0.0,0.0,0.0,0.0,0.0,0.0,0.0,0.0,0.0,0.0,8.7053,9.0666,9.3377,9.5056,9.5854,9.7557,9.9205,10.0633,10.08,10.033,9.9235,0.0,0.0,0.0,0.0,0.0,0.0,0.0,0.0,0.0,0.0,0.0,0.0,0.0,0.0,0.0,0.0,0.0,0.0,0.0,0.0,0.0,0.0,0.0,0.0,0.0,0.0,8.1672,8.1551,8.1654,0.0,0.0,0.0,0.0,0.0,0.0,0.0,0.0,0.0,0.0,9.3771,9.5393,9.5645,9.5834,9.6203,9.6781,9.5699,9.5022,9.5699,9.5766,9.4924,0.0,0.0,0.0,0.0,0.0,0.0,0.0,0.0,0.0,0.0,0.0,0.0,0.0,0.0,0.0,0.0,0.0,0.0,0.0,0.0,0.0,0.0,0.0,0.0,0.0,0.0,0.0,8.1283,8.0012,0.0,0.0,0.0,0.0,0.0,0.0,0.0,0.0,0.0,0.0,0.0,9.0316,9.1925,0.0,0.0,0.0,0.0,0.0,0.0,0.0,0.0,0.0,0.0,0.0,0.0,8.9161,9.2513,9.5439,9.752,9.8582,9.954,10.0685,10.2056,10.1941,10.1444,10.0636,0.0,0.0,0.0,0.0,0.0,0.0,0.0,0.0,0.0,0.0,0.0,0.0,0.0,0.0,0.0,0.0,0.0,0.0,0.0,0.0,0.0,0.0,0.0,0.0,0.0,8.4191,0.0,0.0,0.0,0.0,0.0,0.0,0.0,0.0,0.0,0.0,0.0,9.2751,9.3541,9.6186,9.7613,9.6321,9.7605,9.8542,0.0,0.0,0.0,0.0,0.0,0.0,0.0,0.0,0.0,0.0,0.0,0.0,0.0,0.0,9.3442,9.1498,9.0128,8.9659,9.0895,0.0,0.0,0.0,0.0,0.0,0.0,0.0,0.0,0.0,0.0,0.0,0.0,0.0,0.0,8.4865,0.0,8.3919,0.0,0.0,0.0,0.0,0.0,0.0,0.0,0.0,9.164,9.342,9.3763,9.5444,9.6022,0.0,9.3657,9.1882,0.0,0.0,0.0,0.0,0.0,0.0,0.0,0.0,9.0174,9.3351,9.6569,9.8605,9.9474,10.103,10.2284,10.3161,10.2911,10.2067,10.054,9.8634,9.6572,0.0,0.0,0.0,0.0,0.0,0.0,0.0,0.0,0.0,0.0,0.0,0.0,0.0,0.0,0.0,0.0,0.0,0.0,0.0,0.0,0.0,0.0,0.0,8.6637,0.0,0.0,0.0,0.0,0.0,0.0,0.0,0.0,0.0,9.176,9.433,9.6665,9.7305,9.8885,9.9582,9.8587,0.0,0.0,0.0,0.0,0.0,0.0,0.0,9.7817,9.6625,9.5984,9.5645,9.5645,9.6978,9.8307,9.9051,0.0,0.0,9.5669,9.4112,9.3786,9.541,9.4679,9.4552,9.7046,9.7346,9.7279,0.0,0.0,0.0,0.0,0.0,0.0,0.0,0.0,8.7436,8.7492,0.0,8.6283,0.0,0.0,0.0,0.0,8.6526,8.8298,0.0,0.0,9.5311,9.7177,9.7034,9.8367,9.8814,9.8104,9.696,9.6089,9.5262,9.1054,0.0,0.0,0.0,0.0,0.0,0.0,9.0209,9.3323,9.6805,9.8634,9.8801,10.204,10.3859,10.3839,10.3635,10.222,9.9321,9.8519,9.6782,9.3796,9.2647,0.0,0.0,0.0,0.0,0.0,0.0,0.0,0.0,0.0,0.0,0.0,0.0,0.0,0.0,0.0,0.0,0.0,0.0,0.0,0.0,8.7812,0.0,0.0,0.0,0.0,0.0,0.0,0.0,0.0,0.0,0.0,9.685,9.8107,10.0138,10.2538,0.0,0.0,0.0,0.0,9.9958,10.2009,10.1835,10.1698,10.232,10.214,10.1445,9.9986,0.0,0.0,9.9713,10.0046,10.0603,10.1479,10.2253,10.1718,9.9029,9.7808,9.7801,9.9698,10.0638,10.1612,10.2802,10.3649,10.3788,9.2114,0.0,0.0,0.0,0.0,8.8379,8.9394,9.0548,9.2225,9.1998,9.0673,9.1511,0.0,0.0,0.0,0.0,0.0,0.0,9.3549,9.4972,9.7507,9.8216,9.7543,9.8652,9.8975,9.8597,9.7776,9.7566,9.7773,9.5979,9.3882,9.1537,0.0,0.0,0.0,0.0,9.3529,9.6879,9.913,10.0608,10.1493,10.3118,10.366,10.3072,10.3578,10.2912,10.0903,10.0016,9.8477,9.6339,9.4199,0.0,0.0,0.0,0.0,0.0,0.0,0.0,0.0,0.0,0.0,0.0,0.0,0.0,0.0,0.0,0.0,0.0,0.0,0.0,9.0157,9.0226,9.0252,0.0,0.0,0.0,0.0,0.0,0.0,0.0,0.0,0.0,10.3366,10.3013,10.3179,0.0,0.0,10.271,10.2287,10.2128,10.2128,10.2266,10.3474,0.0,10.3649,10.3457,10.3333,10.3183,10.2711,10.2507,10.3084,10.3231,10.3824,10.5432,10.5891,10.6164,10.6664,10.3837,10.2485,10.4605,10.5437,10.5873,10.6817,10.8062,10.8838,9.7524,9.3269,9.2339,9.1954,9.2082,9.2834,9.3781,9.5057,9.6275,9.6301,9.5503,9.5978,9.5166,9.3442,9.2885,0.0,0.0,0.0,9.6324,9.7525,9.9592,10.0245,9.9765,10.0688,10.1114,10.0999,10.0209,9.9902,10.0127,9.9624,9.8139,9.5757,0.0,0.0,9.3519,9.3657,9.535,9.8458,10.0204,10.1491,10.2582,10.34,10.366,10.3219,10.366,10.2876,10.0809,10.0631,9.9557,9.7437,9.581,9.3722,0.0,0.0,0.0,0.0,0.0,0.0,0.0,0.0,0.0,0.0,0.0,8.519,8.4087,0.0,0.0,0.0,8.8915,9.1675,9.3606,9.376,0.0,0.0,0.0,0.0,0.0,0.0,0.0,10.0657,10.3749,10.6015,10.6265,10.586,10.5664,10.6244,10.4884,10.3887,10.4124,0.0,10.3965,10.3983,10.5217,10.6145,10.5823,10.5754,10.5562,10.5015,10.4516,10.4603,10.5785,10.6191,10.7034,10.858,10.9324,11.0112,11.1849,10.9932,10.8408,10.956,11.0321,11.1099,11.2008,11.3016,11.3646,10.308,10.0903,9.8674,9.8069,9.8472,9.8402,9.8797,9.9569,9.9569,9.9991,10.0623,9.9707,9.9561,9.9902,9.7848,0.0,9.9526,9.8556,9.8565,9.9423,10.1841,10.3049,10.3131,10.4106,10.4641,10.468,10.3779,10.307,10.2493,10.2217,10.1394,10.0001,9.6559,9.5218,9.5962,9.5585,9.6546,9.8995,10.0704,10.1876,10.2632,10.3461,10.388,10.388,10.3806,10.2487,9.969,10.0563,10.0077,9.769,9.7287,9.592,9.3354,0.0,0.0,0.0,0.0,0.0,0.0,0.0,0.0,0.0,0.0,0.0,0.0,0.0,0.0,0.0,9.2333,0.0,9.6809,9.7743,0.0,0.0,0.0,9.954,9.8227,10.1627,10.3765,10.3084,0.0,0.0,10.6751,10.7121,10.7619,10.8296,10.5917,10.4877,10.7026,10.6055,10.5519,10.6352,10.692,10.7381,10.7835,10.8112,10.7704,10.6337,10.5685,10.6229,10.7962,10.8786,10.9867,11.1419,11.234,11.3329,11.4612,11.5157,11.5688,11.42,11.5039,11.6383,11.7174,11.7775,11.7931,10.6521,10.4878,10.4093,10.2369,10.0017,9.9359,9.992,10.1114,10.1184,10.1255,10.1519,10.2458,10.2811,10.2669,10.1618,10.1393,10.1843,10.1614,10.2274,10.3617,10.478,10.5838,10.6768,10.6989,10.712,10.7088,10.6341,10.5809,10.5636,10.3844,10.3033,10.3076,10.0579,9.8803,9.8053,9.9567,10.1026,10.2445,10.346,10.4078,10.4403,10.407,10.388,10.388,10.3293,10.2385,10.1131,10.0885,10.0133,9.8584,9.8069,9.674,9.4464,9.326,0.0,0.0,0.0,0.0,0.0,0.0,0.0,0.0,0.0,8.8501,8.7536,0.0,9.2226,0.0,9.4347,9.7611,10.0453,9.9953,0.0,0.0,10.2407,10.2848,10.3042,10.5747,10.7468,10.7322,10.823,10.8698,10.8419,10.828,10.8179,10.8327,10.7303,10.6878,10.8231,10.7425,10.664,10.6691,10.6766,10.6966,10.755,10.8304,10.8797,10.8701,10.858,10.9172,11.1049,11.1059,11.1488,11.3265,11.4318,11.5263,11.6406,11.7744,11.8475,11.8182,11.8179,11.8246,11.8569,11.9632,12.0471,10.9379,10.794,10.7995,10.6845,10.4871,10.2888,10.304,10.4616,10.4264,10.4419,10.4877,10.5617,10.6081,10.6245,10.5299,10.521,10.5785,10.5642,10.6208,10.7395,10.8307,10.9291,11.027,11.0084,10.9918,10.9893,10.9132,10.8594,10.8138,10.6556,10.5726,10.5798,10.4516,10.3217,10.2191,10.2643,10.3366,10.4369,10.5098,10.559,10.5621,10.4908,10.4248,10.3952,10.2855,10.1879,10.1104,10.0156,9.9388,9.8895,9.7948,9.6876,9.547,9.5017,9.4005,0.0,0.0,0.0,0.0,0.0,0.0,0.0,0.0,0.0,0.0,0.0,9.5411,9.6447,9.8848,10.1274,10.3441,10.3028,10.3077,10.4348,10.5048,10.5611,10.6004,10.8369,10.99,10.99,11.0285,11.0461,11.0291,10.9954,10.9849,11.0207,11.0335,10.9962,10.9051,10.8331,10.7784,10.7209,10.7228,10.7795,10.8687,10.9059,10.9516,11.0414,11.0596,11.117,11.2499,11.3173,11.3948,11.531,11.6551,11.7525,11.8224,11.9297,12.0178,12.0154,11.9961,11.9938,12.0279,12.1011,12.1669,11.1716,11.0597,11.089,11.1051,11.0824,10.7909,10.7407,10.8606,10.7798,10.8153,10.9223,10.8946,10.9273,10.9958,10.8853,10.8828,10.9715,10.9428,10.967,11.0562,11.177,11.2806,11.3607,11.3346,11.3127,11.3055,11.2224,11.1464,11.0743,10.9586,10.8743,10.8311,10.7926,10.7517,10.7083,10.5547,10.5116,10.5813,10.6429,10.667,10.667,10.5789,10.4979,10.4414,10.2914,10.1683,10.098,9.9681,9.9158,9.9365,9.8339,9.7496,9.707,9.7028,9.6646,0.0,9.59,0.0,0.0,0.0,0.0,0.0,0.0,0.0,0.0,9.5444,9.8606,10.2425,10.4001,10.5125,10.611,10.6269,10.6473,10.6787,10.7585,10.8159,10.8453,11.0267,11.1515,11.1515,11.1839,11.2011,11.1817,11.1723,11.1936,11.2354,11.3249,11.2976,11.0523,10.9958,10.9708,10.858,10.8675,10.9535,11.0624,11.0566,11.0803,11.1928,11.2525,11.2722,11.3462,11.4921,11.6308,11.7103,11.8198,11.9273,11.9443,12.0178,12.0838,12.0618,12.0814,12.1181,12.1622,12.1915,12.2086,11.3808,11.3364,11.3152,11.3234,11.3556,11.323,11.214,11.0562,10.9772,11.0257,11.1675,11.1626,11.2108,11.2643,11.1214,11.0482,11.047,11.03,11.0738,11.163,11.3753,11.5308,11.6372,11.694,11.725,11.7177,11.579,11.5011,11.4768,11.1406,11.0392,11.1409,10.957,10.9185,11.0278,0.0,0.0,0.0,10.8595,10.8358,10.8285,10.689,10.6407,10.6866,10.5305,0.0,10.3305,10.3295,10.3022,10.226,10.2855,0.0,0.0,0.0,0.0,0.0,0.0,0.0,0.0,0.0,0.0,0.0,10.1123,10.0235,9.8201,10.0897,10.3737,10.6005,10.6462,10.7372,10.9029,10.8573,10.905,11.0903,11.0744,11.1001,11.2271,11.2859,11.313,11.313,11.3005,11.2663,11.2156,11.2657,11.3089,11.3011,11.3902,11.4562,11.4264,11.401,11.3666,11.267,11.2052,11.1855,11.1427,11.2738,11.3504,11.4082,11.4969,11.5593,11.5454,11.6227,11.6933,11.7291,11.7975,11.8709,11.8709,11.9811,12.0691,12.0031,12.0936,12.1719,12.1279,12.1646,12.2086,11.673,11.6789,11.639,11.6418,0.0,11.6612,11.5931,11.4727,11.3744,11.3899,11.47,11.4358,11.4423,11.4722,11.4353,11.4049,11.3899,11.4267,11.4881,11.5655,11.6503,11.7395,11.8353,11.8373,11.8226,11.7817,11.7347,11.6761,11.5917,11.392,11.3189,11.3531,11.1947,11.1542,11.2376,11.2789,11.2176,11.0634,10.9386,10.8799,10.8725,10.7752,10.7067,10.7,10.5552,0.0,0.0,0.0,0.0,0.0,0.0,0.0,0.0,10.3022,0.0,10.2768,10.335,10.3853,10.4138,10.4866,10.5248,10.5012,10.6028,10.5572,10.278,10.5277,10.7449,10.851,10.9645,11.0581,11.1104,11.0781,11.1118,11.2331,11.2206,11.2279,11.3088,11.3897,11.4338,11.4463,11.4566,11.4747,11.4888,11.4996,11.56,11.6279,11.6763,11.7345,11.805,11.664,11.5082,11.4226,11.3343,11.3016,11.3319,11.3834,11.4909,11.5311,11.638,11.6914,11.6657,11.7608,11.8342,11.8416,11.9076,11.9664,11.9664,12.0324,12.0765,12.0398,12.0912,12.1572,12.1426,12.1793,12.2086,11.96,12.0049,11.9626,11.9552,11.9739,11.923,11.9003,11.8736,11.7547,0.0,0.0,11.6727,11.6434,11.6434,11.6954,11.7177,11.725,11.784,11.8523,11.9133,11.8741,11.8935,11.9546,11.9079,11.8449,11.7886,11.8351,11.7961,11.6648,11.6373,11.592,11.5406,11.4598,11.4254,11.4231,11.396,11.313,11.1808,11.012,10.9261,10.923,10.8498,10.7706,10.7053,10.5721,10.4975,10.4734,10.3464,10.3392,10.4579,10.3581,10.3267,10.3978,10.4728,10.5168,10.539,10.6685,10.7505,10.7485,10.8224,10.8614,10.8455,10.9946,10.9887,10.7318,10.901,11.0375,11.0656,11.2389,11.3124,11.2536,11.2463,11.2625,11.2939,11.3108,11.3256,11.3477,11.4582,11.5466,11.554,11.596,11.6712,11.7362,11.7289,11.7746,11.9349,11.9486,12.0036,12.0791,11.8594,11.6415,11.5825,11.5062,11.4461,11.5091,11.5497,11.5502,11.6267,11.719,11.766,11.7454,11.8413,11.9344,11.915,12.0104,12.0545,12.0838,12.0838,12.0912,12.0912,12.0912,12.1059,12.1743,12.1866,12.1866,12.1181,12.21,12.1422,12.1692,12.26,12.1891,12.1205,12.0374,11.8837,11.8201,11.8195,11.8122,11.8049,11.8002,11.7452,11.7204,11.7179,11.7289,11.7407,11.7506,11.8765,11.9435,11.9559,12.0231,12.0497,12.0327,11.9763,11.9323,11.8958,11.7708,11.7314,11.7755,11.7094,11.6654,11.658,11.5332,11.4525,11.4231,11.2029,11.0942,11.1064,10.9516,10.9032,10.9684,10.8256,10.711,10.6632,10.6545,10.6277,10.5953,10.6962,10.7291,10.6794,10.7445,10.7888,10.7746,10.8963,10.9566,10.9333,11.0128,11.082,11.132,11.2774,11.3161,11.1881,11.2227,11.2866,11.3338,11.322,11.2778,11.2631,11.2757,11.3234,11.4041,11.4727,11.5339,11.593,11.6225,11.6447,11.6425,11.6594,11.6668,11.7103,11.8012,11.8529,11.8729,12.0126,12.1315,12.1366,12.0546,11.9477,11.8764,11.8419,11.7751,11.694,11.762,11.7613,11.6794,11.7901,11.8203,11.6799,11.8005,11.8966,11.8683,11.9417,12.0152,12.0789,12.0912,12.0936,12.0936,12.0912,12.0985,12.1205,12.1205,12.1352,12.4218,12.4819,12.4069,12.3765,12.3922,12.3114,12.2527,12.216,12.157,12.0884,12.0446,12.0241,12.0217,12.0348,11.9812,11.9424,11.923,11.9449,11.9396,11.9242,12.001,12.0377,12.0351,12.0743,12.0912,12.0838,12.0471,12.0031,11.9517,11.8856,11.8489,11.8416,11.8049,11.7828,11.7828,11.7094,11.6645,11.6453,11.3852,11.2536,11.2625,11.1674,11.1076,11.0981,11.0034,10.9259,10.8547,10.8897,10.9011,10.8761,10.9401,10.9603,10.9353,10.9085,10.9085,10.9205,10.9675,10.9883,10.9957,11.109,11.2534,11.4062,11.4952,11.5524,11.585,11.4869,11.4331,11.4685,11.492,11.5045,11.4788,11.5105,11.5481,11.5755,11.6147,11.6517,11.6812,11.6886,11.6908,11.6886,11.6886,11.7321,11.8339,11.8339,11.9006,11.9992,12.14,12.197,12.197,12.1674,12.1215,12.0547,11.9853,11.9106,11.8314,11.8031,11.783,11.6982,11.7848,11.7982,11.6971,11.8181,11.9219,11.898,11.9768,12.0679,12.11,12.1053,12.1005,12.0936,12.0912,12.0985,12.1352,12.1499,12.1352,12.7253,12.7372,12.6785,12.5904,12.5023,12.4142,12.3799,12.3652,12.3697,12.3403,12.2792,12.2312,12.2195,12.2306,12.1974,12.1559,12.1228,12.1388,12.1194,12.096,12.1053,12.1029,12.0936,12.0912,12.0912,12.0912,12.0912,12.0545,11.9957,11.9884,11.959,11.9003,11.8783,11.8636,11.8709,11.8489,11.8235,11.7915,11.5831,11.4446,11.4044,11.3698,11.3004,11.2129,11.1615,11.1083,11.0606,11.0812,11.1034,11.1198,11.1034,11.1034,11.1104,11.0368,11.0134,11.0417,11.0485,11.0539,11.0827,11.2628,11.4409,11.5893,11.656,11.7302,11.815,11.7052,11.6027,11.6049,11.6821,11.7071,11.6418,11.6985,11.7436,11.692,11.6984,11.7037,11.7058,11.7175,11.7122,11.7196,11.7196,11.7726,11.8691,11.8362,11.8786,12.0941,12.178,12.1801,12.195,12.2024,12.1902,12.1556,12.0496,11.942,11.9145,11.814,11.7419,11.7218,11.7641,11.7608,11.7383,11.8699,11.9763,11.9423,12.0656,12.1473,12.1408,12.1532,12.1462,12.1247,12.1103,12.1154,12.1597,12.1205,12.0985,12.9691,12.9108,12.8914,12.8106,12.6638,12.583,12.5245,12.4728,12.4254,12.4348,12.472,12.4076,12.3596,12.3114,12.2643,12.2251,12.1988,12.1253,12.0984,12.1009,12.0936,12.0936,12.1009,12.0912,12.0912,12.0985,12.0985,12.0985,12.0765,12.0765,12.0691,12.0545,11.9884,11.9541,11.9443,11.8783,11.8439,11.8339,11.8072,11.7081,11.5399,11.4869,11.4293,11.3684,11.2918,11.2605,11.2744,11.2132,11.1742,11.1763,11.1763,11.1742,11.1763,11.1668,11.1594,11.1731,11.2375,11.2818,11.2987,11.5721,11.6778,11.5869,11.7665,11.8552,11.8204,11.8507,11.8552,11.8144,11.8135,11.7574,11.6158,11.7095,11.7369,11.637,11.6709,11.7133,11.7154,11.7228,11.7354,11.7354,11.7333,11.7428,11.7821,11.8266,11.903,12.0166,12.0612,12.0835,12.1207,12.143,12.1557,12.1715,12.0866,11.936,11.8224,11.7577,11.7428,11.7407,11.7407,11.7377,11.7524,11.8349,11.949,11.9624,12.0917,12.2003,12.1957,12.2059,12.228,12.1551,12.1264,12.1197,12.091,12.0031,11.9297,13.0749,13.0015,12.9501,12.8694,12.7592,12.7225,12.6713,12.6078,12.6053,12.5782,12.5563,12.5951,12.5532,12.4406,12.3831,12.3368,12.311,12.3166,12.2972,12.2595,12.269,12.269,12.2524,12.2379,12.2307,12.2307,12.2307,12.2086,12.1572,12.1132,12.0912,12.0912,12.0985,12.1059,12.1083,12.0765,12.0616,12.0735,12.0176,11.9315,11.8266,11.749,11.6833,11.6114,11.5459,11.4905,11.4475,11.3736,11.3293,11.3293,11.3293,11.3293,11.3293,11.3533,11.3807,11.401,11.477,11.5435,11.5952,11.7207,11.7872,11.765,11.898,11.9718,11.9445,11.9741,11.9786,11.9557,11.9136,11.8388,11.746,11.7787,11.7735,11.6963,11.7101,11.7323,11.7249,11.7333,11.7375,11.7375,11.7375,11.7598,11.8192,11.9253,11.9922,12.0166,12.0612,12.1132,12.1132,12.1504,12.1504,12.0984,12.024,11.972,11.8882,11.8362,11.7969,11.7524,11.7375,11.7312,11.7493,11.814,11.9062,11.9494,12.0955,12.1926,12.1888,12.2014,12.2139,12.1633,12.1404,12.1194,12.1076,12.0003,11.9467,13.185,13.1043,13.0088,12.9281,12.8767,12.8473,12.8157,12.7719,12.7673,12.7256,12.6692,12.7551,12.7351,12.6191,12.5274,12.462,12.4311,12.434,12.4095,12.3674,12.3743,12.3719,12.3601,12.3432,12.3261,12.3261,12.3041,12.2527,12.1866,12.1719,12.1426,12.1352,12.1817,12.2086,12.2086,12.2086,12.2036,12.1886,12.1448,12.0934,12.0217,11.9702,11.8893,11.7886,11.7161,11.6661,11.6292,11.5776,11.5385,11.5385,11.5385,11.5555,11.5754,11.5893,11.6187,11.6712,11.7597,11.8334,11.8703,11.8924,11.9293,11.9883,12.0348,12.0569,12.0569,12.0564,12.0513,12.0218,11.9843,11.9261,11.8423,11.8253,11.7926,11.7334,11.7207,11.7207,11.7186,11.7228,11.7312,11.7375,11.7375,11.7672,11.8564,11.9551,11.9996,11.9699,12.0442,12.1111,12.0665,12.0962,12.1207,12.0389,12.024,11.9996,11.9625,11.8574,11.798,11.7651,11.7428,11.744,11.7577,11.8266,11.9084,12.0017,12.0866,12.1535,12.2029,12.2111,12.2119,12.1798,12.1422,12.1214,12.1194,12.0441,12.0078,13.3539,13.2584,13.1116,13.0382,13.0309,12.9575,12.9335,12.9365,12.8778,12.8558,12.8583,12.8534,12.8583,12.8483,12.6813,12.5907,12.5464,12.4289,12.3799,12.3701,12.3628,12.3457,12.3334,12.3334,12.3334,12.3481,12.2894,12.2086,12.1279,12.2453,12.282,12.2086,12.2184,12.216,12.216,12.216,12.1743,12.1327,12.167,12.1597,12.0936,12.0789,11.9981,11.861,11.7631,11.7531,11.8022,11.8242,11.8169,11.8169,11.8045,11.8463,11.9124,11.861,11.861,11.9441,12.091,12.14,12.091,12.1351,12.1792,12.1792,12.1301,12.0886,12.0958,12.1197,12.0997,12.021,12.0371,11.9837,11.878,11.8322,11.779,11.7147,11.6904,11.6926,11.6852,11.7312,11.7239,11.7461,11.7577,11.7927,11.8542,11.8638,11.9009,11.8935,11.8935,11.9105,11.9306,11.9699,12.0442,12.0888,12.0814,12.0516,11.8988,11.8585,11.7949,11.762,11.7875,11.7663,11.8161,11.8786,11.9551,12.0368,12.0962,12.1557,12.2225,12.2457,12.2518,12.2096,12.1457,12.1201,12.126,12.0956,12.0666,13.2584,13.1336,13.0749,13.0529,13.0455,13.0162,13.014,13.0144,12.9335,12.9092,12.9094,12.9018,12.9044,12.9119,12.843,12.7941,12.7501,12.7084,12.6765,12.6618,12.6593,12.6373,12.5833,12.5685,12.5317,12.4803,12.4534,12.402,12.3261,12.3334,12.3188,12.3041,12.3408,12.3408,12.2967,12.2894,12.2674,12.238,12.1793,12.1426,12.167,12.1132,12.0765,12.0691,11.9443,11.8636,11.8416,11.8416,11.8416,11.8416,11.8856,11.9297,11.9614,12.0324,12.1132,12.194,12.2527,12.2747,12.2527,12.2674,12.26,12.216,12.238,12.216,12.189,12.2183,12.2452,12.2084,12.1641,12.1218,12.0763,11.9599,11.8758,11.8906,11.8537,11.8234,11.8462,11.8571,11.8636,11.8701,11.8722,11.887,11.9231,11.9762,11.9932,11.9433,12.0186,12.0346,11.9826,12.0409,12.1182,12.1046,12.0929,12.0672,12.0205,11.9791,11.9377,11.8976,11.8806,11.9081,11.9538,11.8299,11.8638,11.9996,12.0814,12.0888,12.1334,12.1631,12.1863,12.202,12.1385,12.119,12.1251,12.0803,12.0517,13.1703,13.0676,13.0749,13.0896,13.0896,13.119,13.1263,13.119,13.0676,13.0309,13.0162,13.0166,13.007,12.9875,12.9926,12.9784,12.9344,12.9173,12.8779,12.8384,12.8604,12.831,12.7697,12.7374,12.6858,12.6124,12.5757,12.517,12.4289,12.4068,12.3922,12.3775,12.4289,12.4215,12.3775,12.3701,12.3628,12.3188,12.2453,12.238,12.2747,12.238,12.2307,12.2674,12.2013,12.1059,12.0031,11.9957,12.0031,12.0031,12.0471,12.0912,12.1279,12.2453,12.3628,12.4362,12.4509,12.4582,12.4729,12.4362,12.3995,12.3628,12.3334,12.3114,12.2894,12.3114,12.3408,12.3408,12.2967,12.2697,12.3259,12.2028,12.0694,12.032,11.9679,11.9304,11.9313,11.9261,11.9328,11.9407,11.9673,11.9843,12.0057,12.0653,12.0706,12.0266,12.1331,12.1312,12.0632,12.1182,12.1828,12.1216,12.1003,12.1043,12.0785,12.0548,11.9794,11.935,11.8928,11.9616,11.9747,11.8415,11.8097,11.9455,12.0071,12.0071,12.0294,12.0686,12.1037,12.1386,12.1466,12.1251,12.0877,12.0353,12.0388,13.1336,13.0749,13.1336,13.163,13.163,13.2217,13.2731,13.2658,13.2658,13.2196,13.1808,13.1941,13.1454,13.1037,13.0992,13.1166,13.087,13.0152,12.9361,12.8623,12.9185,12.9013,12.8304,12.8278,12.7666,12.6785,12.6124,12.4949,12.3775,12.4876,12.5243,12.4656,12.4656,12.4656,12.4436,12.4362,12.4068,12.3628,12.3775,12.4215,12.4509,12.4362,12.4362,12.4582,12.5096,12.4729,12.3334,12.3188,12.2967,12.2967,12.3114,12.3628,12.4142,12.4974,12.5904,12.6344,12.6638,12.7152,12.7519,12.6344,12.5757,12.5904,12.4656,12.3775,12.4068,12.3848,12.3775,12.4215,12.3995,12.4167,12.5782,12.4999,12.3211,12.0729,12.0555,12.0187,11.9349,11.8958,11.9043,11.9646,12.0252,12.0755,12.1025,12.1291,12.1405,12.1644,12.1754,12.1588,12.1287,12.1999,12.1959,12.1408,12.1278,12.1474,12.1363,12.1081,12.0155,11.9327,11.898,11.9098,11.9394,11.8701,11.8108,11.9062,11.9551,11.9625,12.0145,12.0463,12.0166,12.0399,12.0702,12.0941,12.0541,12.019,12.0597,13.2364,13.2144,13.1777,13.1703,13.163,13.141,13.185,13.2831,13.2547,13.2872,13.3391,13.2737,13.2248,13.1977,13.1535,13.1264,13.1313,13.1877,13.1799,13.1032,13.0926,13.0555,12.9894,12.9721,12.8767,12.7152,12.6638,12.5977,12.5341,12.6002,12.6124,12.5537,12.5929,12.5537,12.4705,12.4509,12.4362,12.4142,12.3775,12.4142,12.5195,12.5317,12.561,12.6197,12.6932,12.7078,12.6565,12.5023,12.3922,12.3408,12.3848,12.4509,12.517,12.5562,12.5855,12.6051,12.6051,12.6418,12.7005,12.6344,12.5855,12.5929,12.5317,12.4803,12.4582,12.4803,12.4974,12.5268,12.5096,12.539,12.5757,12.5684,12.4779,12.3971,12.3456,12.2426,12.1221,12.0679,12.062,12.0849,12.1025,12.1274,12.1832,12.2184,12.2341,12.2628,12.3001,12.3274,12.2881,12.309,12.3186,12.2256,12.2207,12.1607,12.12,12.082,12.0195,11.9781,11.9509,11.9083,11.921,11.925,11.8733,11.8596,11.9009,11.9402,11.9922,11.9848,11.9551,11.9434,11.9729,11.9843,11.9926,12.0141,12.0531,13.3172,13.2878,13.3156,13.3062,13.2841,13.2919,13.3413,13.4027,13.3814,13.4039,13.441,13.3579,13.289,13.2545,13.1879,13.1779,13.215,13.3014,13.3383,13.3281,13.3026,13.2482,13.172,13.1352,13.0319,12.8701,12.8238,12.7772,12.6962,12.7207,12.7378,12.7255,12.6986,12.6814,12.62,12.5882,12.5661,12.549,12.5392,12.571,12.6443,12.6858,12.7372,12.8253,12.9089,12.9214,12.8724,12.755,12.625,12.4999,12.4876,12.5317,12.6051,12.5929,12.5929,12.6491,12.6638,12.6858,12.7225,12.6932,12.6418,12.6197,12.583,12.5587,12.5294,12.5637,12.5758,12.5956,12.5734,12.5855,12.6051,12.6124,12.6124,12.6124,12.4754,12.3628,12.245,12.1812,12.1636,12.1703,12.1482,12.1706,12.2363,12.2428,12.2879,12.3231,12.4,12.4344,12.3802,12.4054,12.3475,12.2606,12.1628,12.1081,12.0637,12.0434,12.0182,12.0182,12.0205,11.9753,11.9564,11.9473,11.919,11.9137,11.9402,11.9402,11.9848,11.9253,11.8861,11.8871,11.9126,11.9327,11.9634,11.9756,12.0119,13.3859,13.3398,13.4984,13.5115,13.4699,13.6011,13.6162,13.604,13.5943,13.5574,13.5059,13.4519,13.3827,13.3134,13.2685,13.278,13.3249,13.3453,13.4073,13.4864,13.5011,13.4516,13.3652,13.2814,13.1803,13.0917,13.0549,12.9857,12.8851,12.8667,12.8838,12.9095,12.8074,12.7801,12.8596,12.8232,12.7746,12.7452,12.7968,12.8286,12.8306,12.8917,12.9798,13.0632,13.1499,13.1406,13.0498,13.0402,12.959,12.7278,12.6249,12.6249,12.6713,12.6248,12.6469,12.7719,12.8035,12.7914,12.8035,12.7817,12.7572,12.691,12.6323,12.5956,12.6196,12.6101,12.6053,12.6365,12.6077,12.6176,12.6666,12.6813,12.6715,12.6468,12.4852,12.3359,12.2478,12.2184,12.2206,12.2322,12.1927,12.1776,12.2945,12.2668,12.2968,12.3896,12.4575,12.4422,12.409,12.4254,12.389,12.285,12.1649,12.1304,12.1058,12.061,12.0431,12.0461,12.0531,12.0297,11.9933,11.9769,11.9657,11.9604,11.9625,11.9699,11.9625,11.9179,11.9105,11.9455,11.9529,11.9328,11.954,11.9909,12.0414,13.6241,13.6155,13.5495,13.5103,13.4881,13.4884,13.5057,13.5304,13.5554,13.5925,13.5975,13.5604,13.5206,13.4909,13.4164,13.3965,13.431,13.4925,13.53,13.5774,13.6489,13.5926,13.4788,13.3875,13.3037,13.2225,13.1779,13.0963,13.0101,13.0068,12.9911,12.9655,12.9973,12.9828,12.9619,13.0053,12.9686,12.8897,12.9344,12.996,13.0402,13.0598,13.1508,13.2861,13.3207,13.311,13.2593,13.1757,13.0427,12.8607,12.7599,12.7525,12.8091,12.7059,12.6813,12.7551,12.787,12.7796,12.7796,12.7796,12.7649,12.7452,12.6786,12.6531,12.6648,12.6718,12.6787,12.6925,12.6787,12.6698,12.6779,12.688,12.6513,12.5658,12.4852,12.4142,12.3677,12.2845,12.2402,12.3224,12.2519,12.3026,12.4136,12.434,12.4324,12.5468,12.5713,12.5491,12.486,12.4615,12.4358,12.3282,12.2273,12.1926,12.1627,12.1081,12.0776,12.0785,12.0806,12.0768,12.0399,12.0066,11.9964,11.9869,11.9996,12.0071,11.9943,11.972,11.9869,12.0166,12.0092,12.0071,12.0294,12.0579,12.1226,13.793,13.7421,13.7228,13.6639,13.5825,13.5999,13.6049,13.5926,13.6346,13.6716,13.679,13.6541,13.624,13.5983,13.507,13.4945,13.5411,13.5998,13.63,13.6558,13.71,13.6835,13.6024,13.5505,13.4862,13.4024,13.3745,13.3198,13.2361,13.2033,13.1921,13.199,13.1814,13.1693,13.2001,13.1548,13.1235,13.0444,13.0621,13.0943,13.1289,13.1634,13.2446,13.3678,13.4197,13.4518,13.4395,13.3383,13.1681,12.981,12.8703,12.8407,12.8777,12.8038,12.7521,12.7816,12.8038,12.8088,12.7719,12.7645,12.7719,12.7595,12.7072,12.6792,12.6833,12.6902,12.6856,12.7084,12.6948,12.6764,12.6745,12.692,12.6702,12.602,12.5853,12.5611,12.4925,12.3968,12.3817,12.4032,12.3764,12.3519,12.5493,12.5079,12.5394,12.5995,12.5908,12.5556,12.5151,12.5037,12.4621,12.3423,12.2356,12.1807,12.1672,12.132,12.1205,12.1218,12.1167,12.1155,12.1036,12.0628,12.0706,12.0612,12.0538,12.0463,12.0538,12.0612,12.0761,12.0909,12.0909,12.0835,12.0909,12.1058,12.1801,13.9099,13.772,13.9382,13.8743,13.7063,13.8498,13.82,13.7457,13.7927,13.8025,13.7675,13.7355,13.7076,13.6676,13.5923,13.5769,13.6549,13.6721,13.7003,13.7237,13.7512,13.7344,13.754,13.7288,13.67,13.5942,13.6342,13.5676,13.467,13.4231,13.4539,13.4397,13.3371,13.3572,13.4047,13.3414,13.2459,13.1969,13.2046,13.205,13.215,13.2545,13.3384,13.4444,13.516,13.5629,13.5577,13.4859,13.3379,13.0894,12.9736,12.9489,12.9415,12.9317,12.8799,12.8453,12.8847,12.8823,12.8208,12.8255,12.806,12.8033,12.7391,12.6991,12.7484,12.7416,12.7245,12.7561,12.6884,12.6764,12.6796,12.7317,12.722,12.68,12.7361,12.7189,12.6013,12.5351,12.5328,12.5425,12.476,12.4756,12.5162,12.5116,12.4871,12.6535,12.6354,12.5869,12.5322,12.4906,12.4296,12.3311,12.2252,12.1392,12.1377,12.1508,12.1587,12.1643,12.1542,12.1531,12.1614,12.1488,12.1566,12.1578,12.1207,12.1355,12.1705,12.1801,12.1705,12.1727,12.1705,12.143,12.1207,12.143,12.195,14.0299,13.8918,13.877,13.7978,13.7185,13.8246,13.8469,13.8076,13.9014,13.9237,13.8867,13.8443,13.8214,13.8034,13.7279,13.7273,13.7388,13.7576,13.7868,13.7898,13.7693,13.8187,13.8457,13.806,13.7531,13.7218,13.7307,13.6905,13.6165,13.5727,13.547,13.5189,13.5187,13.514,13.5149,13.5418,13.4952,13.3735,13.3617,13.3771,13.3774,13.3898,13.4714,13.6,13.6444,13.6641,13.6541,13.5971,13.518,13.4217,13.2685,13.1673,13.1747,13.0583,12.9892,13.0041,13.0212,13.0087,12.9494,12.9619,12.9939,12.9248,12.9067,12.9243,12.931,12.8804,12.855,12.8554,12.8041,12.7479,12.7323,12.7878,12.7764,12.7616,12.8329,12.8969,12.7764,12.644,12.6342,12.6833,12.6079,12.5584,12.7047,12.6365,12.636,12.6988,12.6795,12.6348,12.5686,12.507,12.4187,12.3475,12.2734,12.2067,12.2667,12.2622,12.2451,12.2281,12.2052,12.1948,12.2007,12.1806,12.1715,12.178,12.1801,12.2055,12.2243,12.2405,12.2182,12.2352,12.2448,12.2225,12.2098,12.2098,12.195,14.1343,14.0058,13.9909,13.924,13.8373,13.9164,13.9289,13.8992,13.976,13.9807,13.9284,13.9132,13.8925,13.8578,13.8077,13.792,13.8085,13.8107,13.7988,13.7875,13.7716,13.7848,13.81,13.8043,13.7899,13.8478,13.823,13.7834,13.732,13.6778,13.6383,13.6128,13.624,13.6165,13.603,13.6338,13.5969,13.5273,13.4705,13.4782,13.5525,13.5302,13.56,13.6863,13.7308,13.7383,13.6937,13.664,13.6417,13.5971,13.4782,13.3742,13.3742,13.2627,13.1959,13.1439,13.1439,13.1067,13.0621,13.025,13.025,13.0324,13.009,12.989,12.9786,12.9526,12.9124,12.8774,12.8379,12.7962,12.7554,12.8506,12.8489,12.8266,12.9324,13.0067,12.9381,12.7981,12.7193,12.7878,12.7073,12.7107,12.742,12.7222,12.7798,12.8274,12.7308,12.6884,12.6899,12.6134,12.4834,12.3972,12.3304,12.3156,12.3928,12.398,12.3557,12.3156,12.2553,12.2374,12.2312,12.1928,12.1544,12.1745,12.1902,12.197,12.2103,12.2408,12.2592,12.237,12.2466,12.2776,12.2745,12.2256,12.2129,14.2361,14.0949,14.1469,14.0801,13.9686,14.033,14.0256,13.976,14.0603,14.05,13.9495,13.9773,13.9429,13.8691,13.8271,13.8241,13.8241,13.8152,13.7875,13.7738,13.7647,13.7708,13.7716,13.8109,13.865,13.9915,13.9004,13.8441,13.8073,13.7556,13.7084,13.6961,13.6961,13.6837,13.6738,13.6417,13.6292,13.6441,13.5698,13.56,13.664,13.6417,13.6714,13.7234,13.7457,13.7531,13.7086,13.6937,13.6937,13.6937,13.6343,13.5674,13.5079,13.4485,13.4039,13.2553,13.2553,13.233,13.1736,13.1067,13.077,13.1216,13.057,13.0199,13.0124,13.0096,12.9673,12.9204,12.8758,12.8237,12.7523,12.8638,12.8912,12.8735,12.9838,13.0731,13.0542,12.9433,12.8764,12.8764,12.8324,12.8237,12.8231,12.8118,12.8878,12.9279,12.8216,12.7509,12.7546,12.7068,12.5737,12.4765,12.4171,12.4279,12.5002,12.541,12.5016,12.426,12.3504,12.3089,12.2865,12.2854,12.2606,12.1948,12.1962,12.2094,12.2367,12.2827,12.2866,12.2444,12.2489,12.2808,12.2674,12.2339,12.2361,14.3178,14.1618,14.1098,14.0281,13.9637,14.0503,14.0825,14.0751,14.1666,14.1662,14.062,14.0429,13.9866,13.9126,13.8377,13.8063,13.7875,13.7807,13.7738,13.7624,13.7582,13.7665,13.8234,13.8417,13.9161,13.9505,13.9034,13.8589,13.8517,13.8173,13.7556,13.7086,13.7086,13.7086,13.7086,13.6863,13.7011,13.7383,13.6863,13.6937,13.716,13.7531,13.768,13.7903,13.7829,13.7457,13.716,13.7011,13.7011,13.7011,13.6863,13.6714,13.6343,13.5377,13.4634,13.4114,13.3965,13.3816,13.3445,13.2999,13.2776,13.2702,13.2107,13.1662,13.1513,13.1067,13.0547,13.0176,12.9655,12.8861,12.7426,12.8838,12.8838,12.8489,12.9107,13.017,13.005,12.9878,12.9804,13.0101,12.9678,12.9084,12.9055,12.9026,12.9385,12.9511,12.8862,12.848,12.8546,12.7703,12.6518,12.573,12.5238,12.5538,12.6114,12.6396,12.6335,12.5593,12.4783,12.3925,12.3896,12.4078,12.3816,12.3379,12.2763,12.2486,12.2833,12.3448,12.3687,12.3646,12.3311,12.3049,12.2904,12.2829,12.243,14.3996,14.251,14.2064,14.1469,14.09,14.1222,14.1371,14.1296,14.1519,14.112,14.0447,13.9817,13.9182,13.8503,13.8099,13.7784,13.7716,13.7693,13.7624,13.7582,13.7465,13.752,13.8014,13.8149,13.8521,13.8742,13.8544,13.8618,13.8817,13.7976,13.768,13.768,13.7606,13.7606,13.7754,13.8126,13.8423,13.8646,13.8497,13.82,13.82,13.8646,13.8646,13.8274,13.8572,13.8497,13.768,13.7606,13.7383,13.716,13.7383,13.7606,13.7457,13.716,13.6417,13.5451,13.5228,13.4931,13.4634,13.4114,13.3891,13.3816,13.3148,13.2776,13.2553,13.2033,13.1364,13.0844,13.0199,12.9381,12.8615,12.9581,12.9804,12.9581,13.0101,13.0696,13.0844,13.0844,13.1067,13.1216,13.0273,12.9753,12.9901,12.9873,12.9867,12.9675,12.9397,12.9283,12.9311,12.8263,12.7056,12.6695,12.6208,12.642,12.6845,12.7125,12.7066,12.6386,12.6101,12.5246,12.4804,12.4983,12.5133,12.4994,12.4319,12.3861,12.3816,12.4544,12.4648,12.4944,12.5227,12.5145,12.4061,12.3348,12.3067,14.4441,14.3104,14.2732,14.2138,14.1469,14.1618,14.1469,14.1321,14.095,14.0354,13.9531,13.8956,13.8426,13.7871,13.7647,13.76,13.7554,13.7531,13.7414,13.7347,13.73,13.7204,13.7084,13.7234,13.763,13.7952,13.8249,13.8497,13.8745,13.82,13.7977,13.8051,13.8274,13.8423,13.8572,13.8869,13.9909,14.0206,14.0132,13.9686,13.9612,13.9315,13.8869,13.8349,13.9538,13.9315,13.7903,13.7977,13.768,13.7383,13.7457,13.7903,13.8051,13.872,13.82,13.664,13.6268,13.5822,13.5451,13.4857,13.4782,13.4708,13.3816,13.3371,13.3073,13.2405,13.1736,13.0993,13.0621,13.005,12.9678,13.0324,13.0621,13.0547,13.0919,13.1611,13.1513,13.1513,13.1513,13.129,13.0621,13.0422,13.0473,13.0719,13.0737,13.0122,12.9748,12.9592,12.9398,12.8597,12.7697,12.7492,12.7302,12.7302,12.7472,12.7602,12.7292,12.6521,12.6706,12.6551,12.6116,12.577,12.5967,12.6068,12.686,12.655,12.6091,12.5724,12.626,12.6751,12.7454,12.6954,12.533,12.4647,12.4432,14.3921,14.2955,14.1618,14.0503,13.9909,14.0578,14.0429,13.9934,14.0577,14.0103,13.8935,13.8851,13.8422,13.7824,13.7587,13.7323,13.7204,13.7255,13.7329,13.7405,13.7331,13.7307,13.716,13.7754,13.7606,13.768,13.8051,13.82,13.8572,13.8794,13.872,13.8572,13.9017,13.924,13.9315,13.9612,13.9835,14.0503,14.0503,14.0355,14.0132,13.9092,13.8423,13.8349,13.8497,13.8349,13.768,13.7903,13.7754,13.716,13.7086,13.716,13.7308,13.7903,13.82,13.7977,13.7903,13.7903,13.7383,13.6491,13.5748,13.5525,13.4411,13.3519,13.3222,13.2776,13.2033,13.0993,13.1364,13.1141,13.0398,13.0547,13.0473,13.0398,13.0547,13.0844,13.1067,13.1736,13.181,13.1884,13.1364,13.1067,13.0993,13.1337,13.1532,13.0793,13.0174,13.0019,12.9838,12.9224,12.8698,12.8644,12.8568,12.8568,12.8343,12.8418,12.8043,12.7142,12.7442,12.7893,12.7457,12.7022,12.6686,12.7091,12.8058,12.8748,12.8118,12.7954,12.8127,12.8461,12.8865,12.7796,12.6178,12.5858,12.5895,14.355,14.2361,14.1692,14.0578,13.9612,14.0281,14.0503,14.0231,14.0107,13.971,13.904,13.8616,13.8315,13.8018,13.7874,13.7801,13.7704,13.7704,13.7977,13.82,13.8274,13.8051,13.7829,13.7977,13.7903,13.8051,13.8423,13.8869,13.8943,13.8794,13.8794,13.9612,13.9909,14.0132,14.0132,14.0578,14.0652,14.0503,13.9835,13.9315,13.9092,13.8646,13.82,13.82,13.8572,13.8349,13.7977,13.7903,13.7829,13.7234,13.7308,13.768,13.7903,13.8497,13.9017,13.9538,13.8646,13.8423,13.8572,13.768,13.716,13.6714,13.5674,13.4634,13.4114,13.3593,13.3073,13.233,13.2553,13.2182,13.1364,13.1364,13.1364,13.1165,13.0942,13.109,13.1388,13.1513,13.181,13.1959,13.2131,13.1857,13.1657,13.1926,13.2001,13.1526,13.089,13.0643,13.0766,13.0736,13.0369,13.005,12.992,12.977,12.9395,12.9244,12.9244,12.8644,12.8719,12.8944,12.8644,12.8248,12.8043,12.8193,12.8993,12.944,12.971,13.0009,13.0233,13.0233,13.0276,12.925,12.8321,12.7743,12.7541,14.3104,14.1618,14.1618,14.0726,13.9538,14.0355,14.0578,14.0281,13.9983,13.9612,13.9315,13.8819,13.8522,13.8497,13.8522,13.8522,13.8497,13.8546,13.8918,13.9265,13.9364,13.9091,13.867,13.8572,13.8572,13.8497,13.9017,13.9463,13.9463,13.9389,13.9686,14.0652,14.0801,14.0949,14.1098,14.1098,14.1024,14.0206,13.9538,13.8943,13.8423,13.8572,13.8349,13.8423,13.8646,13.8794,13.8274,13.82,13.7829,13.7308,13.7383,13.768,13.7829,13.8423,13.9017,13.9389,13.8794,13.8869,13.8794,13.8349,13.8051,13.7457,13.6714,13.5228,13.4559,13.4485,13.4336,13.3519,13.3593,13.3296,13.285,13.2553,13.2623,13.2475,13.2303,13.2326,13.2326,13.2056,13.1982,13.2154,13.2326,13.247,13.2368,13.254,13.2419,13.2103,13.1698,13.1307,13.1404,13.1666,13.1355,13.0876,13.1122,13.0746,13.007,12.9845,12.992,13.0146,13.0146,13.007,12.975,12.96,12.947,12.977,13.0125,13.0664,13.1056,13.1673,13.2248,13.2007,13.1772,13.1427,13.0786,13.0019,12.9101,14.2212,14.0801,14.0801,14.0305,13.9488,14.0355,14.0231,13.9835,14.033,14.0107,13.9537,13.9339,13.929,13.9339,13.9364,13.9364,13.9339,13.9559,13.9734,13.9685,13.9585,13.9758,13.9561,13.9413,13.9364,13.9339,13.9661,14.0033,14.0429,14.0429,14.0503,14.0726,14.1396,14.1717,14.1544,14.1098,14.0578,13.9983,13.9612,13.9092,13.8646,13.8572,13.8794,13.8274,13.8274,13.82,13.82,13.82,13.7903,13.716,13.7308,13.7308,13.7457,13.7903,13.8423,13.8646,13.8794,13.8869,13.8869,13.82,13.7308,13.6863,13.6491,13.5822,13.5302,13.4782,13.4559,13.4634,13.4708,13.4411,13.4039,13.3766,13.3465,13.3265,13.287,13.2721,13.2549,13.2228,13.2228,13.2326,13.2424,13.247,13.2586,13.2683,13.2678,13.2311,13.2133,13.174,13.175,13.1912,13.1686,13.1552,13.2098,13.1647,13.0521,13.0521,13.1347,13.1272,13.1047,13.1026,13.0855,13.078,13.0289,13.0835,13.1039,13.1756,13.2323,13.2432,13.2711,13.3204,13.3149,13.2474,13.1798,13.0902,13.0131,14.2536,14.1718,14.1718,14.0899,13.9708,14.0697,14.0918,14.062,14.0471,14.0223,13.9925,13.9781,14.0004,14.0449,14.0427,14.0378,14.0378,14.0451,14.0824,14.117,14.1318,14.1116,14.0844,14.0647,14.0548,14.0477,14.0428,14.0702,14.1321,14.152,14.1862,14.2083,14.2236,14.2263,14.1989,14.1222,14.033,13.9884,13.9141,13.8002,13.7903,13.82,13.8497,13.8274,13.82,13.8497,13.8794,13.8423,13.8051,13.7829,13.768,13.7383,13.7086,13.7383,13.768,13.8051,13.82,13.8274,13.8572,13.7977,13.7606,13.716,13.7086,13.7011,13.6491,13.7011,13.6788,13.6491,13.5971,13.5748,13.4559,13.3816,13.3343,13.3465,13.3339,13.3019,13.2819,13.2572,13.2377,13.2526,13.24,13.2326,13.2465,13.2655,13.2671,13.259,13.2382,13.2269,13.2329,13.2468,13.2369,13.2528,13.2999,13.2774,13.1647,13.2173,13.2924,13.2398,13.1873,13.1811,13.1673,13.0915,13.0744,13.129,13.1953,13.2369,13.2691,13.2853,13.3078,13.3366,13.3333,13.3074,13.2398,13.1702,13.0972,14.3231,14.2807,14.288,14.2035,14.0817,14.1432,14.1727,14.1652,14.118,14.0905,14.0882,14.0716,14.1164,14.1856,14.2008,14.2136,14.2309,14.2507,14.2706,14.3077,14.3272,14.2895,14.2498,14.2376,14.2405,14.1987,14.2137,14.2462,14.2875,14.2682,14.3177,14.3491,14.3407,14.3575,14.328,14.2092,14.1003,14.0468,13.9329,13.7898,13.8025,13.8051,13.8794,13.872,13.8572,13.8869,13.924,13.9092,13.8497,13.8274,13.8051,13.768,13.7308,13.7086,13.7308,13.7481,13.7704,13.7654,13.7779,13.7754,13.768,13.7531,13.7457,13.7754,13.8274,13.8572,13.7531,13.7457,13.7234,13.6863,13.5525,13.5228,13.4654,13.48,13.3441,13.2972,13.3163,13.3037,13.2796,13.2674,13.2745,13.3153,13.2551,13.2785,13.2822,13.2836,13.2753,13.2744,13.2971,13.3239,13.3495,13.3708,13.4126,13.36,13.2999,13.3375,13.3675,13.3074,13.2678,13.2499,13.2189,13.1601,13.1484,13.2201,13.2714,13.2982,13.3249,13.3453,13.3378,13.3378,13.3366,13.3429,13.3153,13.2457,13.1415,14.4323,14.3918,14.4155,14.3509,14.2498,14.2549,14.2596,14.247,14.2372,14.2297,14.2321,14.2348,14.2722,14.3418,14.3344,14.367,14.424,14.4683,14.4907,14.4737,14.4805,14.4557,14.4336,14.4214,14.4088,14.407,14.4067,14.4324,14.4474,14.4234,14.4642,14.5268,14.5409,14.5516,14.556,14.4727,14.3491,14.2068,14.0946,14.0027,13.9139,13.872,13.9315,13.9686,13.924,13.9389,14.0132,13.9835,13.924,13.8794,13.8497,13.805,13.755,13.7252,13.7374,13.7544,13.8068,13.7996,13.7379,13.7257,13.7701,13.8073,13.8071,13.7977,13.8051,13.7977,13.8051,13.8497,13.8349,13.82,13.7754,13.7184,13.6314,13.5148,13.3789,13.3097,13.3288,13.3135,13.2721,13.3163,13.4134,13.4682,13.3561,13.2933,13.3065,13.3153,13.3121,13.3261,13.355,13.3635,13.3816,13.4159,13.4426,13.4126,13.3675,13.4276,13.4351,13.3825,13.3483,13.3474,13.341,13.3143,13.3122,13.3325,13.3837,13.4443,13.4243,13.4095,13.4326,13.4552,13.39,13.3762,13.3614,13.3462,13.2705,14.4964,14.4903,14.4473,14.4169,14.3938,14.3938,14.3638,14.3016,14.2451,14.2451,14.2843,14.2451,14.2624,14.3419,14.4076,14.4454,14.4703,14.5301,14.5376,14.5475,14.5737,14.5582,14.5363,14.5466,14.5443,14.5218,14.5432,14.5436,14.4704,14.519,14.5376,14.5829,14.7247,14.7489,14.6615,14.558,14.448,14.2864,14.1847,14.0908,13.971,13.9736,14.0157,14.0751,14.0206,14.0429,14.142,14.0776,14.028,13.9784,13.9436,13.898,13.8555,13.8317,13.836,13.9051,13.9865,14.0078,13.9963,13.9996,13.9313,13.913,13.8786,13.8844,13.9612,14.0206,14.0132,13.976,13.9612,13.924,13.8349,13.7457,13.6489,13.5002,13.3816,13.3394,13.3218,13.2796,13.2572,13.36,13.4621,13.5071,13.4593,13.4105,13.4126,13.3837,13.3783,13.3849,13.4095,13.3741,13.3729,13.403,13.4351,13.4276,13.4351,13.4576,13.4748,13.4351,13.4309,13.4546,13.4503,13.4353,13.4428,13.4428,13.5215,13.5899,13.5809,13.5758,13.5934,13.5898,13.5747,13.5064,13.4782,13.4841,13.4701,14.605,14.5962,14.5461,14.5178,14.4992,14.4414,14.3964,14.3716,14.313,14.3378,14.3896,14.3257,14.358,14.4474,14.4803,14.5461,14.5686,14.6211,14.6511,14.6534,14.665,14.6546,14.6494,14.6563,14.6706,14.6624,14.686,14.6936,14.6836,14.6615,14.6866,14.765,14.8871,14.9037,14.8351,14.7664,14.6993,14.56,14.4535,14.3082,14.2048,14.1557,14.1396,14.1841,14.1842,14.1841,14.209,14.2065,14.1638,14.1187,14.0821,14.046,14.0232,14.0052,14.003,14.088,14.1167,14.1736,14.2191,14.1551,14.0916,14.0865,14.0055,13.9859,14.0429,14.0503,14.0578,14.0578,14.0726,13.9909,13.8794,13.7903,13.6788,13.5377,13.4262,13.384,13.3437,13.3014,13.3657,13.4584,13.5564,13.5803,13.5957,13.5535,13.5396,13.4879,13.4456,13.4518,13.4501,13.4126,13.3825,13.4051,13.4201,13.4126,13.4276,13.4522,13.4672,13.4823,13.5156,13.5639,13.5327,13.5198,13.5424,13.5796,13.6687,13.7415,13.747,13.76,13.7606,13.802,13.8452,13.7513,13.6259,13.6048,13.6167,14.7659,14.717,14.7118,14.6592,14.5691,14.4264,14.3964,14.464,14.4542,14.4992,14.5691,14.4767,14.5067,14.6419,14.6217,14.6569,14.762,14.7996,14.8071,14.8146,14.7944,14.7643,14.7614,14.7856,14.7946,14.8198,14.8523,14.8895,14.9482,14.8259,14.819,14.9116,14.9726,15.016,15.0146,15.0115,14.9395,14.7839,14.6501,14.5293,14.4532,14.3436,14.3448,14.3719,14.3729,14.3397,14.3493,14.3598,14.3093,14.2748,14.2536,14.2487,14.2266,14.2058,14.2077,14.2153,14.2266,14.3312,14.392,14.3154,14.2625,14.2438,14.0947,14.0548,14.0429,14.0652,14.0726,14.0801,14.0801,14.0206,13.9389,13.8572,13.768,13.6268,13.4857,13.4381,13.4047,13.4299,13.5099,13.6057,13.7166,13.7604,13.7535,13.7235,13.6997,13.5733,13.523,13.4927,13.4802,13.4501,13.4201,13.3976,13.4051,13.3976,13.4201,13.4952,13.5628,13.6078,13.6475,13.6829,13.6389,13.653,13.7186,13.7827,13.8471,13.8847,13.8876,13.8999,13.9284,13.9731,13.9975,13.9256,13.7752,13.7314,13.7009,14.8198,14.7944,14.7343,14.6667,14.5766,14.4715,14.509,14.6141,14.524,14.509,14.5841,14.5015,14.5466,14.6217,14.6592,14.7043,14.7568,14.8019,14.8319,14.8418,14.8487,14.8215,14.8376,14.8637,14.8888,14.9294,14.9733,15.0119,14.9635,14.8807,14.8733,14.937,14.9952,15.0568,15.1106,15.1568,15.0237,14.9142,14.7888,14.7334,14.6765,14.5674,14.5782,14.5815,14.5331,14.4996,14.4922,14.4629,14.4102,14.3941,14.3399,14.3178,14.374,14.3258,14.3115,14.462,14.5142,14.5756,14.594,14.5217,14.4459,14.3954,14.2716,14.1924,14.1618,14.1296,14.1222,14.1172,14.1024,14.0429,13.9612,13.8794,13.768,13.6268,13.5252,13.5026,13.4866,13.5257,13.6098,13.7684,13.876,13.9497,13.9315,13.9415,13.8948,13.716,13.6058,13.5796,13.537,13.5069,13.4727,13.4501,13.4576,13.4727,13.5327,13.6003,13.6754,13.743,13.7687,13.8049,13.8268,13.8471,13.9157,13.9662,14.0054,14.0112,14.0065,14.032,14.0737,14.0623,14.0785,14.0085,13.9433,13.8904,13.82,14.8418,14.8319,14.7869,14.7343,14.6817,14.6367,14.6592,14.6892,14.5991,14.6066,14.6742,14.6066,14.6066,14.6892,14.7118,14.7268,14.7719,14.8169,14.8418,14.8464,14.864,14.8774,14.8942,14.9369,14.9783,15.0209,15.0554,15.085,15.0359,14.9731,14.9567,14.9476,14.9721,15.0337,15.0721,15.0692,15.0391,14.9666,14.9108,14.8657,14.8221,14.7927,14.7904,14.7698,14.7071,14.6572,14.6156,14.557,14.5246,14.5071,14.4459,14.4837,14.5371,14.4958,14.5158,14.639,14.6481,14.6606,14.6592,14.6385,14.5702,14.5013,14.4348,14.3544,14.2588,14.199,14.1842,14.1767,14.1321,14.0801,13.9835,13.8794,13.7457,13.6045,13.5846,13.5722,13.5904,13.6198,13.7493,13.9119,14.027,14.1056,14.1426,14.1469,14.1095,13.9628,13.8319,13.7468,13.6816,13.6097,13.5712,13.5327,13.5478,13.5703,13.64,13.6903,13.748,13.8036,13.8558,13.8973,13.9612,14.0097,14.0316,14.0838,14.1432,14.1333,14.1134,14.1728,14.2112,14.1874,14.172,14.1406,14.0799,14.0156,13.9359,14.8418,14.8418,14.8343,14.8094,14.8244,14.8094,14.7719,14.7118,14.6968,14.7493,14.7869,14.7268,14.7268,14.7719,14.7643,14.7834,14.8248,14.8595,14.8752,14.8549,14.9136,14.939,14.9576,14.996,15.0395,15.0918,15.1178,15.1327,15.145,15.0798,15.0029,14.9644,15.0029,15.0414,15.0183,14.9952,14.9788,14.9684,14.979,14.9811,14.9771,14.9667,14.9562,14.9468,14.8681,14.7869,14.7337,14.6889,14.6637,14.6408,14.6416,14.6837,14.6851,14.6866,14.737,14.7399,14.7259,14.7259,14.7182,14.7068,14.6569,14.6048,14.566,14.4582,14.3523,14.2592,14.2333,14.1842,14.1395,14.0875,14.0058,13.9067,13.7827,13.7296,13.7135,13.741,13.7835,13.8522,13.9858,14.1219,14.1775,14.2426,14.2104,14.1946,14.1167,14.0839,14.0521,13.938,13.8181,13.727,13.6728,13.628,13.655,13.6764,13.6845,13.7345,13.7981,13.8575,13.9322,14.0143,14.1001,14.1307,14.137,14.1811,14.2236,14.2259,14.2245,14.2797,14.3028,14.2797,14.2643,14.2643,14.2181,14.1566,14.0566,14.8418,14.8319,14.7719,14.7418,14.7418,14.7418,14.7343,14.7118,14.7118,14.7291,14.7268,14.6765,14.7043,14.8192,14.8186,14.8467,14.8866,14.9072,14.939,14.9597,14.9881,14.996,15.0095,15.0577,15.1004,15.1206,15.1388,15.1481,15.1139,15.0798,15.0568,15.026,15.0183,14.9721,14.9875,14.9567,14.9322,14.9245,14.9513,15.0284,15.0821,15.1189,15.1297,15.0806,15.0017,14.9017,14.8331,14.7521,14.7473,14.75,14.7697,14.786,14.7875,14.7875,14.7644,14.7336,14.7567,14.7567,14.7644,14.7538,14.7198,14.6578,14.6059,14.5147,14.4228,14.3359,14.2588,14.2038,14.147,14.095,14.033,13.9363,13.8714,13.8543,13.8571,13.9126,13.9812,14.1034,14.2308,14.2858,14.3406,14.3213,14.2817,14.2165,14.126,14.1085,14.1351,14.0715,13.9283,13.8261,13.7926,13.7592,13.7762,13.7901,13.7893,13.8297,13.9061,13.9877,14.0726,14.1577,14.2426,14.2351,14.2264,14.2595,14.2846,14.3028,14.3258,14.372,14.3797,14.372,14.3797,14.3951,14.3643,14.3105,14.1874,14.8418,14.8244,14.7493,14.7118,14.7118,14.7118,14.7118,14.7164,14.7383,14.7742,14.7901,14.7075,14.7216,14.8383,14.864,14.8973,14.9411,14.9562,14.9763,15.0114,15.0505,15.0577,15.0824,15.1189,15.1417,15.1667,15.1712,15.1553,15.0798,15.0183,15.0029,14.9721,14.9183,14.9029,14.926,14.8798,14.8721,14.8259,14.8721,14.9644,15.0798,15.0952,15.1183,15.0798,15.0106,14.9337,14.9029,14.8182,14.7952,14.8259,14.849,14.8721,14.8644,14.8336,14.7952,14.7644,14.7567,14.7644,14.7644,14.7664,14.747,14.6953,14.6629,14.5862,14.5234,14.4348,14.3608,14.3085,14.249,14.1971,14.1094,14.0151,13.9957,13.9868,14.0338,14.1006,14.2077,14.3312,14.4043,14.4375,14.4667,14.449,14.4175,14.3997,14.31,14.2255,14.2396,14.162,14.0252,13.9232,13.8967,13.8809,13.8872,13.9181,13.9406,13.9801,14.0535,14.1354,14.2029,14.2726,14.3348,14.3172,14.3105,14.3489,14.3797,14.4028,14.4336,14.4797,14.4951,14.4874,14.5105,14.5336,14.4951,14.4643,14.3874,14.8094,14.7944,14.7268,14.6892,14.6817,14.6892,14.6817,14.6834,14.7465,14.8218,14.8747,14.7675,14.7849,14.8615,14.9115,14.9369,14.9663,15.0133,15.0321,15.0648,15.1055,15.1173,15.1369,15.1697,15.1804,15.1864,15.1938,15.1414,15.0721,15.0106,14.9337,14.849,14.8106,14.7875,14.749,14.7567,14.7875,14.7875,14.8106,14.8413,14.8952,14.9413,15.0029,14.9798,14.926,14.8721,14.8952,14.8644,14.8182,14.8644,14.9029,14.9029,14.8875,14.8413,14.8029,14.7721,14.7567,14.7413,14.7336,14.7413,14.7308,14.714,14.7028,14.6643,14.5944,14.5446,14.4716,14.4148,14.3608,14.2957,14.2025,14.1432,14.1335,14.1636,14.2265,14.2962,14.4242,14.5267,14.5511,14.5741,14.5373,14.5332,14.5032,14.4871,14.4221,14.3395,14.283,14.2049,14.1187,14.0426,13.9842,13.9681,13.9686,14.0105,14.0617,14.1143,14.1656,14.248,14.3133,14.3837,14.418,14.3895,14.3951,14.4412,14.472,14.5105,14.5567,14.6105,14.6105,14.6182,14.6336,14.6644,14.6567,14.6259,14.5951,14.6968,14.6367,14.6217,14.5766,14.5315,14.5841,14.5766,14.5263,14.6022,14.7032,14.8054,14.8247,14.8537,14.9842,14.9921,15.0152,15.0487,15.0883,15.1288,15.1697,15.1651,15.1743,15.1804,15.1849,15.2,15.1952,15.1875,15.1414,15.0491,14.9798,14.9413,14.8952,14.8274,14.8043,14.7875,14.7735,14.7273,14.735,14.7336,14.749,14.7875,14.849,14.9413,14.926,14.8798,14.8875,14.8875,14.7875,14.8259,14.8875,14.9413,14.926,14.8798,14.8413,14.8029,14.7567,14.7413,14.7567,14.749,14.749,14.749,14.749,14.7336,14.6846,14.6476,14.6476,14.5802,14.5306,14.4753,14.4228,14.347,14.3037,14.2886,14.3643,14.436,14.5001,14.5986,14.6276,14.6424,14.5862,14.5211,14.4803,14.4338,14.378,14.2835,14.2397,14.2605,14.1872,14.137,14.1043,14.0729,14.0646,14.0546,14.1137,14.1815,14.2054,14.2548,14.3438,14.4257,14.4838,14.4958,14.4601,14.4797,14.5797,14.6105,14.6413,14.6875,14.749,14.7644,14.7721,14.7798,14.7875,14.7798,14.7644,14.7259]}]]